     2.10           OBSERVATION DATA    G (GPS)             RINEX VERSION / TYPE
teqc 2002Apr3 20050812 22:29:21UTC                          PGM / RUN BY / DATE
                                                            COMMENT
L2: 1 -> 1; 5 -> 5; 40 -> 9                                 COMMENT
L2: 1 -> 1; 5 -> 5; 40 -> 9                                 COMMENT
L2: 1 -> 1; 5 -> 5; 40 -> 9                                 COMMENT
L2: 1 -> 1; 5 -> 5; 40 -> 9                                 COMMENT
Original Marker Name: CAHU                                  COMMENT
Campaign Name: USGS Coachella Subsidence 1996-2000          COMMENT
4-Character Station Name: CAHU                              COMMENT
6-Character Antenna Code: DMRCHT                            COMMENT
Vertical Measurement Point: BPA                             COMMENT
Vertical Offset to Rinex Ref. Point: 0.0000                 COMMENT
Radial Measurement Point: RRP                               COMMENT
Radial Offset to Rinex Ref. Point: 0.0000                   COMMENT
Antenna Height from Field Measurement: 2.2000 m             COMMENT
Additional Antenna Identification Info.:                    COMMENT
Turborogue and Ashtech Choke Ring                           COMMENT
Original XYZ: -2352975.2600 -4766589.9600 3513209.7400      COMMENT
New XYZ position is based on association with SCEC monument COMMENT
E1D0L0H4+0011. Position of that monument is believed to be  COMMENT
valid to within 1 m horizontally; vertical accuracy         COMMENT
should be no worse than 3-times this value.                 COMMENT
                                                            COMMENT
Revised Rinex header created by UCSD GPS archive for        COMMENT
GSAC on 20-Apr-2005 (2005:110) 16:14:45 GMT                 COMMENT
For assistance contact dagnew@ucsd.edu                      COMMENT
or anderson@python.ucsd.edu                                 COMMENT
                                                            COMMENT
CAHU                                                        MARKER NAME
SKG US GEOLOGICAL SURVEY WATER RESOURC.                     OBSERVER / AGENCY
108 ASHTECH L-XII 7A                                        REC # / TYPE / VERS
026 DORNE-MARGOL. TYPE T                                    ANT # / TYPE
 -2352973.0000 -4766391.0000  3513129.0000                  APPROX POSITION XYZ
        2.2000        0.0000        0.0000                  ANTENNA: DELTA H/E/N
     1     1     0                                          WAVELENGTH FACT L1/2
     4    C1    L1    L2    S1                              # / TYPES OF OBSERV
     0                                                      INTERVAL
  1996     6    11    14    34   15.000000                  TIME OF FIRST OBS
  1996     6    11    20    36   45.000000                  TIME OF LAST OBS
                                                            END OF HEADER
 96  6 11 14 34 15.0000000  0  4G 2G19G 7G15
  21232255.066    -2124138.781 9    -45255.96521       104.000
  21933575.062    17665172.946 8     99120.17221        76.000
  21312230.340   -15448809.242 9   -236962.17321        88.000
  23753642.236     -379737.431 6   -137357.71223        38.000
 96  6 11 14 34 30.0000000  0  4G 2G19G 7G15
  21230805.089    -2131772.605 9    -51204.83721       102.000
  21939162.294    17694555.526 8    122015.75821        74.000
  21304953.897   -15487024.372 9   -266741.06023        86.000
  23749550.039     -401214.918 6   -154093.40724        36.000
 96  6 11 14 34 45.0000000  0  5G 2G27G19G 7G15
  21229369.623    -2139305.090 9    -57071.36121       100.000
  20244804.154    13737946.271 9      3428.42721       104.000
  21944785.831    17724077.243 8    145025.82221        76.000
  21297713.820   -15525076.732 9   -296392.26125        86.000
  23745496.425     -422520.388 6   -170695.05525        36.000
 96  6 11 14 35  0.0000000  0  5G 2G27G19G 7G15
  21227960.089    -2146703.152 9    -62839.44821       102.000
  20245074.896    13739376.019 9      4540.10821       104.000
  21950432.602    17753772.214 8    168165.44421        76.000
  21290511.006   -15562926.538 9   -325885.61526        88.000
  23741488.470     -443617.527 6   -187134.39825        36.000
 96  6 11 14 35 15.0000000  0  6G 2G26G27G19G 7G15
  21226587.609    -2153941.285 9    -68476.69421       102.000
  23842744.661   -20421215.730 7   -129696.60021        46.000
  20245386.980    13741033.764 9      5833.48822       102.000
  21956122.902    17783669.975 8    191462.35524        76.000
  21283349.863   -15600548.043 9   -355201.07727        84.000
  23737517.239     -464477.827 6   -203389.18725        36.000
 96  6 11 14 35 30.0000000  0  6G 2G26G27G19G 7G15
  21225242.410    -2161017.415 9    -73990.90021       100.000
  23836059.290   -20456322.212 7   -157052.33422        48.000
  20245747.091    13742921.211 9      7304.25426       102.000
  21961854.215    17813771.253 8    214917.87025        78.000
  21276231.681   -15637943.174 9   -384340.13727        86.000
  23733595.744     -485100.017 6   -219458.39625        38.000
 96  6 11 14 35 45.0000000  0  6G 2G26G27G19G 7G15
  21223930.459    -2167903.022 9    -79360.17121       102.000
  23829429.829   -20491181.713 7   -184215.59023        50.000
  20246158.316    13745064.267 9      8974.16026       102.000
  21967622.731    17844097.338 8    238548.57225        76.000
  21269166.293   -15675088.629 9   -413284.65328        86.000
  23729723.624     -505458.809 6   -235322.44625        36.000
 96  6 11 14 36  0.0000000  0  6G 2G26G27G19G 7G15
  21222658.080    -2174578.359 9    -84563.31425       100.000
  23822845.787   -20525773.380 7   -211170.13924        54.000
  20246620.087    13747483.943 9     10859.61027       104.000
  21973437.716    17874665.658 8    262368.02026        74.000
  21262149.770   -15711969.744 9   -442023.19028        88.000
  23725898.093     -525534.838 6   -250966.09925        36.000
 96  6 11 14 36 15.0000000  0  6G 2G26G27G19G 7G15
  21221430.819    -2181028.038 9    -89589.04825       102.000
  23816316.697   -20560078.375 7   -237901.30725        54.000
  20247133.091    13750201.955 9     12977.54027       102.000
  21979305.403    17905494.746 8    286390.68126        72.000
  21255181.574   -15748569.170 9   -470542.21328        86.000
  23722140.374     -545308.459 6   -266374.12225        36.000
 96  6 11 14 36 30.0000000  0  6G 2G26G27G19G 7G15
  21220245.590    -2187254.875 9    -94441.13226        98.000
  23809844.118   -20594091.484 7   -264405.04525        52.000
  20247710.282    13753220.000 9     15329.24428       102.000
  21985221.688    17936583.582 8    310615.73926        74.000
  21248272.587   -15784885.520 9   -498840.65928        86.000
  23718436.018     -564778.813 6   -281545.80425        38.000
 96  6 11 14 36 45.0000000  0  6G 2G26G27G19G 7G15
  21219101.672    -2193275.432 9    -99132.49426       102.000
  23803424.842   -20627826.154 7   -290691.77825        56.000
  20248338.437    13756522.364 9     17902.51428       104.000
  21991180.153    17967917.752 8    335031.96326        72.000
  21241412.976   -15820931.797 9   -526928.67629        86.000
  23714779.330     -583961.418 6   -296493.30925        36.000
 96  6 11 14 37  0.0000000  0  6G 2G26G27G19G 7G15
  21217993.878    -2199095.372 9   -103667.49827        98.000
  23797057.760   -20661286.948 7   -316765.16225        56.000
  20249021.124    13760103.901 9     20693.31329       104.000
  21997191.981    17999491.299 8    359634.70526        74.000
  21234606.278   -15856712.928 9   -554810.07729        88.000
  23711184.129     -602863.179 6   -311221.94125        38.000
 96  6 11 14 37 15.0000000  0  6G 2G26G27G19G 7G15
  21216922.750    -2204710.476 9   -108042.92127        96.000
  23790745.090   -20694467.411 7   -342620.06725        50.000
  20249752.108    13763970.262 9     23706.05929       104.000
  22003249.287    18031310.012 8    384428.48926        74.000
  21227846.917   -15892227.816 9   -582484.02029        88.000
  23707643.220     -621479.961 6   -325728.52925        36.000
 96  6 11 14 37 30.0000000  0  6G 2G26G27G19G 7G15
  21215895.151    -2210116.310 9   -112255.26127        98.000
  23784480.477   -20727364.394 7   -368254.07926        50.000
  20250544.880    13768126.987 9     26945.06329       102.000
  22009348.535    18063376.999 8    409415.74227        72.000
  21221138.402   -15927471.736 9   -609946.81429        88.000
  23704150.338     -639807.701 6   -340009.86325        38.000
 96  6 11 14 37 45.0000000  0  6G 2G26G27G19G 7G15
  21214907.305    -2215306.459 9   -116299.54027       100.000
  23778281.458   -20759976.746 7   -393666.31726        48.000
  20251395.271    13772578.571 9     30413.82129       104.000
  22015494.370    18095691.924 8    434596.19827        72.000
  21214485.857   -15962436.602 9   -637192.16029        88.000
  23700724.730     -657842.171 6   -354062.69325        40.000
 96  6 11 14 38  0.0000000  0  6G 2G26G27G19G 7G15
  21213963.019    -2220277.984 9   -120173.34228       100.000
  23772124.321   -20792300.519 7   -418853.55326        48.000
  20252297.346    13777330.271 9     34116.51329       104.000
  22021693.149    18128261.623 8    459975.19827        74.000
  21207889.134   -15997116.088 8   -664215.05929        80.000
  23697342.291     -675578.166 7   -367882.88725        46.000
 96  6 11 14 38 15.0000000  0  6G 2G26G27G19G 7G15
  21213049.611    -2225063.428 9   -123902.26428       100.000
  23766024.893   -20824364.939 7   -443838.79826        52.000
  20253254.973    13782352.930 9     38030.26629       104.000
  22027932.700    18161060.585 8    485532.82027        72.000
  21201338.849   -16031537.836 8   -691037.17529        82.000
  23694024.488     -693043.689 7   -381492.34725        48.000
 96  6 11 14 38 30.0000000  0  6G 2G26G27G19G 7G15
  21212173.558    -2229668.451 9   -127490.60328       102.000
  23759969.595   -20856174.181 7   -468625.20126        56.000
  20254261.227    13787639.772 9     42149.87329       106.000
  22034218.778    18194085.994 8    511266.90227        72.000
  21194833.442   -16065703.461 8   -717659.75329        78.000
  23690747.067     -710243.069 7   -394894.48125        46.000
 96  6 11 14 38 45.0000000  0  6G 2G26G27G19G 7G15
  21211334.229    -2234095.841 9   -130940.53628       100.000
  23753967.481   -20887732.343 7   -493215.98926        58.000
  20255313.648    13793183.545 9     46469.68029       106.000
  22040551.983    18227333.415 8    537173.97327        74.000
  21188381.729   -16099617.786 8   -744086.50729        78.000
  23687521.000     -727180.777 7   -408092.68125        44.000
 96  6 11 14 39  0.0000000  0  6G 2G26G27G19G 7G15
  21210524.549    -2238347.945 9   -134253.86028       102.000
  23748006.887   -20919046.974 7   -517616.99926        52.000
  20256418.803    13798978.414 9     50985.14829       106.000
  22046912.530    18260794.234 8    563247.32327        70.000
  21181972.915   -16133285.655 8   -770321.20529        78.000
  23684352.554     -743861.933 7   -421090.99325        46.000
 96  6 11 14 39 15.0000000  0  6G 2G26G27G19G 7G15
  21209746.828    -2242429.051 9   -137433.95628       100.000
  23742094.890   -20950121.430 7   -541830.88026        50.000
  20257565.419    13805019.430 9     55692.42729       106.000
  22053325.061    18294464.916 8    589484.18927        72.000
  21175611.799   -16166714.323 8   -796369.52629        80.000
  23681227.367     -760291.537 7   -433893.30325        50.000
 96  6 11 14 39 30.0000000  0  6G 2G26G27G19G 7G15
  21209004.572    -2246344.732 9   -140485.13628       104.000
  23736224.983   -20980959.727 7   -565860.71526        50.000
  20258760.482    13811299.651 9     60586.08929       104.000
  22059771.108    18328339.051 8    615879.61227        70.000
  21169297.660   -16199905.845 8   -822233.05229        78.000
  23678154.495     -776474.267 7   -446503.21025        50.000
 96  6 11 14 39 45.0000000  0  6G 2G26G27G19G 7G15
  21208286.119    -2250099.706 9   -143411.09228       100.000
  23730402.144   -21011566.333 7   -589710.00826        54.000
  20259998.865    13817815.678 9     65663.50829       104.000
  22066248.754    18362410.410 8    642428.69227        72.000
  21163022.914   -16232863.351 8   -847914.21929        80.000
  23675111.242     -792414.333 7   -458923.99425        48.000
 96  6 11 14 40  0.0000000  0  6G 2G26G27G19G 7G15
  21207605.560    -2253698.921 9   -146215.68628       106.000
  23724622.506   -21041943.255 7   -613380.39626        54.000
  20261285.664    13824563.208 9     70921.30329       106.000
  22072775.925    18396678.074 8    669130.74927        72.000
  21156794.786   -16265596.405 8   -873420.49329        78.000
  23672124.889     -808115.911 7   -471159.00725        44.000
 96  6 11 14 40 15.0000000  0  6G 2G26G27G19G 7G15
  21206946.796    -2257147.175 9   -148902.63828       102.000
  23718881.840   -21072092.859 7   -636873.60226        52.000
  20262612.575    13831538.870 9     76356.88229       106.000
  22079333.585    18431143.064 8    695986.56627        72.000
  21150606.530   -16298111.294 8   -898756.76929        78.000
  23669186.893     -823580.910 7   -483209.63425        48.000
 96  6 11 14 40 30.0000000  0  6G 2G26G27G19G 7G15
  21206314.954    -2260445.766 9   -151472.96928       102.000
  23713186.533   -21102019.722 7   -660193.20226        50.000
  20263979.839    13838738.719 9     81967.16429       106.000
  22085928.270    18465799.335 8    722991.43327        72.000
  21144465.791   -16330409.007 8   -923923.81329        80.000
  23666292.846     -838812.825 7   -495078.66825        46.000
 96  6 11 14 40 45.0000000  0  6G 2G26G27G19G 7G15
  21205716.088    -2263598.206 9   -153929.42629       104.000
  23707535.025   -21131729.780 7   -683343.91526        48.000
  20265395.159    13846160.188 9     87750.11429       106.000
  22092559.439    18500639.813 8    750139.84827        72.000
  21138355.961   -16362493.893 8   -948925.02029        78.000
  23663422.963     -853816.076 7   -506769.49725        46.000
 96  6 11 14 41  0.0000000  0  6G 2G26G27G19G 7G15
  21205143.635    -2266606.366 9   -156273.45129       102.000
  23701921.651   -21161227.120 7   -706328.85626        50.000
  20266853.559    13853803.367 9     93705.83629       106.000
  22099220.198    18535659.580 8    777427.95627        72.000
  21132292.268   -16394370.747 8   -973764.12229        80.000
  23660618.465     -868592.531 7   -518283.60225        50.000
 96  6 11 14 41 15.0000000  0  6G 2G26G27G19G 7G15
  21204601.430    -2269475.995 9   -158509.52429       102.000
  23696349.049   -21190513.481 7   -729149.38726        52.000
  20268347.515    13861668.324 9     99834.35629       108.000
  22105917.921    18570855.829 8    804853.57727        74.000
  21126261.913   -16426045.883 8   -998446.03629        78.000
  23657846.284     -883145.710 7   -529623.70026        48.000
 96  6 11 14 41 30.0000000  0  6G 2G26G27G19G 7G15
  21204080.990    -2272212.260 9   -160641.68929       102.000
  23690817.398   -21219590.482 7   -751806.82126        50.000
  20269883.352    13869753.614 9    106134.56429       106.000
  22112653.359    18606227.666 8    832416.01127        74.000
  21120276.707   -16457522.771 8  -1022973.49329        82.000
  23655117.033     -897477.684 7   -540791.49126        48.000
 96  6 11 14 41 45.0000000  0  6G 2G26G27G19G 7G15
  21203585.313    -2274818.686 9   -162672.66829       102.000
  23685320.464   -21248463.343 7   -774305.12626        50.000
  20271468.414    13878057.967 9    112605.49029       108.000
  22119412.989    18641769.591 8    860111.01027        72.000
  21114323.428   -16488804.192 8  -1047348.61429        80.000
  23652433.501     -911591.029 7   -551788.89226        50.000
 96  6 11 14 42  0.0000000  0  6G 2G26G27G19G 7G15
  21203112.960    -2277298.045 9   -164604.63929       100.000
  23679866.400   -21277138.155 7   -796649.14126        48.000
  20273088.463    13886575.863 9    119242.78929       108.000
  22126207.815    18677478.576 8    887936.18527        72.000
  21108406.994   -16519898.985 8  -1071578.32729        80.000
  23649790.171     -925489.761 7   -562619.06426        52.000
 96  6 11 14 42 15.0000000  0  6G 2G26G27G19G 7G15
  21202664.950    -2279652.042 9   -166438.93029       104.000
  23674447.621   -21305616.532 7   -818840.09926        50.000
  20274745.925    13895302.641 9    126042.87729       106.000
  22133036.608    18713354.266 8    915891.24027        72.000
  21102524.706   -16550804.500 8  -1095660.54629        80.000
  23647185.454     -939174.789 7   -573282.74326        48.000
 96  6 11 14 42 30.0000000  0  6G 2G26G27G19G 7G15
  21202239.305    -2281881.896 9   -168176.48929        98.000
  23669061.310   -21333899.354 7   -840878.65626        48.000
  20276445.329    13904235.832 9    133003.79929       106.000
  22139890.823    18749393.041 8    943973.40727        72.000
  21096676.625   -16581514.632 8  -1119590.52229        78.000
  23644623.398     -952647.788 7   -583781.18826        48.000
 96  6 11 14 42 45.0000000  0  6G 2G26G27G19G 7G15
  21201836.624    -2283989.639 9   -169818.88929       100.000
  23663717.150   -21361988.730 7   -862766.48226        42.000
  20278184.215    13913374.940 9    140125.16629       106.000
  22146781.852    18785589.924 8    972178.74827        70.000
  21090872.403   -16612031.297 8  -1143369.74729        80.000
  23642093.689     -965912.349 7   -594117.20026        48.000
 96  6 11 14 43  0.0000000  0  6G 2G26G27G19G 7G15
  21201462.093    -2285978.250 9   -171368.46929       100.000
  23658408.005   -21389884.997 7   -884503.85526        48.000
  20279964.533    13922717.520 9    147405.09229       106.000
  22153699.113    18821942.787 8   1000505.62527        72.000
  21085103.676   -16642357.596 8  -1167000.63129        80.000
  23639609.639     -978970.391 7   -604292.29226        50.000
 96  6 11 14 43 15.0000000  0  6G 2G26G27G19G 7G15
  21201106.719    -2287847.482 9   -172825.01729       102.000
  23653139.872   -21417587.606 7   -906090.30226        48.000
  20281780.436    13932259.773 9    154840.60629       106.000
  22160649.771    18858451.350 8   1028953.82627        72.000
  21079370.955   -16672494.045 8  -1190483.56229        80.000
  23637164.681     -991824.057 7   -614308.15726        48.000
 96  6 11 14 43 30.0000000  0  6G 2G26G27G19G 7G15
  21200772.181    -2289598.080 9   -174189.12929       100.000
  23647909.303   -21445098.958 7   -927527.73026        50.000
  20283632.883    13941998.766 9    162429.41929       108.000
  22167622.434    18895117.951 8   1057525.17727        68.000
  21073669.862   -16702437.431 8  -1213816.08129        82.000
  23634763.314    -1004474.644 7   -624165.74826        50.000
 96  6 11 14 43 45.0000000  0  6G 2G26G27G19G 7G15
  21200459.737    -2291231.371 9   -175461.83029       100.000
  23642703.197   -21472426.163 7   -948821.65326        50.000
  20285520.167    13951927.601 9    170166.17029       106.000
  22174632.481    18931940.513 8   1086218.06827        70.000
  21068010.230   -16732186.669 8  -1236997.30129        82.000
  23632391.026    -1016925.649 7   -633867.84626        50.000
 96  6 11 14 44  0.0000000  0  6G 2G26G27G19G 7G15
  21200173.195    -2292749.862 9   -176645.07828       104.000
  23637538.343   -21499572.460 7   -969974.59926        48.000
  20287447.532    13962043.290 9    178048.51929       108.000
  22181666.782    18968918.888 8   1115032.37327        70.000
  21062383.875   -16761742.533 8  -1260027.84329        80.000
  23630059.210    -1029178.655 7   -643415.64926        50.000
 96  6 11 14 44 15.0000000  0  6G 2G26G27G19G 7G15
  21199904.851    -2294154.911 9   -177739.91528       100.000
  23632402.808   -21526538.530 7   -990987.13726        50.000
  20289410.154    13972344.604 9    186075.50529       106.000
  22188734.779    19006052.539 8   1143967.68227        70.000
  21056796.403   -16791106.539 8  -1282908.88929        82.000
  23627763.310    -1041234.905 7   -652810.10426        52.000
 96  6 11 14 44 30.0000000  0  6G 2G26G27G19G 7G15
  21199660.191    -2295447.741 9   -178747.32528       100.000
  23627310.743   -21553322.882 7  -1011858.07326        52.000
  20291402.065    13982834.815 9    194249.68029       106.000
  22195831.586    19043339.978 8   1173022.78527        72.000
  21051245.146   -16820279.228 8  -1305640.84729        82.000
  23625505.003    -1053095.672 7   -662052.25926        50.000
 96  6 11 14 44 45.0000000  0  6G 2G26G27G19G 7G15
  21199432.738    -2296628.778 9   -179667.62028       100.000
  23622244.580   -21579927.235 7  -1032588.75026        54.000
  20293437.775    13993516.046 9    202572.71729       106.000
  22202952.706    19080777.198 8   1202194.61727        70.000
  21045727.226   -16849269.475 8  -1328230.63729        82.000
  23623284.381    -1064763.409 7   -671143.96426        48.000
 96  6 11 14 45  0.0000000  0  6G 2G26G27G19G 7G15
  21199228.669    -2297700.685 9   -180502.86928       102.000
  23617214.663   -21606355.194 7  -1053181.96726        52.000
  20295502.476    14004385.907 9    211042.73629       106.000
  22210109.561    19118362.473 8   1231481.84827        72.000
  21040242.493   -16878084.266 8  -1350683.71829        80.000
  23621102.041    -1076239.620 7   -680086.46026        48.000
 96  6 11 14 45 15.0000000  0  6G 2G26G27G19G 7G15
  21199045.556    -2298667.801 9   -181256.46828       100.000
  23612223.358   -21632609.186 7  -1073639.62826        54.000
  20297607.409    14015437.999 9    219654.74529       104.000
  22217287.162    19156095.697 8   1260884.32927        72.000
  21034790.108   -16906728.530 8  -1373003.93229        80.000
  23618951.330    -1087526.656 7   -688881.52926        50.000
 96  6 11 14 45 30.0000000  0  6G 2G26G27G19G 7G15
  21198882.829    -2299532.275 9   -181930.09928       102.000
  23607258.885   -21658690.618 7  -1093962.85026        54.000
  20299747.597    14026671.501 9    228408.11129       106.000
  22224495.342    19193978.566 8   1290403.41527        72.000
  21029375.047   -16935204.737 9  -1395193.18429        84.000
  23616842.230    -1098624.571 7   -697529.26526        50.000
 96  6 11 14 45 45.0000000  0  6G 2G26G27G19G 7G15
  21198736.350    -2300300.148 9   -182528.44228       100.000
  23602326.909   -21684601.894 7  -1114153.44626        52.000
  20301914.917    14038083.660 9    237300.69029       104.000
  22231731.283    19232005.504 8   1320034.77727        72.000
  21023985.438   -16963516.696 8  -1417254.44729        82.000
  23614765.358    -1109534.940 7   -706030.87425        50.000
 96  6 11 14 46  0.0000000  0  6G 2G26G27G19G 7G15
  21198609.688    -2300972.935 9   -183052.69428       100.000
  23597425.302   -21710340.274 7  -1134209.34126        52.000
  20304123.098    14049674.568 9    246332.55629       106.000
  22238994.235    19270172.487 8   1349775.28427        72.000
  21018633.453   -16991666.551 8  -1439189.39629        82.000
  23612729.677    -1120257.127 7   -714385.83325        46.000
 96  6 11 14 46 15.0000000  0  6G 2G26G27G19G 7G15
  21198497.356    -2301553.425 9   -183505.02928       102.000
  23592563.418   -21735906.713 7  -1154131.24026        52.000
  20306363.537    14061441.612 9    255501.68229       106.000
  22246279.671    19308472.970 8   1379619.77327        70.000
  21013301.284   -17019660.235 8  -1461002.64529        82.000
  23610722.777    -1130794.019 7   -722596.36626        46.000
 96  6 11 14 46 30.0000000  0  6G 2G26G27G19G 7G15
  21198403.221    -2302041.191 9   -183885.10628       102.000
  23587733.192   -21761301.543 7  -1173919.41626        52.000
  20308634.075    14073383.927 9    264807.36929       104.000
  22253598.145    19346904.041 8   1409566.05527        70.000
  21008007.009   -17047498.844 9  -1482695.07529        84.000
  23608753.590    -1141147.118 7   -730663.73026        50.000
 96  6 11 14 46 45.0000000  0  6G 2G26G27G19G 7G15
  21198330.551    -2302438.560 9   -184194.74028       102.000
  23582936.992   -21786525.681 7  -1193574.61426        50.000
  20310940.648    14085498.056 9    274246.94429       102.000
  22260936.464    19385465.807 8   1439614.15127        72.000
  21002736.268   -17075180.615 9  -1504265.28229        84.000
  23606811.534    -1151316.635 7   -738588.01226        52.000
 96  6 11 14 47  0.0000000  0  6G 2G26G27G19G 7G15
  21198270.323    -2302750.376 9   -184437.72628       102.000
  23578158.091   -21811583.399 7  -1213100.09626        48.000
  20313279.419    14097777.336 9    283815.20629       106.000
  22268295.530    19424156.238 8   1469762.51627        70.000
  20997501.082   -17102706.430 9  -1525713.96729        84.000
  23604913.938    -1161304.211 7   -746370.52926        50.000
 96  6 11 14 47 15.0000000  0  6G 2G26G27G19G 7G15
  21198224.395    -2302980.851 9   -184617.32128       102.000
  23573424.818   -21836473.675 7  -1232495.12626        48.000
  20315648.319    14110217.640 9    293508.93129       106.000
  22275682.836    19462973.551 8   1500009.75227        70.000
  20992294.977   -17130073.025 8  -1547038.59429        82.000
  23603049.529    -1171110.499 7   -754011.83626        50.000
 96  6 11 14 47 30.0000000  0  6G 2G26G27G19G 7G15
  21198195.914    -2303129.374 9   -184733.05128        98.000
  23568724.432   -21861196.949 7  -1251760.02226        54.000
  20318040.213    14122819.459 9    303328.52529       104.000
  22283094.994    19501916.345 8   1530354.77427        70.000
  20987112.195   -17157280.453 8  -1568239.16729        82.000
  23601217.647    -1180736.008 7   -761512.22926        50.000
 96  6 11 14 47 45.0000000  0  6G 2G26G27G19G 7G15
  21198186.651    -2303196.807 9   -184785.60228        98.000
  23564051.986   -21885754.434 7  -1270895.73726        52.000
  20320470.751    14135585.321 9    313275.94029       104.000
  22290528.288    19540978.898 8   1560793.10327        72.000
  20981967.786   -17184326.802 9  -1589314.25829        84.000
  23599414.785    -1190181.842 7   -768872.62926        52.000
 96  6 11 14 48  0.0000000  0  6G 2G26G27G19G 7G15
  21198189.139    -2303179.936 9   -184772.47528        98.000
  23559410.030   -21910144.864 7  -1289901.25526        54.000
  20322933.636    14148517.127 9    323352.66329       104.000
  22297986.465    19580160.930 8   1591324.53927        74.000
  20976855.395   -17211209.740 9  -1610261.99729        86.000
  23597655.813    -1199447.585 7   -776092.70426        52.000
 96  6 11 14 48 15.0000000  0  6G 2G26G27G19G 7G15
  21198210.664    -2303075.520 9   -184691.11228        98.000
  23554800.781   -21934369.697 7  -1308777.77626        52.000
  20325426.020    14161614.288 9    333558.23929       106.000
  22305463.709    19619464.327 8   1621950.52727        72.000
  20971772.324   -17237930.807 9  -1631083.59629        84.000
  23595926.190    -1208534.796 7   -783173.64126        50.000
 96  6 11 14 48 30.0000000  0  6G 2G26G27G19G 7G15
  21198241.513    -2302882.139 9   -184540.43528        98.000
  23550218.993   -21958428.252 7  -1327524.70726        50.000
  20327951.952    14174878.673 9    343894.11129       104.000
  22312967.784    19658892.104 8   1652673.44327        70.000
  20966712.667   -17264491.980 9  -1651780.62229        84.000
  23594235.810    -1217443.841 7   -790115.76226        52.000
 96  6 11 14 48 45.0000000  0  6G 2G26G27G19G 7G15
  21198296.944    -2302601.868 9   -184322.04028        94.000
  23545671.591   -21982318.818 7  -1346140.72926        54.000
  20330503.845    14188309.602 9    354359.75829       104.000
  22320491.885    19698444.219 8   1683493.24827        70.000
  20961690.424   -17290893.052 9  -1672352.88629        86.000
  23592571.393    -1226174.705 7   -796919.06926        52.000
 96  6 11 14 49  0.0000000  0  6G 2G26G27G19G 7G15
  21198363.588    -2302234.955 9   -184036.14328        96.000
  23541161.873   -22006040.939 7  -1364625.51226        52.000
  20333093.003    14201906.619 9    364954.82929       104.000
  22328040.659    19738117.428 8   1714407.41827        72.000
  20956700.798   -17317134.855 9  -1692801.04329        86.000
  23590943.759    -1234728.187 7   -803584.10226        54.000
 96  6 11 14 49 15.0000000  0  6G 2G26G27G19G 7G15
  21198452.447    -2301782.670 9   -183683.72328        94.000
  23536674.939   -22029596.295 7  -1382980.31226        56.000
  20335712.469    14215669.368 9    375679.04029       104.000
  22335613.806    19777906.633 8   1745411.95327        70.000
  20951732.368   -17343220.148 9  -1713127.23429        84.000
  23589347.814    -1243107.008 7   -810113.07226        54.000
 96  6 11 14 49 30.0000000  0  6G 2G26G27G19G 7G15
  21198554.436    -2301241.780 9   -183262.26228        94.000
  23532225.959   -22052983.615 7  -1401204.19526        54.000
  20338363.264    14229600.784 9    386534.67929       106.000
  22343203.022    19817814.112 8   1776508.66227        70.000
  20946796.225   -17369148.146 9  -1733330.88429        84.000
  23587781.489    -1251309.523 7   -816504.63926        48.000
 96  6 11 14 49 45.0000000  0  6G 2G26G27G19G 7G15
  21198673.933    -2300613.082 9   -182772.36928        94.000
  23527810.016   -22076207.347 7  -1419300.64426        54.000
  20341043.858    14243701.106 9    397521.92629       106.000
  22350827.344    19857838.169 8   1807696.23027        68.000
  20941891.230   -17394920.131 9  -1753412.93829        84.000
  23586256.894    -1259337.818 7   -822760.46526        50.000
 96  6 11 14 50  0.0000000  0  6G 2G26G27G19G 7G15
  21198811.358    -2299897.113 9   -182214.48028        98.000
  23523421.354   -22099266.156 7  -1437268.56526        54.000
  20343761.867    14257967.946 9    408638.94029       106.000
  22358461.799    19897979.661 8   1838975.29427        66.000
  20937021.072   -17420533.470 9  -1773371.39129        84.000
  23584759.940    -1267191.606 7   -828880.30726        50.000
 96  6 11 14 50 15.0000000  0  6G 2G26G27G19G 7G15
  21198963.743    -2299095.203 9   -181589.62528        98.000
  23519061.772   -22122160.344 7  -1455108.19026        52.000
  20346504.848    14272396.379 9    419881.87029       106.000
  22366126.053    19938240.196 8   1870347.13127        70.000
  20932177.085   -17445990.059 9  -1793207.69329        86.000
  23583306.277    -1274871.977 7   -834865.03926        52.000
 96  6 11 14 50 30.0000000  0  6G 2G26G27G19G 7G15
  21199134.085    -2298209.466 9   -180899.43228       100.000
  23514735.947   -22144889.997 7  -1472819.61826        56.000
  20349282.815    14286986.951 9    431251.15329       106.000
  22373809.824    19978617.217 8   1901809.72327        70.000
  20927361.039   -17471291.254 9  -1812922.91229        84.000
  23581879.175    -1282378.871 7   -840714.57226        56.000
 96  6 11 14 50 45.0000000  0  6G 2G26G27G19G 7G15
  21199318.038    -2297242.481 9   -180145.93928        98.000
  23510442.979   -22167456.527 7  -1490403.91126        54.000
  20352088.692    14301739.199 9    442746.40329       104.000
  22381511.402    20019108.722 8   1933361.50327        70.000
  20922576.322   -17496435.261 9  -1832515.63529        86.000
  23580485.500    -1289712.352 7   -846428.96226        52.000
 96  6 11 14 51  0.0000000  0  6G 2G26G27G19G 7G15
  21199517.190    -2296195.848 9   -179330.39128        96.000
  23506181.489   -22189862.527 7  -1507863.13926        58.000
  20354929.316    14316650.936 9    454365.92129       108.000
  22389242.570    20059712.466 8   1965000.73927        72.000
  20917822.543   -17521419.560 9  -1851983.93629        86.000
  23579122.493    -1296872.860 7   -852008.59526        50.000
 96  6 11 14 51 15.0000000  0  6G 2G26G27G19G 7G15
  21199733.100    -2295070.719 9   -178453.67228       100.000
  23501946.411   -22212111.973 7  -1525200.39826        56.000
  20357796.441    14331720.776 9    466108.64629       106.000
  22396985.729    20100428.111 8   1996727.20927        68.000
  20913094.096   -17546249.442 9  -1871331.87329        84.000
  23577783.350    -1303862.643 7   -857455.17726        52.000
 96  6 11 14 51 30.0000000  0  6G 2G26G27G19G 7G15
  21199958.514    -2293866.162 9   -177515.07628        96.000
  23497738.824   -22234205.397 7  -1542416.06526        56.000
  20360695.014    14346949.142 9    477974.90529       108.000
  22404757.339    20141260.166 8   2028544.39427        66.000
  20908399.946   -17570926.343 9  -1890560.63529        84.000
  23576489.386    -1310680.795 7   -862768.07226        54.000
 96  6 11 14 51 45.0000000  0  6G 2G26G27G19G 7G15
  21200200.357    -2292581.993 9   -176514.41428        94.000
  23493567.662   -22256145.216 7  -1559512.01026        54.000
  20363621.258    14362336.089 9    489964.72229       108.000
  22412548.555    20182208.653 8   2060452.29327        68.000
  20903735.565   -17595452.616 9  -1909672.00429        88.000
  23575219.765    -1317328.095 7   -867947.80426        50.000
 96  6 11 14 52  0.0000000  0  6G 2G26G27G19G 7G15
  21200462.555    -2291218.334 9   -175451.84228        96.000
  23489422.761   -22277931.891 7  -1576488.62626        56.000
  20366577.422    14377878.693 9    502075.83529       108.000
  22420365.464    20223272.749 8   2092450.26227        68.000
  20899094.448   -17619829.556 9  -1928667.01129        84.000
  23573993.524    -1323805.893 7   -872995.46526        50.000
 96  6 11 14 52 15.0000000  0  6G 2G26G27G19G 7G15
  21200734.077    -2289775.076 9   -174327.22728        96.000
  23485308.080   -22299565.910 7  -1593346.31226        54.000
  20369563.385    14393576.705 9    514308.05029       106.000
  22428198.201    20264453.173 8   2124538.89127        68.000
  20894484.120   -17644061.794 9  -1947549.27929        86.000
  23572793.515    -1330114.358 7   -877911.15426        50.000
 96  6 11 14 52 30.0000000  0  6G 2G26G27G19G 7G15
  21201026.105    -2288251.534 9   -173140.05428        96.000
  23481216.032   -22321048.166 7  -1610085.74326        54.000
  20372579.657    14409432.781 9    526663.40429       104.000
  22436060.049    20305749.756 8   2156718.02727        66.000
  20889901.882   -17668151.843 9  -1966320.74729        88.000
  23571625.793    -1336252.334 7   -882694.00426        46.000
 96  6 11 14 52 45.0000000  0  6G 2G26G27G19G 7G15
  21201331.713    -2286649.251 9   -171891.53228        98.000
  23477158.821   -22342381.330 7  -1626708.98526        54.000
  20375629.985    14425445.213 9    539140.62329       104.000
  22443938.834    20347159.843 8   2188985.60126        68.000
  20885342.338   -17692101.270 9  -1984982.63129        88.000
  23570487.181    -1342221.577 7   -887345.39426        48.000
 96  6 11 14 53  0.0000000  0  6G 2G26G27G19G 7G15
  21201653.601    -2284967.517 9   -170581.09028        94.000
  23473125.623   -22363564.346 7  -1643215.23626        54.000
  20378707.235    14441615.303 9    551740.69829       106.000
  22451845.351    20388684.624 8   2221342.56027        68.000
  20880811.125   -17715908.915 9  -2003534.03829        86.000
  23569385.084    -1348021.169 7   -891864.55526        52.000
 96  6 11 14 53 15.0000000  0  6G 2G26G27G19G 7G15
  21201987.330    -2283207.261 9   -169209.47728        94.000
  23469123.604   -22384596.002 7  -1659603.55226        54.000
  20381814.374    14457942.874 9    564463.47229       104.000
  22459765.718    20430324.735 8   2253789.38327        68.000
  20876307.163   -17739575.749 9  -2021975.72629        88.000
  23568308.619    -1353651.291 7   -896251.66726        52.000
 96  6 11 14 53 30.0000000  0  6G 2G26G27G19G 7G15
  21202335.329    -2281369.296 9   -167777.30528        96.000
  23465150.245   -22405476.465 7  -1675874.03326        56.000
  20384949.363    14474429.511 9    577310.19429       104.000
  22467711.117    20472080.995 8   2286326.70927        68.000
  20871832.131   -17763100.779 9  -2040306.91329        88.000
  23567276.704    -1359111.503 7   -900506.41826        52.000
 96  6 11 14 53 45.0000000  0  6G 2G26G27G19G 7G15
  21202700.866    -2279460.450 9   -166289.88428        96.000
  23461204.316   -22426208.993 7  -1692029.24526        54.000
  20388120.508    14491072.958 9    590279.11229       104.000
  22475681.040    20513947.640 8   2318950.05427        68.000
  20867381.682   -17786484.414 9  -2058527.92629        88.000
  23566263.046    -1364405.186 7   -904631.37926        48.000
 96  6 11 14 54  0.0000000  0  6G 2G26G27G19G 7G15
  21203076.566    -2277481.756 9   -164748.06328        94.000
  23457293.254   -22446791.925 7  -1708067.89326        52.000
  20391313.447    14507873.497 9    603370.44429       102.000
  22483664.513    20555923.685 8   2351658.61826        68.000
  20862959.744   -17809722.226 9  -2076635.32229        90.000
  23565292.857    -1369531.039 7   -908625.55226        50.000
 96  6 11 14 54 15.0000000  0  6G 2G26G27G19G 7G15
  21203465.246    -2275436.479 9   -163154.33428        94.000
  23453393.883   -22467223.114 7  -1723988.29026        54.000
  20394543.172    14524830.375 9    616583.57329       106.000
  22491675.717    20598007.594 8   2384451.24126        66.000
  20858566.075   -17832813.433 9  -2094628.46529        88.000
  23564347.911    -1374488.949 7   -912488.87226        52.000
 96  6 11 14 54 30.0000000  0  6G 2G26G27G19G 7G15
  21203870.506    -2273326.091 9   -161509.87928        94.000
  23449543.769   -22487502.427 7  -1739790.36026        56.000
  20397803.175    14541946.863 9    629921.08329       104.000
  22499705.118    20640197.028 8   2417326.09826        68.000
  20854199.568   -17855755.067 9  -2112505.06429        86.000
  23563435.853    -1379278.046 7   -916220.64026        48.000
 96  6 11 14 54 45.0000000  0  6G 2G26G27G19G 7G15
  21204279.932    -2271153.063 9   -159816.62228        94.000
  23445709.723   -22507628.288 7  -1755472.85026        58.000
  20401089.979    14559224.170 9    643383.92229       104.000
  22507754.516    20682490.851 8   2450282.32226        68.000
  20849865.349   -17878542.398 9  -2130261.42929        88.000
  23562560.099    -1383898.776 7   -919821.23026        52.000
 96  6 11 14 55  0.0000000  0  6G 2G26G27G19G 7G15
  21204705.758    -2268917.634 9   -158074.72028        96.000
  23441910.393   -22527598.849 7  -1771034.31726        58.000
  20404406.104    14576664.750 9    656973.97129       100.000
  22515816.834    20724890.795 8   2483321.22026        68.000
  20845560.869   -17901174.450 9  -2147896.77429        92.000
  23561714.025    -1388351.138 7   -923290.59126        48.000
 96  6 11 14 55 15.0000000  0  6G 2G26G27G19G 7G15
  21205141.026    -2266624.078 9   -156287.54028        94.000
  23438139.394   -22547414.361 7  -1786474.99226        58.000
  20407755.955    14594268.793 9    670691.39429       102.000
  22523903.826    20767398.886 8   2516444.38626        66.000
  20841279.263   -17923651.064 9  -2165411.01129        90.000
  23560892.414    -1392635.044 7   -926628.72626        46.000
 96  6 11 14 55 30.0000000  0  6G 2G26G27G19G 7G15
  21205588.916    -2264274.031 9   -154456.33728        96.000
  23434397.474   -22567079.132 7  -1801798.19926        58.000
  20411135.725    14612031.772 9    684532.68629       100.000
  22532020.467    20810011.521 8   2549649.01626        64.000
  20837032.253   -17945976.065 9  -2182807.11529        92.000
  23560111.514    -1396753.201 7   -929837.70726        50.000
 96  6 11 14 55 45.0000000  0  6G 2G26G27G19G 7G15
  21206047.869    -2261865.816 9   -152579.81928        94.000
  23430684.275   -22586589.721 7  -1817001.25826        60.000
  20414548.892    14629952.923 9    698497.20529       102.000
  22540150.209    20852728.375 8   2582934.84326        64.000
  20832811.924   -17968148.967 9  -2200084.69929        90.000
  23559361.643    -1400703.881 7   -932916.17326        50.000
 96  6 11 14 56  0.0000000  0  6G 2G26G27G19G 7G15
  21206517.523    -2259396.126 9   -150655.37928        94.000
  23426999.706   -22605944.626 7  -1832083.00826        60.000
  20417984.184    14648031.353 9    712584.28829       102.000
  22548294.161    20895547.333 8   2616300.23626        66.000
  20828623.554   -17990170.506 9  -2217244.33329        90.000
  23558638.574    -1404487.143 7   -935864.17526        46.000
 96  6 11 14 56 15.0000000  0  6G 2G26G27G19G 7G15
  21207001.239    -2256861.865 9   -148680.63228        96.000
  23423345.206   -22625143.228 7  -1847042.96226        56.000
  20421457.729    14666264.655 9    726792.03729       104.000
  22556462.006    20938469.076 8   2649745.74926        64.000
  20824461.295   -18012039.124 9  -2234284.82429        92.000
  23557955.707    -1408102.230 7   -938681.17526        46.000
 96  6 11 14 56 30.0000000  0  6G 2G26G27G19G 7G15
  21207495.326    -2254263.566 9   -146655.98528        96.000
  23419721.164   -22644186.784 7  -1861882.08226        56.000
  20424955.587    14684651.729 9    741119.62129       102.000
  22564652.666    20981492.284 8   2683270.31126        66.000
  20820327.097   -18033761.001 9  -2251210.95829        90.000
  23557293.945    -1411550.785 7   -941368.34826        46.000
 96  6 11 14 56 45.0000000  0  6G 2G26G27G19G 7G15
  21208004.254    -2251599.055 9   -144579.74528        94.000
  23416129.741   -22663075.046 7  -1876600.22126        56.000
  20428483.995    14703191.348 9    755566.08129       102.000
  22572855.557    21024618.681 8   2716875.26726        64.000
  20816221.919   -18055338.648 9  -2268024.69529        92.000
  23556676.882    -1414832.938 7   -943925.89426        50.000
 96  6 11 14 57  0.0000000  0  6G 2G26G27G19G 7G15
  21208520.467    -2248864.546 9   -142448.95828        94.000
  23412567.577   -22681806.751 7  -1891196.36426        58.000
  20432038.724    14721881.836 9    770130.09129       102.000
  22581085.880    21067849.701 8   2750561.74726        66.000
  20812139.825   -18076774.292 9  -2284727.79429        90.000
  23556080.175    -1417948.088 7   -946353.30826        50.000
 96  6 11 14 57 15.0000000  0  6G 2G26G27G19G 7G15
  21209057.455    -2246058.474 9   -140262.42128        96.000
  23409032.004   -22700384.721 7  -1905672.69726        60.000
  20435625.831    14740718.580 9    784808.06829       102.000
  22589330.322    21111180.864 8   2784326.27526        64.000
  20808090.259   -18098070.507 9  -2301322.24929        92.000
  23555515.546    -1420897.262 7   -948651.35826        50.000
 96  6 11 14 57 30.0000000  0  6G 2G26G27G19G 7G15
  21209601.878    -2243179.193 9   -138018.82428        94.000
  23405523.683   -22718810.255 7  -1920030.27626        60.000
  20439235.961    14759697.731 9    799597.00629       102.000
  22597594.011    21154606.403 8   2818164.31326        66.000
  20804063.836   -18119228.189 9  -2317808.74029        90.000
  23554988.721    -1423681.752 7   -950821.08226        48.000
 96  6 11 14 57 45.0000000  0  6G 2G26G27G19G 7G15
  21210167.706    -2240221.443 9   -135714.08428        94.000
  23402047.530   -22737081.582 7  -1934267.68826        58.000
  20442875.592    14778821.931 9    814498.96929       104.000
  22605870.591    21198124.063 8   2852074.16626        66.000
  20800065.594   -18140245.830 9  -2334186.12129        92.000
  23554487.468    -1426301.334 7   -952862.34626        48.000
 96  6 11 14 58  0.0000000  0  6G 2G26G27G19G 7G15
  21210746.396    -2237186.845 9   -133349.46528        94.000
  23398598.597   -22755199.590 7  -1948385.61026        56.000
  20446548.139    14798094.080 9    829516.23429       104.000
  22614175.172    21241735.228 8   2886056.87426        66.000
  20796090.376   -18161122.744 9  -2350453.84429        90.000
  23554024.858    -1428756.163 7   -954775.21626        48.000
 96  6 11 14 58 15.0000000  0  6G 2G26G27G19G 7G15
  21211335.608    -2234079.577 9   -130928.20828        92.000
  23395179.764   -22773170.626 7  -1962389.00326        58.000
  20450237.835    14817514.067 9    844648.67629       104.000
  22622489.077    21285440.434 8   2920112.85326        64.000
  20792144.928   -18181860.139 9  -2366612.84529        92.000
  23553581.855    -1431048.333 7   -956561.30726        48.000
 96  6 11 14 58 30.0000000  0  6G 2G26G27G19G 7G15
  21211940.379    -2230903.023 9   -128452.98528        96.000
  23391790.580   -22790996.816 7  -1976279.54026        58.000
  20453961.857    14837080.288 9    859895.07829       102.000
  22630824.416    21329239.944 8   2954242.33026        66.000
  20788225.981   -18202460.672 9  -2382665.20829        92.000
  23553183.101    -1433179.856 7   -958222.26326        48.000
 96  6 11 14 58 45.0000000  0  6G 2G26G27G19G 7G15
  21212558.521    -2227657.561 9   -125924.06428        96.000
  23388421.363   -22808678.602 7  -1990057.57326        60.000
  20457711.931    14856795.765 9    875257.77329       102.000
  22639176.574    21373134.806 8   2988446.11226        64.000
  20784331.317   -18222923.139 9  -2398609.99029        90.000
  23552806.411    -1435149.888 7   -959757.34526        46.000
 96  6 11 14 59  0.0000000  0  6G 2G26G27G19G 7G15
  21213188.475    -2224347.466 9   -123344.77128        98.000
  23385084.343   -22826218.624 7  -2003725.12926        60.000
  20461494.322    14876658.139 9    890734.93929       102.000
  22647546.060    21417121.936 8   3022721.75126        64.000
  20780461.716   -18243244.571 9  -2414444.86329        90.000
  23552458.922    -1436960.353 7   -961168.10626        48.000
 96  6 11 14 59 15.0000000  0  6G 2G26G27G19G 7G15
  21213830.271    -2220975.286 9   -120717.10028        94.000
  23381771.846   -22843616.723 7  -2017282.08926        58.000
  20465300.937    14896666.716 9    906326.02729       104.000
  22655937.461    21461200.339 8   3057068.52826        66.000
  20776622.004   -18263420.906 9  -2430166.68029        90.000
  23552148.187    -1438611.112 7   -962454.43926        50.000
 96  6 11 14 59 30.0000000  0  6G 2G26G27G19G 7G15
  21214484.118    -2217546.824 9   -118045.56128        96.000
  23378490.018   -22860873.663 7  -2030729.04126        60.000
  20469135.312    14916819.835 9    922029.74229       100.000
  22664335.307    21505369.545 8   3091486.08226        66.000
  20772811.132   -18283452.810 9  -2445775.94629        90.000
  23551858.198    -1440103.821 7   -963617.56626        50.000
 96  6 11 14 59 45.0000000  0  6G 2G26G27G19G 7G15
  21215146.600    -2214063.989 9   -115331.68428        94.000
  23375233.822   -22877988.256 7  -2044065.10126        58.000
  20472996.250    14937119.067 9    937847.32229       100.000
  22672764.782    21549634.017 8   3125977.85026        68.000
  20769026.432   -18303340.749 9  -2461273.04029        90.000
  23551602.145    -1441438.469 7   -964657.55126        50.000
 96  6 11 15  0  0.0000000  0  6G 2G26G27G19G 7G15
  21215817.685    -2210532.864 9   -112580.16028        98.000
  23372002.359   -22894964.394 7  -2057293.26626        54.000
  20476889.474    14957561.210 9    953776.26329       102.000
  22681207.717    21593996.867 8   3160546.29026        64.000
  20765268.084   -18323087.388 9  -2476660.03029        90.000
  23551384.226    -1442616.310 7   -965575.37326        50.000
 96  6 11 15  0 15.0000000  0  6G 2G26G27G19G 7G15
  21216497.255    -2206957.332 9   -109794.01528        94.000
  23368799.107   -22911801.303 7  -2070412.91226        58.000
  20480804.464    14978142.814 9    969813.86229       102.000
  22689665.431    21638460.109 8   3195192.96926        66.000
  20761540.195   -18342692.264 9  -2491936.55929        92.000
  23551189.781    -1443636.713 7   -966370.49826        48.000
 96  6 11 15  0 30.0000000  0  6G 2G26G27G19G 7G15
  21217184.139    -2203336.381 9   -106972.50628        92.000
  23365624.575   -22928497.064 7  -2083422.60526        60.000
  20484748.054    14998858.202 9    985955.72429       102.000
  22698146.410    21683020.413 8   3229915.25226        66.000
  20757835.060   -18362156.340 9  -2507103.35829        92.000
  23551025.734    -1444501.357 7   -967044.23726        48.000
 96  6 11 15  0 45.0000000  0  6G 2G26G27G19G 7G15
  21217886.613    -2199667.267 9   -104113.45528        96.000
  23362475.825   -22945047.354 7  -2096318.93826        60.000
  20488713.409    15019707.293 9   1002201.76329       100.000
  22706644.057    21727675.151 8   3264711.10226        66.000
  20754160.474   -18381478.464 9  -2522159.54929        92.000
  23550890.078    -1445209.453 7   -967595.99826        52.000
 96  6 11 15  1  0.0000000  0  6G 2G26G27G19G 7G15
  21218595.562    -2195952.354 9   -101218.72628        96.000
  23359353.396   -22961451.064 7  -2109101.03726        60.000
  20492707.574    15040687.367 9   1018549.84929       100.000
  22715158.313    21772420.409 8   3299577.52426        66.000
  20750506.783   -18400659.980 9  -2537106.20029        90.000
  23550786.500    -1445762.319 7   -968026.83326        50.000
 96  6 11 15  1 15.0000000  0  6G 2G26G27G19G 7G15
  21219305.890    -2192190.961 9    -98287.78028        96.000
  23356260.437   -22977706.340 7  -2121767.49326        60.000
  20496723.953    15061794.044 9   1034996.61029       100.000
  22723691.306    21817254.876 8   3334513.45526        64.000
  20746882.562   -18419704.553 9  -2551946.11829        90.000
  23550705.646    -1446160.872 7   -968337.37926        48.000
 96  6 11 15  1 30.0000000  0  6G 2G26G27G19G 7G15
  21220037.744    -2188378.245 9    -95316.84428        98.000
  23353192.391   -22993813.249 7  -2134318.33126        58.000
  20500764.526    15083029.011 9   1051543.32429       100.000
  22732242.376    21862180.103 8   3369520.10526        64.000
  20743287.421   -18438614.689 9  -2566681.27629        94.000
  23550663.675    -1446403.425 7   -968526.37626        46.000
 96  6 11 15  1 45.0000000  0  6G 2G26G27G19G 7G15
  21220767.498    -2184512.312 9    -92304.42228        92.000
  23350156.153   -23009774.671 7  -2146755.77626        60.000
  20504831.091    15104394.636 9   1068191.85829       100.000
  22740805.468    21907197.476 8   3404598.55726        64.000
  20739713.415   -18457393.195 9  -2581313.87529        92.000
  23550647.876    -1446489.866 7   -968593.76126        48.000
 96  6 11 15  2  0.0000000  0  6G 2G26G27G19G 7G15
  21221506.996    -2180594.389 9    -89251.49528        90.000
  23347146.267   -23025594.716 7  -2159083.09526        60.000
  20508921.429    15125888.165 9   1084940.04729       102.000
  22749388.646    21952302.574 8   3439745.36626        64.000
  20736162.523   -18476042.715 9  -2595845.96829        90.000
  23550664.065    -1446422.438 7   -968541.22026        54.000
 96  6 11 15  2 15.0000000  0  6G 2G26G27G19G 7G15
  21222265.531    -2176624.513 9    -86158.10028        90.000
  23344162.433   -23041273.615 7  -2171300.41726        58.000
  20513034.012    15147509.700 9   1101788.00329       100.000
  22757990.561    21997490.959 7   3474957.06726        62.000
  20732641.161   -18494562.175 9  -2610276.70929        92.000
  23550705.646    -1446201.608 7   -968369.14226        52.000
 96  6 11 15  2 30.0000000  0  6G 2G26G27G19G 7G15
  21223034.229    -2172596.588 9    -83019.46028        92.000
  23341203.811   -23056809.236 7  -2183406.08626        58.000
  20517174.146    15169262.495 9   1118738.21629       100.000
  22766598.981    22042759.787 7   3510231.45326        62.000
  20729141.654   -18512950.395 9  -2624605.19929        94.000
  23550773.519    -1445826.803 7   -968077.08226        50.000
 96  6 11 15  2 45.0000000  0  6G 2G26G27G19G 7G15
  21223811.771    -2168510.004 9    -79835.11228        90.000
  23338275.198   -23072201.906 8  -2195400.37226        64.000
  20521339.702    15191148.219 9   1135792.00329       100.000
  22775239.989    22088105.470 8   3545565.70826        66.000
  20725666.939   -18531209.898 9  -2638833.37929        94.000
  23550871.131    -1445298.941 7   -967665.76626        48.000
 96  6 11 15  3  0.0000000  0  6G 2G26G27G19G 7G15
  21224604.572    -2164369.411 9    -76608.66928        92.000
  23335374.287   -23087453.694 7  -2207284.88126        60.000
  20525530.051    15213168.903 9   1152950.98129       102.000
  22783873.892    22133528.018 7   3580959.89026        62.000
  20722215.699   -18549343.872 9  -2652963.74529        94.000
  23551000.372    -1444618.466 7   -967135.50226        48.000
 96  6 11 15  3 15.0000000  0  6G 2G26G27G19G 7G15
  21225396.204    -2160174.851 9    -73340.18728        90.000
  23332499.037   -23102567.125 7  -2219061.55326        58.000
  20529748.461    15235326.729 9   1170216.80529       100.000
  22792529.680    22179029.091 7   3616415.25026        60.000
  20718787.812   -18567354.525 9  -2666998.01729        94.000
  23551162.020    -1443785.393 7   -966486.37426        50.000
 96  6 11 15  3 30.0000000  0  6G 2G26G27G19G 7G15
  21226209.961    -2155926.877 9    -70030.06828        92.000
  23329645.433   -23117546.584 7  -2230733.87926        60.000
  20533991.483    15257625.037 9   1187592.10529       100.000
  22801211.250    22224608.633 7   3651931.74126        60.000
  20715383.249   -18585243.285 9  -2680937.30829        94.000
  23551353.767    -1442800.245 7   -965718.74526        52.000
 96  6 11 15  3 45.0000000  0  6G 2G26G27G19G 7G15
  21227029.054    -2151628.604 9    -66680.78028        94.000
  23326820.758   -23132393.509 7  -2242302.91426        60.000
  20538259.209    15280068.628 9   1205080.61229        98.000
  22809895.638    22270267.348 7   3687509.91326        62.000
  20712001.440   -18603007.766 9  -2694779.75829        94.000
  23551568.538    -1441663.108 7   -964832.66126        50.000
 96  6 11 15  4  0.0000000  0  6G 2G26G27G19G 7G15
  21227852.404    -2147281.837 9    -63293.69828        94.000
  23324020.487   -23147104.125 7  -2253765.74526        56.000
  20542557.663    15302657.561 9   1222682.37629       100.000
  22818599.452    22316004.823 7   3723149.48726        62.000
  20708647.781   -18620646.595 9  -2708524.29329        96.000
  23551809.601    -1440373.643 7   -963827.86526        48.000
 96  6 11 15  4 15.0000000  0  6G 2G26G27G19G 7G15
  21228692.752    -2142887.525 9    -59869.55728        96.000
  23321250.974   -23161676.294 7  -2265120.65126        56.000
  20546884.298    15325388.912 9   1240395.10229       100.000
  22827318.646    22361818.050 7   3758848.07326        62.000
  20705312.021   -18638159.958 9  -2722171.07029        96.000
  23552084.002    -1438932.649 7   -962705.02226        48.000
 96  6 11 15  4 30.0000000  0  6G 2G26G27G19G 7G15
  21229535.858    -2138445.910 9    -56408.54428        96.000
  23318502.687   -23176107.364 7  -2276365.63626        56.000
  20551238.993    15348263.920 9   1258219.76829       100.000
  22836047.913    22407708.222 7   3794606.63826        60.000
  20702003.331   -18655546.806 9  -2735719.26529        96.000
  23552381.995    -1437339.807 7   -961463.84826        48.000
 96  6 11 15  4 45.0000000  0  6G 2G26G27G19G 7G15
  21230390.417    -2133959.036 9    -52912.28428        94.000
  23315783.209   -23190396.875 7  -2287500.29426        60.000
  20555618.212    15371280.823 9   1276154.99729        98.000
  22844799.994    22453676.307 7   3830425.88326        58.000
  20698718.206   -18672810.458 9  -2749171.44629        98.000
  23552719.022    -1435595.072 7   -960104.32726        48.000
 96  6 11 15  5  0.0000000  0  6G 2G26G27G19G 7G15
  21231251.510    -2129430.607 9    -49383.65028        94.000
  23313088.255   -23204547.413 7  -2298526.72426        58.000
  20560022.133    15394439.188 9   1294200.47729        98.000
  22853559.030    22499723.782 7   3866307.03426        56.000
  20695457.483   -18689950.558 9  -2762527.38929        98.000
  23553081.921    -1433699.112 7   -958626.95226        48.000
 96  6 11 15  5 15.0000000  0  6G 2G26G27G19G 7G15
  21232124.806    -2124856.621 9    -45819.51328        96.000
  23310423.100   -23218561.500 7  -2309446.78526        58.000
  20564455.883    15417740.517 9   1312357.34229       100.000
  22862338.482    22545854.390 7   3902252.92626        60.000
  20692216.816   -18706965.439 9  -2775785.72429        96.000
  23553471.501    -1431650.896 7   -957030.94826        48.000
 96  6 11 15  5 30.0000000  0  6G 2G26G27G19G 7G15
  21233003.677    -2120235.887 9    -42218.93728        96.000
  23307781.748   -23232442.890 7  -2320263.44026        60.000
  20568920.483    15441179.912 9   1330621.80829       100.000
  22871134.483    22592065.395 7   3938261.46726        58.000
  20689006.699   -18723855.209 9  -2788946.58029        98.000
  23553883.446    -1429452.763 7   -955318.13826        46.000
 96  6 11 15  5 45.0000000  0  6G 2G26G27G19G 7G15
  21233890.913    -2115568.273 9    -38581.84128        98.000
  23305165.580   -23246190.018 7  -2330975.48326        58.000
  20573403.819    15464753.617 9   1348990.91329       100.000
  22879941.966    22638358.555 7   3974334.01526        58.000
  20685813.939   -18740616.958 9  -2802007.68529        98.000
  23554335.953    -1427103.888 7   -953487.84226        46.000
 96  6 11 15  6  0.0000000  0  6G 2G26G27G19G 7G15
  21234783.635    -2110855.209 9    -34909.31728        92.000
  23302576.722   -23259804.712 7  -2341584.32226        56.000
  20577913.537    15488454.226 9   1367458.92129       100.000
  22888764.978    22684731.181 7   4010468.52026        58.000
  20682651.278   -18757251.883 9  -2814969.95229       100.000
  23554808.066    -1424606.372 7   -951541.72226        48.000
 96  6 11 15  6 15.0000000  0  6G 2G26G27G19G 7G15
  21235690.357    -2106091.810 9    -31197.58228        94.000
  23300011.068   -23273287.193 7  -2352090.17326        56.000
  20582448.318    15512279.181 9   1386023.80529       100.000
  22897611.883    22731183.692 7   4046665.25726        58.000
  20679511.012   -18773760.251 9  -2827833.60829       100.000
  23555316.724    -1421958.919 7   -949478.76826        50.000
 96  6 11 15  6 30.0000000  0  6G 2G26G27G19G 7G15
  21236607.423    -2101278.443 9    -27446.91528        96.000
  23297470.537   -23286640.676 7  -2362495.48626        58.000
  20587008.611    15536229.257 9   1404686.19429       100.000
  22906461.816    22777714.280 7   4082922.85126        58.000
  20676392.991   -18790141.962 9  -2840598.58629       100.000
  23555848.226    -1419162.532 7   -947299.79226        50.000
 96  6 11 15  6 45.0000000  0  6G 2G26G27G19G 7G15
  21237532.942    -2096413.113 9    -23655.74328        94.000
  23294955.038   -23299867.515 7  -2372802.11226        60.000
  20591589.859    15560305.618 9   1423446.97829       100.000
  22915330.637    22824323.846 7   4119241.94926        56.000
  20673295.805   -18806397.870 9  -2853265.52329        98.000
  23556403.201    -1416216.794 7   -945004.41926        50.000
 96  6 11 15  7  0.0000000  0  6G 2G26G27G19G 7G15
  21238467.365    -2091494.672 9    -19823.19328        92.000
  23292461.454   -23312971.790 7  -2383013.23926        60.000
  20596191.553    15584507.632 9   1442305.67829        98.000
  22924212.798    22871011.019 7   4155621.50926        58.000
  20670231.836   -18822529.391 9  -2865835.53529       100.000
  23556995.351    -1413123.102 7   -942593.78526        50.000
 96  6 11 15  7 15.0000000  0  6G 2G26G27G19G 7G15
  21239415.938    -2086520.403 9    -15947.14828        94.000
  23289992.154   -23325953.501 7  -2393128.86026        60.000
  20600821.818    15608836.048 9   1461262.88329        98.000
  22933112.916    22917776.546 7   4192062.16726        58.000
  20667183.906   -18838533.770 9  -2878306.48329       100.000
  23557611.485    -1409881.078 7   -940067.52326        48.000
 96  6 11 15  7 30.0000000  0  6G 2G26G27G19G 7G15
  21240375.244    -2081491.671 9    -12028.66128        92.000
  23287538.952   -23338810.093 7  -2403146.98126        58.000
  20605475.856    15633287.845 9   1480316.22329       102.000
  22942027.845    22964617.177 7   4228561.34626        56.000
  20664162.658   -18854411.005 9  -2890678.35429       102.000
  23558256.189    -1406490.583 7   -937425.56926        48.000
 96  6 11 15  7 45.0000000  0  6G 2G26G27G19G 7G15
  21241334.310    -2076413.026 9     -8071.27028        92.000
  23285118.338   -23351538.088 7  -2413064.89426        56.000
  20610154.387    15657861.188 9   1499464.27029       100.000
  22950954.315    23011531.547 7   4265117.97726        56.000
  20661165.753   -18870160.037 9  -2902950.32229       100.000
  23558931.711    -1402952.020 7   -934668.26126        52.000
 96  6 11 15  8  0.0000000  0  6G 2G26G27G19G 7G15
  21242317.330    -2071287.371 9     -4077.24128        94.000
  23282724.285   -23364133.244 7  -2422879.31026        58.000
  20614850.276    15682558.335 9   1518708.80029       100.000
  22959893.407    23058519.183 7   4301731.70826        54.000
  20658193.011   -18885782.573 9  -2915123.73429       102.000
  23559631.217    -1399265.142 7   -931795.38026        52.000
 96  6 11 15  8 15.0000000  0  6G 2G26G27G19G 7G15
  21243301.219    -2066113.704 9       -45.82528        94.000
  23280348.340   -23376592.596 7  -2432587.90326        58.000
  20619570.568    15707381.905 9   1538051.82629        98.000
  22968850.636    23105578.556 7   4338401.34426        56.000
  20655242.783   -18901279.686 9  -2927199.39729       100.000
  23560360.252    -1395429.865 7   -928806.85626        52.000
 96  6 11 15  8 30.0000000  0  6G 2G26G27G19G 7G15
  21244293.891    -2060892.616 9      4022.55828        92.000
  23278007.021   -23388913.031 7  -2442188.24826        60.000
  20624322.489    15732334.405 9   1557495.32829        98.000
  22977819.736    23152707.135 7   4375124.85626        56.000
  20652318.218   -18916650.553 9  -2939176.69729       100.000
  23561122.654    -1391446.564 7   -925702.99726        52.000
 96  6 11 15  8 45.0000000  0  6G 2G26G27G19G 7G15
  21245292.110    -2055626.066 9      8126.36228        88.000
  23275691.034   -23401093.650 7  -2451679.64226        60.000
  20629096.474    15757418.426 9   1577041.30429       100.000
  22986804.277    23199906.438 7   4411903.50326        56.000
  20649418.595   -18931895.251 9  -2951055.67829       102.000
  23561904.993    -1387314.565 7   -922483.27626        50.000
 96  6 11 15  9  0.0000000  0  6G 2G26G27G19G 7G15
  21246304.060    -2050316.639 9     12263.56228        92.000
  23273397.082   -23413135.279 7  -2461062.72926        60.000
  20633892.733    15782631.232 9   1596687.64329        98.000
  22995792.474    23247177.378 7   4448737.99126        56.000
  20646542.506   -18947014.996 9  -2962837.29529       102.000
  23562722.677    -1383035.000 7   -919148.52826        50.000
 96  6 11 15  9 15.0000000  0  6G 2G26G27G19G 7G15
  21247319.727    -2044966.154 9     16432.78828        92.000
  23271132.390   -23425035.268 7  -2470335.46926        62.000
  20638719.422    15807973.064 9   1616434.51629       100.000
  23004802.497    23294520.561 7   4485628.77026        54.000
  20643686.923   -18962007.682 9  -2974519.90729       100.000
  23563560.626    -1378606.338 7   -915697.66126        50.000
 96  6 11 15  9 30.0000000  0  6G 2G26G27G19G 7G15
  21248345.137    -2039578.993 9     20630.56328        90.000
  23268895.429   -23436793.989 7  -2479498.10626        58.000
  20643566.137    15833440.011 9   1636278.88429       100.000
  23013831.076    23341931.892 7   4522572.63926        58.000
  20640855.683   -18976875.329 9  -2986105.09629       100.000
  23564440.847    -1374030.481 7   -912132.06526        54.000
 96  6 11 15  9 45.0000000  0  6G 2G26G27G19G 7G15
  21249379.181    -2034158.207 9     24854.54728        90.000
  23266683.320   -23448413.588 7  -2488552.32626        58.000
  20648432.218    15859030.039 9   1656219.15529        98.000
  23022867.241    23389409.569 7   4559568.21726        56.000
  20638051.604   -18991623.776 9  -2997597.39029       100.000
  23565333.059    -1369308.933 7   -908452.91426        52.000
 96  6 11 15 10  0.0000000  0  6G 2G26G27G19G 7G15
  21250418.621    -2028700.025 9     29107.67328        90.000
  23264500.741   -23459890.784 7  -2497495.60226        60.000
  20653326.060    15884745.517 9   1676257.17829        98.000
  23031907.572    23436957.337 7   4596618.37926        56.000
  20635267.761   -19006252.672 9  -3008996.52729       100.000
  23566262.056    -1364439.321 7   -904658.42226        54.000
 96  6 11 15 10 15.0000000  0  6G 2G26G27G19G 7G15
  21251466.366    -2023202.733 9     33391.27928        92.000
  23262339.028   -23471230.699 7  -2506331.91326        60.000
  20658244.185    15910587.201 9   1696393.54129        98.000
  23040973.686    23484572.984 7   4633721.47526        56.000
  20632505.174   -19020761.457 9  -3020302.07429       100.000
  23567219.024    -1359422.590 7   -900749.26926        56.000
 96  6 11 15 10 30.0000000  0  6G 2G26G27G19G 7G15
  21252519.627    -2017668.064 9     37704.00128        90.000
  23260209.662   -23482439.617 7  -2515066.12626        56.000
  20663187.013    15936555.303 9   1716628.41729        98.000
  23050041.119    23532256.783 7   4670877.63526        56.000
  20629768.369   -19035148.557 9  -3031512.79729       100.000
  23568191.461    -1354259.639 7   -896726.21126        50.000
 96  6 11 15 10 45.0000000  0  6G 2G26G27G19G 7G15
  21253580.113    -2012099.180 9     42043.39728        92.000
  23258105.539   -23493519.915 7  -2523700.14426        60.000
  20668152.146    15962651.781 9   1736963.33029        98.000
  23059132.355    23580012.133 7   4708089.56826        56.000
  20627054.707   -19049413.399 9  -3042628.25129       100.000
  23569206.678    -1348949.913 7   -892588.76426        52.000
 96  6 11 15 11  0.0000000  0  6G 2G26G27G19G 7G15
  21254641.558    -2006497.867 9     46408.04628        92.000
  23256018.413   -23504473.631 7  -2532235.49626        60.000
  20673139.433    15988872.415 9   1757394.97629        96.000
  23068232.585    23627840.778 7   4745358.63426        54.000
  20624365.449   -19063557.938 9  -3053649.96729       100.000
  23570247.677    -1343493.223 7   -888336.79626        52.000
 96  6 11 15 11 15.0000000  0  6G 2G26G27G19G 7G15
  21255714.845    -2000862.753 9     50799.05628        94.000
  23253956.051   -23515298.457 7  -2540670.41826        60.000
  20678150.854    16015214.058 9   1777920.93529        94.000
  23077347.085    23675739.752 7   4782682.48726        56.000
  20621691.720   -19077581.461 9  -3064577.39929        98.000
  23571317.277    -1337889.705 7   -883970.42226        52.000
 96  6 11 15 11 30.0000000  0  6G 2G26G27G19G 7G15
  21256796.736    -1995194.291 9     55216.02028        92.000
  23251923.998   -23525993.419 7  -2549004.18826        62.000
  20683190.935    16041676.471 9   1798540.97429        96.000
  23086479.873    23723708.750 7   4820060.91426        56.000
  20619045.692   -19091485.054 9  -3075411.36129        98.000
  23572403.844    -1332139.697 7   -879489.93026        52.000
 96  6 11 15 11 45.0000000  0  6G 2G26G27G19G 7G15
  21257881.565    -1989491.347 9     59659.87928        96.000
  23249913.350   -23536557.820 7  -2557236.18226        62.000
  20688247.594    16068260.513 9   1819255.80629        94.000
  23095621.564    23771750.310 7   4857495.85326        54.000
  20616425.146   -19105269.651 9  -3086152.59729        98.000
  23573530.704    -1326243.505 7   -874895.49026        52.000
 96  6 11 15 12  0.0000000  0  6G 2G26G27G19G 7G15
  21258972.060    -1983754.932 9     64129.79828        92.000
  23247929.683   -23546993.255 7  -2565367.69326        60.000
  20693332.584    16094966.396 9   1840065.56729        98.000
  23104775.787    23819865.361 7   4894988.06026        54.000
  20613823.187   -19118933.594 9  -3096799.82629        98.000
  23574676.421    -1320202.758 7   -870188.41426        50.000
 96  6 11 15 12 15.0000000  0  6G 2G26G27G19G 7G15
  21260072.328    -1977982.752 9     68627.60028        96.000
  23245962.535   -23557301.492 7  -2573400.07926        60.000
  20698439.099    16121796.538 9   1860972.15329        98.000
  23113948.476    23868051.902 7   4932535.99726        56.000
  20611247.760   -19132471.163 9  -3107348.58629        96.000
  23575857.064    -1314016.887 7   -865368.24826        50.000
 96  6 11 15 12 30.0000000  0  6G 2G26G27G19G 7G15
  21261174.215    -1972176.506 9     73151.94928        94.000
  23244022.458   -23567483.984 7  -2581334.48226        60.000
  20703565.640    16148751.943 9   1881976.36629        96.000
  23123125.783    23916309.215 7   4970139.07526        54.000
  20608698.355   -19145882.927 9  -3117799.29329        96.000
  23577059.711    -1307686.326 7   -860435.37426        52.000
 96  6 11 15 12 45.0000000  0  6G 2G26G27G19G 7G15
  21262285.006    -1966335.967 9     77703.02328        96.000
  23242116.258   -23577535.491 7  -2589166.83126        62.000
  20708717.633    16175828.486 9   1903074.95729        94.000
  23132324.375    23964635.745 7   5007796.09326        52.000
  20606167.957   -19159173.529 9  -3128155.60929        96.000
  23578293.147    -1301211.173 7   -855389.79526        54.000
 96  6 11 15 13  0.0000000  0  6G 2G26G27G19G 7G15
  21263407.729    -1960456.260 9     82284.60928        94.000
  23240230.143   -23587451.827 8  -2596893.86626        64.000
  20713893.760    16203021.605 9   1924264.38229        96.000
  23141529.473    24013027.733 7   5045504.11926        54.000
  20603662.351   -19172344.737 9  -3138418.88529        96.000
  23579551.556    -1294591.557 7   -850231.65626        50.000
 96  6 11 15 13 15.0000000  0  6G 2G26G27G19G 7G15
  21264532.760    -1954534.030 9     86899.32028        96.000
  23238362.017   -23597233.782 7  -2604516.17326        62.000
  20719090.452    16230332.667 9   1945545.72629        94.000
  23150747.941    24061481.255 7   5083260.07126        52.000
  20601178.091   -19185396.000 9  -3148588.69929        96.000
  23580840.754    -1287828.079 7   -844961.43026        50.000
 96  6 11 15 13 30.0000000  0  6G 2G26G27G19G 7G15
  21265666.635    -1948570.773 9     91546.01028        96.000
  23236528.336   -23606880.803 7  -2612033.33326        62.000
  20724312.417    16257767.084 9   1966923.17729        96.000
  23159991.741    24109996.546 7   5121064.15926        54.000
  20598718.024   -19198325.347 9  -3158663.51729        94.000
  23582153.665    -1280921.577 7   -839579.76126        50.000
 96  6 11 15 13 45.0000000  0  6G 2G26G27G19G 7G15
  21266808.275    -1942565.639 9     96225.33328        94.000
  23234722.716   -23616393.880 7  -2619446.11726        62.000
  20729557.376    16285327.071 9   1988398.48029        96.000
  23169230.655    24158575.069 7   5158917.52426        52.000
  20596279.273   -19211132.362 9  -3168643.00229        94.000
  23583495.086    -1273871.511 7   -834086.17726        54.000
 96  6 11 15 14  0.0000000  0  6G 2G26G27G19G 7G15
  21267962.956    -1936514.877 9    100940.20628        96.000
  23232932.625   -23625772.552 7  -2626754.16426        60.000
  20734823.231    16313012.910 9   2009971.84629        94.000
  23178484.139    24207212.480 7   5196816.76926        50.000
  20593865.134   -19223816.587 9  -3178526.79929        96.000
  23584866.427    -1266677.683 7   -828480.52226        52.000
 96  6 11 15 14 15.0000000  0  6G 2G26G27G19G 7G15
  21269124.472    -1930418.306 9    105690.77828        94.000
  23231176.171   -23635018.624 7  -2633958.89126        60.000
  20740114.328    16340823.827 9   2031642.68929        96.000
  23187750.904    24255903.439 7   5234757.78426        48.000
  20591475.848   -19236378.935 9  -3188315.64029        98.000
  23586260.522    -1259340.773 7   -822763.46726        54.000
 96  6 11 15 14 30.0000000  0  6G 2G26G27G19G 7G15
  21270290.874    -1924275.908 9    110477.06528        94.000
  23229441.332   -23644131.264 7  -2641059.66826        62.000
  20745429.738    16368759.826 9   2053410.97729        96.000
  23197028.581    24304647.843 7   5272740.42626        52.000
  20589108.357   -19248824.652 9  -3198013.59929        94.000
  23587684.926    -1251861.099 7   -816935.15126        56.000
 96  6 11 15 14 45.0000000  0  6G 2G26G27G19G 7G15
  21271468.159    -1918090.236 9    115297.04628        94.000
  23227731.286   -23653106.615 7  -2648053.45026        62.000
  20750768.322    16396819.211 9   2075275.41829        94.000
  23206318.550    24353447.840 7   5310766.35426        52.000
  20586763.380   -19261155.297 9  -3207621.89729        94.000
  23589130.165    -1244238.735 7   -810995.66126        50.000
 96  6 11 15 15  0.0000000  0  6G 2G26G27G19G 7G15
  21272654.378    -1911861.681 9    120150.48228        94.000
  23226053.558   -23661944.081 7  -2654939.79626        62.000
  20756134.517    16425002.341 9   2097236.30729        94.000
  23215605.761    24402303.771 7   5348835.86526        48.000
  20584435.522   -19273368.486 9  -3217138.66729        94.000
  23590609.821    -1236473.465 7   -804944.80326        50.000
 96  6 11 15 15 15.0000000  0  6G 2G26G27G19G 7G15
  21273846.562    -1905592.888 9    125035.25428        96.000
  23224396.845   -23670649.119 8  -2661722.93126        64.000
  20761521.518    16453312.965 9   2119296.50329        96.000
  23224918.364    24451217.405 7   5386950.36626        48.000
  20582138.722   -19285462.429 9  -3226562.52129        92.000
  23592116.787    -1228565.304 7   -798782.59726        52.000
 96  6 11 15 15 30.0000000  0  6G 2G26G27G19G 7G15
  21275043.634    -1899286.465 9    129949.32628        94.000
  23222764.595   -23679222.764 7  -2668403.70226        62.000
  20766935.350    16481750.139 9   2141455.32929        94.000
  23234235.194    24500189.907 7   5425110.72926        50.000
  20579856.432   -19297438.798 9  -3235894.74629        94.000
  23593651.245    -1220515.386 7   -792509.95326        52.000
 96  6 11 15 15 45.0000000  0  6G 2G26G27G19G 7G15
  21276254.256    -1892940.116 9    134894.52328        94.000
  23221157.227   -23687664.233 7  -2674981.46826        60.000
  20772369.958    16510310.062 9   2163709.81329        94.000
  23243563.086    24549223.901 7   5463319.02026        50.000
  20577601.843   -19309300.000 9  -3245137.23329        94.000
  23595212.534    -1212322.859 7   -786126.17426        52.000
 96  6 11 15 16  0.0000000  0  6G 2G26G27G19G 7G15
  21277464.188    -1886552.596 9    139871.81828        94.000
  23219577.801   -23695976.356 7  -2681458.45426        60.000
  20777828.728    16538989.653 9   2186057.53729        94.000
  23252912.803    24598316.040 7   5501572.61626        48.000
  20575364.372   -19321050.145 9  -3254293.19429        94.000
  23596795.378    -1203988.815 7   -779632.12226        52.000
 96  6 11 15 16 15.0000000  0  6G 2G26G27G19G 7G15
  21278690.999    -1880128.727 9    144877.42228        94.000
  23218020.139   -23704161.316 7  -2687836.34326        62.000
  20783303.239    16567788.966 9   2208498.54429        94.000
  23262262.821    24647468.370 7   5539873.13426        48.000
  20573150.194   -19332688.495 9  -3263362.03929        96.000
  23598406.643    -1195513.965 7   -773028.35326        54.000
 96  6 11 15 16 30.0000000  0  6G 2G26G27G19G 7G15
  21279922.966    -1873673.348 9    149907.57028        94.000
  23216486.821   -23712220.852 8  -2694116.50426        64.000
  20788803.531    16596708.292 9   2231033.07129        94.000
  23271630.376    24696685.065 7   5578223.74426        48.000
  20570954.335   -19344213.418 9  -3272342.47929        94.000
  23600044.499    -1186897.914 7   -766314.55726        52.000
 96  6 11 15 16 45.0000000  0  6G 2G26G27G19G 7G15
  21281154.543    -1867190.048 9    154959.50028        96.000
  23214972.809   -23720155.943 7  -2700299.69926        60.000
  20794335.421    16625745.007 9   2253659.08429        94.000
  23281004.736    24745966.441 7   5616624.79226        48.000
  20568786.895   -19355624.432 9  -3281234.18829        94.000
  23601708.137    -1178140.658 7   -759490.70926        50.000
 96  6 11 15 17  0.0000000  0  6G 2G26G27G19G 7G15
  21282391.817    -1860680.415 9    160031.92728        94.000
  23213487.757   -23727969.156 7  -2706387.92026        60.000
  20799883.710    16654896.672 9   2276374.65029        94.000
  23290393.276    24795311.316 7   5655075.32226        44.000
  20566637.023   -19366918.779 9  -3290034.97829        94.000
  23603413.987    -1169243.305 7   -752557.72826        50.000
 96  6 11 15 17 15.0000000  0  6G 2G26G27G19G 7G15
  21283636.645    -1854141.475 9    165127.20028        96.000
  23212029.596   -23735664.000 7  -2712383.90026        58.000
  20805452.895    16684164.142 9   2299180.45929        92.000
  23299801.123    24844719.552 7   5693575.20226        46.000
  20564508.137   -19378097.436 9  -3298745.61429        98.000
  23605123.253    -1160205.168 7   -745515.01926        48.000
 96  6 11 15 17 30.0000000  0  6G 2G26G27G19G 7G15
  21284885.400    -1847572.119 9    170246.16528        92.000
  23210584.926   -23743238.381 7  -2718286.02626        60.000
  20811046.542    16713547.626 9   2322076.67629        92.000
  23309209.090    24894192.650 7   5732125.66426        48.000
  20562401.765   -19389161.267 9  -3307366.78429        96.000
  23606870.444    -1151025.921 7   -738362.37726        48.000
 96  6 11 15 17 45.0000000  0  6G 2G26G27G19G 7G15
  21286139.732    -1840976.279 9    175385.78328        96.000
  23209163.970   -23750691.897 7  -2724093.95926        60.000
  20816656.349    16743044.713 9   2345061.40429        90.000
  23318640.231    24943728.711 7   5770725.20826        46.000
  20560320.786   -19400109.819 9  -3315898.11329        96.000
  23608649.502    -1141706.547 7   -731100.53526        50.000
 96  6 11 15 18  0.0000000  0  6G 2G26G27G19G 7G15
  21287400.269    -1834357.546 9    180543.22128        94.000
  23207767.927   -23758025.762 7  -2729808.66026        60.000
  20822289.629    16772657.231 9   2368136.07429        90.000
  23328074.940    24993326.363 7   5809372.67926        48.000
  20558256.685   -19410940.992 9  -3324337.98729        94.000
  23610442.681    -1132247.523 7   -723729.87726        46.000
 96  6 11 15 18 15.0000000  0  6G 2G26G27G19G 7G15
  21288662.725    -1827720.148 9    185715.22528        94.000
  23206394.218   -23765241.026 7  -2735430.95126        60.000
  20827948.241    16802384.784 9   2391300.39529        92.000
  23337521.640    25042982.655 7   5848065.85826        48.000
  20556217.797   -19421651.666 9  -3332683.98229        96.000
  23612274.682    -1122649.665 7   -716251.03326        48.000
 96  6 11 15 18 30.0000000  0  6G 2G26G27G19G 7G15
  21289932.526    -1821062.387 9    190903.08528        98.000
  23205044.792   -23772334.952 7  -2740958.67626        62.000
  20833627.750    16832225.846 9   2414553.15229        90.000
  23346986.747    25092698.071 7   5886805.06426        48.000
  20554208.647   -19432241.185 9  -3340935.53529        98.000
  23614125.211    -1112912.070 7   -708663.33426        48.000
 96  6 11 15 18 45.0000000  0  6G 2G26G27G19G 7G15
  21291205.835    -1814380.248 9    196109.93328        96.000
  23203721.028   -23779306.735 7  -2746391.25426        62.000
  20839324.196    16862178.721 9   2437893.04129        88.000
  23356465.346    25142467.757 7   5925586.63625        50.000
  20552214.158   -19442713.754 9  -3349095.97029        98.000
  23616007.458    -1103036.098 7   -700967.76426        48.000
 96  6 11 15 19  0.0000000  0  6G 2G26G27G19G 7G15
  21292477.015    -1807669.668 9    201338.94728        96.000
  23202415.042   -23786152.681 7  -2751725.77226        60.000
  20845050.022    16892245.435 9   2461321.63429        92.000
  23365943.734    25192292.098 7   5964410.77526        50.000
  20550241.494   -19453069.078 9  -3357165.05229        94.000
  23617909.222    -1093020.996 7   -693163.78726        46.000
 96  6 11 15 19 15.0000000  0  6G 2G26G27G19G 7G15
  21293759.677    -1800927.839 9    206592.32828        96.000
  23201133.699   -23792870.449 7  -2756960.41126        60.000
  20850791.737    16922427.477 9   2484840.11829        88.000
  23375431.655    25242172.365 7   6003278.50226        50.000
  20548293.952   -19463309.247 9  -3365144.41229        96.000
  23619841.894    -1082867.431 7   -685251.92626        48.000
 96  6 11 15 19 30.0000000  0  6G 2G26G27G19G 7G15
  21295052.502    -1794151.489 9    211872.58028        94.000
  23199885.364   -23799455.822 7  -2762091.89526        58.000
  20856560.074    16952727.518 9   2508450.51429        90.000
  23384931.809    25292108.536 7   6042189.79426        48.000
  20546368.445   -19473435.105 9  -3373034.68329        98.000
  23621795.641    -1072573.343 7   -677230.59126        48.000
 96  6 11 15 19 45.0000000  0  6G 2G26G27G19G 7G15
  21296346.436    -1787341.266 9    217179.24328        94.000
  23198657.114   -23805908.721 7  -2767120.09926        60.000
  20862342.651    16983143.839 9   2532151.52729        90.000
  23394449.919    25342100.083 7   6081144.17925        50.000
  20544462.305   -19483444.759 9  -3380834.40629        96.000
  23623784.015    -1062138.681 7   -669099.70226        46.000
 96  6 11 15 20  0.0000000  0  6G 2G26G27G19G 7G15
  21297649.004    -1780496.977 9    222512.45628        94.000
  23197451.888   -23812232.751 7  -2772047.91826        62.000
  20868155.237    17013675.262 9   2555942.22329        88.000
  23403968.120    25392143.119 7   6120138.70625        50.000
  20542578.289   -19493340.065 9  -3388545.05229        98.000
  23625798.200    -1051565.175 7   -660860.62226        46.000
 96  6 11 15 20 15.0000000  0  6G 2G26G27G19G 7G15
  21298962.965    -1773613.569 9    227876.14128        96.000
  23196274.693   -23818427.671 7  -2776875.13826        62.000
  20873985.001    17044322.039 9   2579822.82329        90.000
  23413500.201    25442236.023 7   6159172.11125        48.000
  20540717.507   -19503122.810 9  -3396167.95829        96.000
  23627836.879    -1040852.350 7   -652512.98626        48.000
 96  6 11 15 20 30.0000000  0  6G 2G26G27G19G 7G15
  21300279.413    -1766687.891 9    233272.75428        96.000
  23195117.944   -23824491.953 7  -2781600.58826        60.000
  20879838.449    17075083.131 9   2603792.48929        88.000
  23423044.364    25492379.485 7   6198244.94025        46.000
  20538875.492   -19512795.360 9  -3403705.00129        96.000
  23629902.719    -1029999.993 7   -644056.58326        48.000
 96  6 11 15 20 45.0000000  0  6G 2G26G27G19G 7G15
  21301603.537    -1759721.004 9    238701.49128        94.000
  23193989.975   -23830425.936 7  -2786224.46626        58.000
  20885714.860    17105959.456 9   2627851.95329        90.000
  23432595.752    25542573.472 7   6237357.12026        48.000
  20537056.022   -19522360.340 9  -3411158.22629        98.000
  23632002.285    -1019008.859 7   -635492.08026        48.000
 96  6 11 15 21  0.0000000  0  6G 2G26G27G19G 7G15
  21302936.024    -1752714.497 9    244161.10928        94.000
  23192886.559   -23836230.597 8  -2790747.58526        64.000
  20891613.877    17136952.112 9   2652002.06629        90.000
  23442158.981    25592818.454 7   6276509.02525        48.000
  20535257.867   -19531814.938 9  -3418525.45229        98.000
  23634112.374    -1007878.707 7   -626819.26826        46.000
 96  6 11 15 21 15.0000000  0  6G 2G26G27G19G 7G15
  21304279.124    -1745669.913 9    249650.38228        96.000
  23191802.269   -23841906.951 7  -2795170.72326        60.000
  20897532.739    17168058.208 9   2676240.55829        88.000
  23451729.795    25643113.752 7   6315700.14525        46.000
  20533475.691   -19541157.780 9  -3425805.59029        98.000
  23636252.143     -996610.036 7   -618038.48726        46.000
 96  6 11 15 21 30.0000000  0  6G 2G26G27G19G 7G15
  21305626.062    -1738588.860 9    255168.07828        94.000
  23190744.452   -23847458.994 7  -2799497.01026        58.000
  20903474.656    17199274.650 9   2700565.04829        90.000
  23461312.841    25693455.367 7   6354927.30225        46.000
  20531722.924   -19550391.691 9  -3433000.83729        98.000
  23638424.949     -985203.917 7   -609150.58926        46.000
 96  6 11 15 21 45.0000000  0  6G 2G26G27G19G 7G15
  21306977.347    -1731474.588 9    260711.67728        94.000
  23189714.515   -23852890.179 7  -2803729.08526        62.000
  20909435.969    17230600.687 9   2724974.93829        90.000
  23470890.611    25743842.441 7   6394189.93925        46.000
  20529986.376   -19559514.651 9  -3440109.63829        98.000
  23640619.849     -973660.135 7   -600155.46326        44.000
 96  6 11 15 22  0.0000000  0  6G 2G26G27G19G 7G15
  21308339.633    -1724326.926 9    266281.26227        96.000
  23188710.870   -23858200.489 7  -2807867.01026        60.000
  20915415.959    17262037.138 9   2749470.85729        90.000
  23480497.550    25794276.927 7   6433489.51025        44.000
  20528271.623   -19568523.329 9  -3447129.38729        96.000
  23642848.057     -961977.767 7   -591052.33526        46.000
 96  6 11 15 22 15.0000000  0  6G 2G26G27G19G 7G15
  21309707.407    -1717144.743 9    271877.77127        96.000
  23187719.276   -23863387.360 7  -2811908.75726        62.000
  20921420.712    17293583.754 9   2774052.62129        90.000
  23490106.048    25844758.409 7   6472825.73225        46.000
  20526576.747   -19577417.290 9  -3454059.74229        98.000
  23645095.331     -950156.834 7   -581841.27426        46.000
 96  6 11 15 22 30.0000000  0  6G 2G26G27G19G 7G15
  21311076.439    -1709927.861 9    277501.31527        94.000
  23186759.371   -23868448.760 8  -2815852.69726        64.000
  20927444.502    17325238.146 9   2798718.36429        90.000
  23499712.987    25895288.781 7   6512200.01825        48.000
  20524911.010   -19586197.234 9  -3460901.26129        98.000
  23647372.525     -938196.752 7   -572521.71226        48.000
 96  6 11 15 22 45.0000000  0  6G 2G26G27G19G 7G15
  21312461.960    -1702678.408 9    283150.25227        94.000
  23185818.082   -23873383.583 7  -2819698.02226        62.000
  20933489.187    17357001.683 9   2823469.17829        90.000
  23509345.379    25945872.476 7   6551615.83625        48.000
  20523261.672   -19594861.537 9  -3467652.66129        96.000
  23649674.121     -926096.919 7   -563093.25226        48.000
 96  6 11 15 23  0.0000000  0  6G 2G26G27G19G 7G15
  21313843.313    -1695397.430 9    288823.72928        94.000
  23184904.944   -23878193.338 8  -2823445.87926        64.000
  20939549.641    17388873.609 9   2848304.42329        88.000
  23518980.619    25996507.563 7   6591071.70225        46.000
  20521631.520   -19603408.365 9  -3474312.52629        98.000
  23652004.588     -913857.581 7   -553556.12026        46.000
 96  6 11 15 23 15.0000000  0  6G 2G26G27G19G 7G15
  21315237.168    -1688083.664 9    294522.75628        94.000
  23184012.702   -23882875.897 7  -2827094.63126        62.000
  20945638.936    17420852.440 9   2873222.97629        88.000
  23528619.186    26047194.005 7   6630567.56425        44.000
  20520027.571   -19611838.605 9  -3480881.53329        98.000
  23654363.175     -901478.654 7   -543910.23026        44.000
 96  6 11 15 23 30.0000000  0  6G 2G26G27G19G 7G15
  21316634.261    -1680740.507 9    300244.68328        96.000
  23183145.013   -23887432.948 7  -2830645.59526        60.000
  20951743.820    17452938.852 9   2898225.36629        88.000
  23538276.550    26097932.222 7   6670103.82725        44.000
  20518448.983   -19620156.486 9  -3487362.99729       100.000
  23656740.889     -888961.183 7   -534156.38526        46.000
 96  6 11 15 23 45.0000000  0  6G 2G26G27G19G 7G15
  21318039.418    -1673368.364 9    305989.22228        94.000
  23182305.204   -23891863.931 8  -2834098.31426        66.000
  20957871.457    17485135.256 9   2923313.47029        88.000
  23547942.129    26148724.616 7   6709682.30325        44.000
  20516883.347   -19628360.334 9  -3493755.59429        98.000
  23659147.803     -876304.808 7   -524294.25326        46.000
 96  6 11 15 24  0.0000000  0  6G 2G26G27G19G 7G15
  21319441.698    -1665966.217 9    311757.11628        94.000
  23181476.368   -23896168.394 8  -2837452.44026        64.000
  20964018.852    17517441.933 9   2948487.47629        88.000
  23557623.057    26199572.805 7   6749304.26425        44.000
  20515349.549   -19636449.198 9  -3500058.61229        98.000
  23661588.143     -863509.642 7   -514324.01926        46.000
 96  6 11 15 24 15.0000000  0  6G 2G26G27G19G 7G15
  21320858.996    -1658532.121 9    317549.92528        92.000
  23180687.944   -23900342.797 8  -2840705.22126        64.000
  20970192.568    17549862.039 9   2973749.89829        90.000
  23567306.923    26250475.423 7   6788968.57825        44.000
  20513826.094   -19644425.793 9  -3506274.14229        98.000
  23664043.324     -850575.490 7   -504245.46226        48.000
 96  6 11 15 24 30.0000000  0  6G 2G26G27G19G 7G15
  21322280.762    -1651068.213 9    323365.93628        92.000
  23179912.710   -23904389.082 8  -2843858.16926        64.000
  20976379.834    17582396.058 9   2999101.05929        88.000
  23577002.960    26301430.946 7   6828674.12125        42.000
  20512332.378   -19652295.271 9  -3512406.19829        98.000
  23666526.984     -837502.926 7   -494059.04325        50.000
 96  6 11 15 24 45.0000000  0  6G 2G26G27G19G 7G15
  21323701.209    -1643578.738 9    329201.88328        92.000
  23179172.013   -23908311.810 7  -2846914.85826        62.000
  20982593.513    17615045.944 9   3024542.52029        86.000
  23586704.904    26352438.403 7   6868420.16725        44.000
  20510853.112   -19660059.837 9  -3518456.50529        98.000
  23669049.378     -824293.388 7   -483765.88125        48.000
 96  6 11 15 25  0.0000000  0  6G 2G26G27G19G 7G15
  21325133.227    -1636064.363 9    335057.24428        94.000
  23178441.539   -23912111.957 7  -2849876.05026        56.000
  20988829.286    17647813.348 9   3050075.55629        86.000
  23596426.664    26403495.431 7   6908204.85725        44.000
  20509393.243   -19667718.119 9  -3524423.99929       100.000
  23671582.714     -810947.249 7   -473366.32825        44.000
 96  6 11 15 25 15.0000000  0  6G 2G26G27G19G 7G15
  21326571.572    -1628521.472 9    340934.80628        92.000
  23177749.048   -23915788.766 8  -2852741.06326        64.000
  20995086.374    17680697.962 9   3075699.92929        86.000
  23606149.353    26454599.858 7   6948026.47925        44.000
  20507955.288   -19675269.366 9  -3530308.07629        96.000
  23674149.957     -797464.149 7   -462860.00525        46.000
 96  6 11 15 25 30.0000000  0  6G 2G26G27G19G 7G15
  21328011.595    -1620949.410 9    346835.11828        92.000
  23177071.367   -23919343.342 8  -2855510.86326        66.000
  21001367.956    17713702.444 9   3101417.68529        86.000
  23615879.927    26505754.335 7   6987887.07025        44.000
  20506540.387   -19682714.941 9  -3536109.83029        94.000
  23676741.153     -783843.590 7   -452246.57725        48.000
 96  6 11 15 25 45.0000000  0  6G 2G26G27G19G 7G15
  21329457.374    -1613348.262 9    352758.08028        92.000
  23176418.689   -23922780.291 7  -2858189.02026        60.000
  21007667.434    17746825.136 9   3127227.54929        84.000
  23625624.231    26556956.342 6   7027784.70125        40.000
  20505144.284   -19690055.436 9  -3541829.68929        98.000
  23679364.727     -770087.851 7   -441527.83125        48.000
 96  6 11 15 26  0.0000000  0  6G 2G26G27G19G 7G15
  21330910.678    -1605714.029 9    358706.85128        90.000
  23175782.080   -23926099.938 7  -2860775.77626        62.000
  21013993.655    17780064.652 9   3153128.46729        86.000
  23635381.306    26608203.540 7   7067717.50725        42.000
  20503770.455   -19697290.536 9  -3547467.42229        98.000
  23682005.659     -756197.053 7   -430703.82925        48.000
 96  6 11 15 26 15.0000000  0  6G 2G26G27G19G 7G15
  21332373.005    -1598047.604 9    364680.66728        94.000
  23175181.536   -23929302.393 8  -2863271.20926        66.000
  21020339.961    17813420.166 8   3179119.76529        82.000
  23645139.461    26659493.578 7   7107683.73025        42.000
  20502411.406   -19704422.820 9  -3553025.04729        98.000
  23684674.471     -742171.320 7   -419774.71725        48.000
 96  6 11 15 26 30.0000000  0  6G 2G26G27G19G 7G15
  21333836.832    -1590349.303 9    370679.34028        92.000
  23174586.148   -23932386.217 7  -2865674.19526        62.000
  21026710.072    17846890.705 9   3205200.69729        84.000
  23654906.429    26710828.078 7   7147684.64425        42.000
  20501076.280   -19711452.141 9  -3558502.44129        98.000
  23687371.524     -728010.665 7   -408740.42125        48.000
 96  6 11 15 26 45.0000000  0  6G 2G26G27G19G 7G15
  21335307.884    -1582616.360 9    376705.00528        94.000
  23174023.377   -23935351.845 7  -2867985.07726        60.000
  21033101.707    17880472.138 9   3231368.02629        84.000
  23664684.190    26762208.560 7   7187721.36225        42.000
  20499755.215   -19718375.359 9  -3563897.15729        96.000
  23690088.813     -713714.350 7   -397600.43825        46.000
 96  6 11 15 27  0.0000000  0  6G 2G26G27G19G 7G15
  21336783.312    -1574847.035 9    382759.01928        90.000
  23173484.590   -23938197.773 7  -2870202.68826        60.000
  21039509.681    17914162.473 8   3257620.22829        82.000
  23674475.891    26813635.896 7   7227794.60025        42.000
  20498453.996   -19725188.044 9  -3569205.73729        96.000
  23692837.280     -699282.855 7   -386355.12725        46.000
 96  6 11 15 27 15.0000000  0  6G 2G26G27G19G 7G15
  21338271.422    -1567041.161 9    388841.51528        92.000
  23172958.994   -23940923.170 7  -2872326.39226        62.000
  21045943.287    17947957.990 9   3283954.37529        84.000
  23684266.873    26865109.337 7   7267903.72925        42.000
  20497183.775   -19731892.733 9  -3574430.16729        96.000
  23695612.849     -684717.916 7   -375005.83325        48.000
 96  6 11 15 27 30.0000000  0  6G 2G26G27G19G 7G15
  21339762.530    -1559201.701 9    394950.18028        94.000
  23172468.084   -23943527.481 7  -2874355.73626        62.000
  21052394.311    17981859.287 9   3310370.96129        84.000
  23694071.705    26916630.914 6   7308050.34625        40.000
  20495927.345   -19738490.227 9  -3579571.08129        96.000
  23698409.522     -670018.873 7   -363552.04925        52.000
 96  6 11 15 27 45.0000000  0  6G 2G26G27G19G 7G15
  21341258.404    -1551332.427 9    401082.07528        94.000
  23171998.189   -23946012.523 7  -2876292.14226        60.000
  21058867.639    18015865.141 9   3336869.01229        84.000
  23703883.733    26968198.069 7   7348232.52825        42.000
  20494693.189   -19744981.324 9  -3584629.07629        94.000
  23701227.751     -655187.384 7   -351995.01025        50.000
 96  6 11 15 28  0.0000000  0  6G 2G26G27G19G 7G15
  21342761.654    -1543433.799 9    407236.84928        92.000
  23171545.893   -23948376.495 8  -2878134.20326        64.000
  21065359.525    18049972.720 9   3363446.33429        84.000
  23713702.206    27019808.346 7   7388448.26925        42.000
  20493476.781   -19751364.623 9  -3589603.06629        96.000
  23704077.339     -640223.784 7   -340335.07625        50.000
 96  6 11 15 28 15.0000000  0  6G 2G26G27G19G 7G15
  21344274.047    -1535507.819 9    413412.94528        94.000
  23171118.988   -23950616.449 7  -2879879.63426        60.000
  21071865.621    18084180.955 8   3390102.09229        82.000
  23723527.094    27071461.714 7   7428697.67125        42.000
  20492285.376   -19757639.449 9  -3594492.54129        96.000
  23706951.779     -625127.217 7   -328571.51425        50.000
 96  6 11 15 28 30.0000000  0  6G 2G26G27G19G 7G15
  21345784.581    -1527556.456 9    419608.79828        94.000
  23170718.705   -23952731.628 7  -2881527.83826        62.000
  21078393.902    18118487.954 8   3416834.81229        82.000
  23733369.370    27123158.203 6   7468980.63325        40.000
  20491110.879   -19763803.663 9  -3599295.81229        94.000
  23709848.014     -609898.608 7   -316705.08525        48.000
 96  6 11 15 28 45.0000000  0  6G 2G26G27G19G 7G15
  21347301.980    -1519579.283 9    425824.76928        92.000
  23170340.667   -23954722.403 8  -2883079.10326        66.000
  21084940.140    18152893.114 9   3443644.01229        84.000
  23743218.962    27174897.276 7   7509296.66725        42.000
  20489960.216   -19769853.681 9  -3604010.12229        94.000
  23712769.941     -594537.709 7   -304735.55025        50.000
 96  6 11 15 29  0.0000000  0  6G 2G26G27G19G 7G15
  21348823.637    -1511577.858 9    432059.64828        94.000
  23169985.893   -23956591.299 8  -2884535.40726        64.000
  21091505.924    18187396.893 9   3470530.04529        84.000
  23753074.129    27226676.359 6   7549643.97325        40.000
  20488828.559   -19775789.268 9  -3608635.24229        92.000
  23715718.460     -579045.502 7   -292663.71225        48.000
 96  6 11 15 29 15.0000000  0  6G 2G26G27G19G 7G15
  21350347.452    -1503552.603 9    438313.08628        90.000
  23169650.785   -23958336.934 7  -2885895.63526        62.000
  21098092.215    18222003.068 9   3497495.89329        84.000
  23762933.973    27278495.359 6   7590022.41625        40.000
  20487723.494   -19781610.515 9  -3613171.28229        94.000
  23718692.941     -563421.033 7   -280488.83225        52.000
 96  6 11 15 29 30.0000000  0  6G 2G26G27G19G 7G15
  21351883.948    -1495505.375 9    444583.63828        92.000
  23169343.497   -23959958.871 8  -2887159.51826        64.000
  21104697.452    18256712.079 9   3524541.86529        84.000
  23772805.749    27330352.745 6   7630430.78225        40.000
  20486635.847   -19787318.793 9  -3617619.29329        92.000
  23721690.685     -547663.791 7   -268210.42425        52.000
 96  6 11 15 29 45.0000000  0  6G 2G26G27G19G 7G15
  21353420.565    -1487435.490 9    450871.87328        94.000
  23169055.427   -23961459.626 8  -2888328.94126        64.000
  21111323.825    18291523.550 9   3551667.68229        84.000
  23782681.662    27382244.155 6   7670865.59025        40.000
  20485569.275   -19792913.179 9  -3621978.55529        94.000
  23724712.353     -531774.417 7   -255829.15125        48.000
 96  6 11 15 30  0.0000000  0  6G 2G26G27G19G 7G15
  21354958.290    -1479339.904 9    457180.11128        92.000
  23168792.329   -23962839.961 8  -2889404.54426        64.000
  21117965.637    18326434.802 9   3578871.23529        84.000
  23792551.429    27434166.664 6   7711324.57625        38.000
  20484527.437   -19798395.320 9  -3626250.35129        92.000
  23727763.491     -515754.395 7   -243346.03325        48.000
 96  6 11 15 30 15.0000000  0  6G 2G26G27G19G 7G15
  21356503.630    -1471218.109 9    463508.78328        94.000
  23168556.092   -23964098.341 7  -2890385.11626        60.000
  21124624.956    18361444.504 9   3606151.51129        84.000
  23802441.403    27486123.539 6   7751810.44525        38.000
  20483505.624   -19803767.092 9  -3630436.14329        94.000
  23730832.407     -499603.206 7   -230760.68725        48.000
 96  6 11 15 30 30.0000000  0  6G 2G26G27G19G 7G15
  21358053.467    -1463069.791 9    469858.12028        92.000
  23168336.974   -23965235.033 7  -2891270.84327        60.000
  21131310.838    18396557.123 9   3633511.97929        86.000
  23812333.175    27538116.584 6   7792324.47025        40.000
  20482506.686   -19809027.856 9  -3634535.43229        92.000
  23733941.524     -483320.370 7   -218072.77225        48.000
 96  6 11 15 30 45.0000000  0  6G 2G26G27G19G 7G15
  21359614.247    -1454896.595 9    476226.84228        94.000
  23168143.188   -23966250.500 8  -2892062.12527        64.000
  21138012.399    18431773.804 9   3660953.52129        86.000
  23822244.014    27590147.295 6   7832867.87325        40.000
  20481524.176   -19814179.671 9  -3638549.83329        94.000
  23737058.766     -466906.616 7   -205282.83025        52.000
 96  6 11 15 31  0.0000000  0  6G 2G26G27G19G 7G15
  21361169.930    -1446696.353 9    482616.63328        94.000
  23167977.883   -23967143.778 7  -2892758.20826        62.000
  21144731.707    18467096.825 9   3688477.94929        84.000
  23832143.221    27642216.220 6   7873441.04625        38.000
  20480561.063   -19819225.624 9  -3642481.74429        92.000
  23740202.900     -450360.515 7   -192389.77625        50.000
 96  6 11 15 31 15.0000000  0  6G 2G26G27G19G 7G15
  21362737.754    -1438468.933 9    489027.60828        92.000
  23167827.657   -23967915.694 8  -2893359.70827        64.000
  21151474.129    18502526.321 9   3716085.35029        86.000
  23842066.141    27694324.315 6   7914044.74625        40.000
  20479625.021   -19824168.810 9  -3646333.56929        92.000
  23743378.571     -433683.006 7   -179394.32525        54.000
 96  6 11 15 31 30.0000000  0  6G 2G26G27G19G 7G15
  21364312.174    -1430215.242 9    495459.05428        92.000
  23167704.952   -23968565.564 8  -2893866.12927        66.000
  21158236.578    18538060.338 9   3743774.17329        86.000
  23851984.924    27746470.520 6   7954678.03725        40.000
  20478703.249   -19829010.088 9  -3650106.00629        92.000
  23746580.864     -416874.642 7   -166296.91725        52.000
 96  6 11 15 31 45.0000000  0  6G 2G26G27G19G 7G15
  21365879.819    -1421934.682 9    501911.43928        92.000
  23167601.943   -23969096.724 8  -2894280.03226        64.000
  21165015.395    18573696.573 9   3771542.64629        86.000
  23861912.851    27798654.243 6   7995340.61325        40.000
  20477800.394   -19833748.850 9  -3653798.54929        92.000
  23749802.944     -399935.867 7   -153097.87625        48.000
 96  6 11 15 32  0.0000000  0  6G 2G26G27G19G 7G15
  21367462.783    -1413625.878 9    508385.81828        92.000
  23167524.267   -23969509.364 7  -2894601.55826        60.000
  21171818.315    18609435.289 9   3799390.96729        86.000
  23871851.991    27850878.427 6   8036034.76325        40.000
  20476917.175   -19838386.015 9  -3657411.91629        92.000
  23753049.006     -382866.366 7   -139796.98825        50.000
 96  6 11 15 32 15.0000000  0  6G 2G26G27G19G 7G15
  21369052.253    -1405291.028 9    514880.49428        92.000
  23167465.777   -23969803.209 8  -2894830.53226        66.000
  21178637.035    18645274.986 9   3827318.00429        84.000
  23881802.942    27903146.519 7   8076763.17025        42.000
  20476052.124   -19842923.005 9  -3660947.22829        90.000
  23756320.911     -365667.237 7   -126395.07425        48.000
 96  6 11 15 32 30.0000000  0  6G 2G26G27G19G 7G15
  21370636.656    -1396932.595 9    521393.57228        92.000
  23167435.618   -23969982.026 8  -2894969.92126        64.000
  21185480.997    18681214.934 9   3855323.14229        86.000
  23891755.212    27955456.258 6   8117523.98525        40.000
  20475212.136   -19847359.435 9  -3664404.19229        92.000
  23759619.887     -348339.559 7   -112893.00625        52.000
 96  6 11 15 32 45.0000000  0  6G 2G26G27G19G 7G15
  21372233.381    -1388549.188 9    527926.08328        90.000
  23167417.810   -23970047.091 8  -2895020.63226        64.000
  21192336.441    18717255.125 9   3883406.39129        86.000
  23901710.300    28007807.794 6   8158317.34325        40.000
  20474385.848   -19851694.898 9  -3667782.47629        92.000
  23762939.339     -330882.342 7    -99289.98025        52.000
 96  6 11 15 33  0.0000000  0  6G 2G26G27G19G 7G15
  21373838.050    -1380139.693 9    534478.94028        92.000
  23167429.412   -23969998.817 8  -2894983.01027        66.000
  21199214.939    18753391.475 9   3911564.57629        86.000
  23911685.175    28060198.472 6   8199141.20825        40.000
  20473581.325   -19855931.949 9  -3671084.07629        90.000
  23766283.105     -313296.250 7    -85586.52625        48.000
 96  6 11 15 33 15.0000000  0  6G 2G26G27G19G 7G15
  21375439.721    -1371701.908 9    541053.84328        92.000
  23167465.597   -23969839.531 8  -2894858.89927        64.000
  21206108.846    18789624.990 9   3939798.46729        84.000
  23921664.306    28112628.033 6   8239995.28125        40.000
  20472790.382   -19860067.791 9  -3674306.81529        92.000
  23769653.102     -295580.594 7    -71782.13825        50.000
 96  6 11 15 33 30.0000000  0  6G 2G26G27G19G 7G15
  21377052.095    -1363238.949 9    547648.32428        94.000
  23167514.583   -23969568.184 8  -2894647.47826        64.000
  21213022.840    18825956.458 9   3968108.68229        84.000
  23931651.922    28165095.671 6   8280879.18925        40.000
  20472026.061   -19864100.896 9  -3677449.49129        92.000
  23773053.857     -277735.343 7    -57876.76225        50.000
 96  6 11 15 33 45.0000000  0  6G 2G26G27G19G 7G15
  21378664.499    -1354753.078 9    554260.69628        94.000
  23167585.934   -23969185.670 7  -2894349.45326        62.000
  21219953.562    18862384.686 9   3996494.29729        84.000
  23941638.039    28217598.444 6   8321790.41825        40.000
  20471277.569   -19868034.546 9  -3680514.66429        92.000
  23776478.147     -259762.517 7    -43871.96325        52.000
 96  6 11 15 34  0.0000000  0  6G 2G26G27G19G 7G15
  21380286.795    -1346242.474 9    560892.32828        96.000
  23167680.009   -23968691.538 7  -2893964.43426        58.000
  21226904.280    18898912.017 9   4024957.14229        84.000
  23951632.220    28270138.803 6   8362730.96625        40.000
  20470548.294   -19871868.411 9  -3683502.08929        92.000
  23779921.743     -241660.785 7    -29766.74825        48.000
 96  6 11 15 34 15.0000000  0  6G 2G26G27G19G 7G15
  21381912.270    -1337708.319 9    567542.31828        96.000
  23167799.086   -23968084.575 8  -2893491.45626        64.000
  21233873.405    18935537.520 8   4053496.47429        82.000
  23961638.093    28322714.655 6   8403699.12925        38.000
  20469836.527   -19875603.469 9  -3686412.51929        92.000
  23783388.483     -223430.952 7    -15561.73425        52.000
 96  6 11 15 34 30.0000000  0  6G 2G26G27G19G 7G15
  21383539.454    -1329148.688 9    574212.16128        96.000
  23167936.991   -23967363.567 8  -2892929.64826        66.000
  21240859.469    18972261.760 8   4082112.74929        80.000
  23971653.500    28375321.715 6   8444691.53925        40.000
  20469141.638   -19879237.653 9  -3689244.34929        90.000
  23786885.022     -205072.316 7     -1256.28625        52.000
 96  6 11 15 34 45.0000000  0  6G 2G26G27G19G 7G15
  21385173.053    -1320564.303 9    580901.29228        96.000
  23168094.352   -23966526.787 7  -2892277.63726        62.000
  21247867.238    19009085.602 8   4110806.65329        82.000
  23981662.191    28427959.170 6   8485707.67125        40.000
  20468471.692   -19882772.147 9  -3691998.50429        90.000
  23790401.708     -186584.844 7     13149.54825        52.000
 96  6 11 15 35  0.0000000  0  6G 2G26G27G19G 7G15
  21386812.648    -1311955.337 9    587609.58328        98.000
  23168273.718   -23965571.290 7  -2891533.10226        60.000
  21254895.212    19046009.666 8   4139578.62329        82.000
  23991694.955    28480627.115 6   8526747.63725        38.000
  20467818.594   -19886205.632 9  -3694673.94929        92.000
  23793943.216     -167968.945 7     27655.43525        48.000
 96  6 11 15 35 15.0000000  0  6G 2G26G27G19G 7G15
  21388453.022    -1303322.170 9    594336.71328        94.000
  23168480.335   -23964496.829 7  -2890695.87326        60.000
  21261943.573    19083036.702 8   4168430.84929        80.000
  24001714.379    28533324.737 6   8567810.73025        36.000
  20467185.492   -19889535.288 9  -3697268.47929        90.000
  23797510.266     -149225.242 7     42260.89425        50.000
 96  6 11 15 35 30.0000000  0  6G 2G26G27G19G 7G15
  21390101.071    -1294666.538 9    601081.34928        92.000
  23168712.104   -23963302.114 8  -2889764.92826        64.000
  21269008.152    19120166.188 8   4197362.89829        80.000
  24011751.101    28586052.289 6   8608897.11125        36.000
  20466571.278   -19892759.989 9  -3699781.22529        90.000
  23801102.590     -130353.619 7     56966.05125        52.000
 96  6 11 15 35 45.0000000  0  6G 2G26G27G19G 7G15
  21391750.979    -1285987.160 9    607844.51528        90.000
  23168954.846   -23961986.066 8  -2888739.45826        64.000
  21276093.117    19157396.477 8   4226373.50329        80.000
  24021798.885    28638810.419 6   8650007.23225        36.000
  20465975.350   -19895880.007 9  -3702212.41629        88.000
  23804712.810     -111354.161 7     71770.82925        48.000
 96  6 11 15 36  0.0000000  0  6G 2G26G27G19G 7G15
  21393408.591    -1277280.651 9    614628.79228        94.000
  23169229.786   -23960550.108 7  -2887620.53426        62.000
  21283195.021    19194727.596 8   4255462.67629        80.000
  24031843.671    28691600.550 6   8691142.31525        36.000
  20465405.894   -19898893.009 9  -3704560.20529        92.000
  23808357.357      -92226.643 7     86675.35625        50.000
 96  6 11 15 36 15.0000000  0  6G 2G26G27G19G 7G15
  21395076.547    -1268546.925 9    621434.28128        92.000
  23169528.050   -23958995.391 8  -2886409.06826        64.000
  21290317.850    19232158.874 8   4284629.88929        80.000
  24041890.855    28744422.690 6   8732302.39525        36.000
  20464848.610   -19901797.965 9  -3706823.81429        90.000
  23812017.164      -72971.130 7    101679.64025        48.000
 96  6 11 15 36 30.0000000  0  6G 2G26G27G19G 7G15
  21396737.757    -1259784.406 9    628262.23228        92.000
  23169850.386   -23957318.911 8  -2885102.75126        64.000
  21297460.435    19269692.335 8   4313876.72629        78.000
  24051950.001    28797276.632 6   8773487.29425        34.000
  20464318.487   -19904595.309 9  -3709003.56229        92.000
  23815707.249      -53587.663 7    116783.60225        46.000
 96  6 11 15 36 45.0000000  0  6G 2G26G27G19G 7G15
  21398410.299    -1250995.014 9    635111.10828        94.000
  23170188.312   -23955521.569 8  -2883702.21426        68.000
  21304625.535    19307329.516 8   4343204.39429        82.000
  24062006.120    28850165.186 6   8814699.13125        34.000
  20463805.812   -19907287.327 9  -3711101.23429        90.000
  23819420.089      -34076.837 7    131986.86125        46.000
 96  6 11 15 37  0.0000000  0  6G 2G26G27G19G 7G15
  21400088.657    -1242178.305 9    641981.26928        90.000
  23170552.710   -23953604.677 8  -2882208.55826        66.000
  21311803.585    19345071.674 8   4372613.85329        82.000
  24072081.755    28903091.328 6   8855940.25925        32.000
  20463315.232   -19909874.183 9  -3713116.96129        88.000
  23823154.933      -14439.355 7    147288.80525        46.000
 96  6 11 15 37 15.0000000  0  6G 2G26G27G19G 7G15
  21401770.792    -1233332.331 9    648874.21728        94.000
  23170935.605   -23951569.612 7  -2880622.78626        60.000
  21319009.607    19382920.004 8   4402106.03029        82.000
  24082158.918    28956053.525 6   8897209.37525        30.000
  20462845.787   -19912356.534 9  -3715051.27029        92.000
  23826919.697        5325.240 7    162689.78225        46.000
 96  6 11 15 37 30.0000000  0  6G 2G26G27G19G 7G15
  21403462.551    -1224456.911 9    655790.12528        92.000
  23171348.239   -23949418.020 8  -2878946.22126        66.000
  21326229.748    19420873.644 8   4431680.28729        82.000
  24092246.395    29009051.135 6   8938506.16425        32.000
  20462387.134   -19914737.164 9  -3716906.29629        92.000
  23830704.037       25217.076 7    178189.87325        48.000
 96  6 11 15 37 45.0000000  0  6G 2G26G27G19G 7G15
  21405156.259    -1215550.609 9    662730.08228        94.000
  23171776.373   -23947151.229 7  -2877179.90526        60.000
  21333475.612    19458931.864 8   4461336.03929        82.000
  24102349.131    29062083.229 6   8979829.87425        34.000
  20461957.382   -19917018.483 9  -3718683.94229        94.000
  23834518.776       45236.493 7    193789.45225        48.000
 96  6 11 15 38  0.0000000  0  6G 2G26G27G19G 7G15
  21406858.960    -1206611.727 9    669695.45128        94.000
  23172232.028   -23944770.559 8  -2875324.86126        64.000
  21340731.579    19497095.295 8   4491073.76129        82.000
  24112440.595    29115147.124 6   9021178.35225        34.000
  20461541.839   -19919202.454 9  -3720385.74429        90.000
  23838349.884       65383.196 7    209488.12225        46.000
 96  6 11 15 38 15.0000000  0  6G 2G26G27G19G 7G15
  21408561.541    -1197639.609 9    676686.72428        92.000
  23172706.509   -23942274.435 8  -2873379.86326        64.000
  21348016.955    19535363.899 8   4520893.44429        82.000
  24122535.986    29168243.195 6   9062551.89925        36.000
  20461143.775   -19921291.741 9  -3722013.76629        88.000
  23842209.202       85657.870 7    225286.56125        42.000
 96  6 11 15 38 30.0000000  0  6G 2G26G27G19G 7G15
  21410278.333    -1188634.576 9    683703.61728        92.000
  23173200.897   -23939660.776 8  -2871343.23726        64.000
  21355320.949    19573735.556 9   4550793.41929        84.000
  24132651.643    29221371.495 6   9103950.48625        34.000
  20460764.657   -19923288.765 9  -3723569.87029        94.000
  23846088.247      106060.434 7    241184.67425        46.000
 96  6 11 15 38 45.0000000  0  6G 2G26G27G19G 7G15
  21412000.610    -1179597.421 9    690745.53828        94.000
  23173720.257   -23936931.102 8  -2869216.21226        66.000
  21362638.793    19612207.765 8   4580771.74729        82.000
  24142769.279    29274532.022 6   9145374.16325        36.000
  20460397.861   -19925194.707 9  -3725055.03429        90.000
  23850002.157      126590.314 7    257181.97525        46.000
 96  6 11 15 39  0.0000000  0  6G 2G26G27G19G 7G15
  21413724.237    -1170530.021 9    697811.05628        92.000
  23174260.034   -23934088.151 7  -2867000.93626        60.000
  21369979.391    19650776.434 8   4610825.23029        82.000
  24152887.454    29327725.254 6   9186823.44525        36.000
  20460051.031   -19927007.155 9  -3726467.31529        90.000
  23853922.243      147247.343 7    273278.36125        44.000
 96  6 11 15 39 15.0000000  0  6G 2G26G27G19G 7G15
  21415456.408    -1161431.843 9    704900.54028        92.000
  23174827.121   -23931132.757 8  -2864698.05326        66.000
  21377336.238    19689438.071 9   4640951.17329        84.000
  24163008.957    29380946.282 6   9228294.40125        36.000
  20459730.104   -19928724.983 9  -3727805.88229        90.000
  23857885.080      168030.488 7    289473.02125        46.000
 96  6 11 15 39 30.0000000  0  6G 2G26G27G19G 7G15
  21417196.284    -1152303.295 9    712013.68528        92.000
  23175412.736   -23928063.517 8  -2862306.47226        64.000
  21384708.764    19728189.490 9   4671147.06529        84.000
  24173149.107    29434194.219 6   9269786.28525        36.000
  20459419.609   -19930347.975 9  -3729070.53929        90.000
  23861859.099      188940.456 7    305766.49625        44.000
 96  6 11 15 39 45.0000000  0  6G 2G26G27G19G 7G15
  21418931.992    -1143146.392 9    719148.94028        92.000
  23176021.764   -23924878.946 8  -2859825.00626        66.000
  21392107.072    19767028.376 9   4701411.12429        86.000
  24183289.467    29487470.784 6   9311300.52325        38.000
  20459127.491   -19931874.316 9  -3730259.90129        90.000
  23865855.812      209977.288 7    322158.80125        42.000
 96  6 11 15 40  0.0000000  0  6G 2G26G27G19G 7G15
  21420681.821    -1133963.185 9    726304.69628        90.000
  23176651.508   -23921576.326 8  -2857251.55026        70.000
  21399508.648    19805953.030 9   4731742.03129        84.000
  24193429.347    29540777.164 6   9352837.91324        34.000
  20458855.669   -19933304.164 9  -3731374.07029        92.000
  23869888.980      231139.430 7    338648.76825        44.000
 96  6 11 15 40 15.0000000  0  6G 2G26G27G19G 7G15
  21422434.317    -1124754.303 9    733480.41828        94.000
  23177296.841   -23918153.511 7  -2854584.43026        62.000
  21406930.101    19844964.560 9   4762140.61129        84.000
  24203578.311    29594118.142 6   9394402.17024        36.000
  20458602.644   -19934635.291 9  -3732411.31229        90.000
  23873945.412      252427.106 6    355236.58625        40.000
 96  6 11 15 40 30.0000000  0  6G 2G26G27G19G 7G15
  21424186.844    -1115520.813 9    740675.34228        90.000
  23177970.865   -23914609.455 7  -2851822.82826        62.000
  21414373.648    19884064.517 9   4792608.09229        86.000
  24213732.552    29647494.756 6   9435994.31624        36.000
  20458369.166   -19935862.551 9  -3733367.60729        90.000
  23878013.026      273840.335 6    371922.18625        40.000
 96  6 11 15 40 45.0000000  0  6G 2G26G27G19G 7G15
  21425957.059    -1106265.423 9    747887.34128        94.000
  23178671.779   -23910946.019 8  -2848968.21726        64.000
  21421830.745    19923254.579 9   4823145.77429        84.000
  24223905.020    29700905.328 6   9477612.97424        34.000
  20458154.754   -19936981.671 9  -3734239.65929        90.000
  23882111.518      295378.956 7    388705.51725        42.000
 96  6 11 15 41  0.0000000  0  6G 2G26G27G19G 7G15
  21427714.592    -1096989.874 9    755115.03628        92.000
  23179394.129   -23907164.552 8  -2846021.63426        68.000
  21429305.650    19962537.299 9   4853755.67729        84.000
  24234072.301    29754346.260 6   9519255.22924        36.000
  20457963.307   -19937988.801 9  -3735024.43329        88.000
  23886237.082      317042.548 7    405586.23725        44.000
 96  6 11 15 41 15.0000000  0  5G 2G26G27G 7G15
  21429486.006    -1087694.059 9    762358.52428        92.000
  23180133.478   -23903263.375 8  -2842981.79926        68.000
  21436801.631    20001915.715 9   4884440.13729        84.000
  20457796.502   -19938883.412 9  -3735721.52129        88.000
  23890384.441      338830.445 7    422563.80325        44.000
 96  6 11 15 41 30.0000000  0  5G 2G26G27G 7G15
  21431259.698    -1078378.077 9    769617.73428        92.000
  23180896.599   -23899242.840 7  -2839848.92026        62.000
  21444312.421    20041391.872 9   4915200.75829        84.000
  20457644.597   -19939668.147 9  -3736333.00529        88.000
  23894554.614      360743.314 7    439638.74325        44.000
 96  6 11 15 41 45.0000000  0  5G 2G26G27G 7G15
  21433038.876    -1069044.900 9    776890.33128        94.000
  23181685.623   -23895104.568 8  -2836624.28326        64.000
  21451839.431    20080966.693 8   4946038.28629        82.000
  20457520.124   -19940344.399 9  -3736859.95729        90.000
  23898742.925      382780.225 6    456810.35325        40.000
 96  6 11 15 42  0.0000000  0  6G 2G26G27G 7G15G 4
  21434817.275    -1059693.421 9    784177.19228        92.000
  23182492.604   -23890850.211 8  -2833309.19726        68.000
  21459391.143    20120644.881 8   4976956.33429        82.000
  20457408.781   -19940911.701 9  -3737302.01729        88.000
  23902964.872      404941.284 6    474078.70525        40.000
  24320594.353     7919132.932 6  -2973984.34223        38.000
 96  6 11 15 42 15.0000000  0  6G 2G26G27G 7G15G 4
  21436599.931    -1050321.835 9    791479.71528        92.000
  23183322.190   -23886484.147 8  -2829907.08826        64.000
  21466963.900    20160427.037 8   5007955.39529        82.000
  20457320.072   -19941369.281 9  -3737658.56029        88.000
  23907203.637      427226.452 6    491443.78025        40.000
  24311252.520     7869998.659 6  -3012270.72724        38.000
 96  6 11 15 42 30.0000000  0  6G 2G26G27G 7G15G 4
  21438382.706    -1040931.443 9    798796.90728        90.000
  23184176.748   -23882012.274 8  -2826422.52726        66.000
  21474554.825    20200309.449 9   5039032.58929        84.000
  20457251.479   -19941718.392 9  -3737930.59729        88.000
  23911466.416      449634.169 6    508904.32725        40.000
  24301894.528     7820848.195 6  -3050569.71824        38.000
 96  6 11 15 42 45.0000000  0  6G 2G26G27G 7G15G 4
  21440178.283    -1031523.021 9    806128.13128        92.000
  23185045.637   -23877434.490 8  -2822855.44626        66.000
  21482157.862    20240290.257 8   5070186.45729        82.000
  20457211.637   -19941959.041 9  -3738118.11529        90.000
  23915753.119      472165.248 6    526460.99825        40.000
  24292538.725     7771683.392 6  -3088879.92224        38.000
 96  6 11 15 43  0.0000000  0  6G 2G26G27G 7G15G 4
  21441967.745    -1022094.898 9    813474.72728        90.000
  23185937.759   -23872751.710 8  -2819206.53326        68.000
  21489789.528    20280365.799 8   5101414.12629        82.000
  20457184.236   -19942097.047 9  -3738225.63929        88.000
  23920076.276      494819.258 7    544113.43125        44.000
  24283176.027     7722503.027 6  -3127202.26224        38.000
 96  6 11 15 43 15.0000000  0  6G 2G26G27G 7G15G 4
  21443766.799    -1012645.102 9    820838.20128        90.000
  23186849.758   -23867961.299 8  -2815473.76026        72.000
  21497430.219    20320533.607 8   5132713.71729        80.000
  20457175.992   -19942133.991 9  -3738254.43929        86.000
  23924399.043      517596.478 7    561861.91725        44.000
  24273818.065     7673304.281 6  -3165538.95924        38.000
 96  6 11 15 43 30.0000000  0  6G 2G26G27G 7G15G 4
  21445570.980    -1003172.943 9    828219.10828        94.000
  23187781.603   -23863065.391 8  -2811658.80026        68.000
  21505087.548    20360788.253 8   5164080.94929        78.000
  20457189.452   -19942076.175 9  -3738209.38329        88.000
  23928758.685      540495.360 6    579705.20126        40.000
  24264451.020     7624084.844 6  -3203891.71424        40.000
 96  6 11 15 43 45.0000000  0  6G 2G26G27G 7G15G 4
  21447373.542     -993676.935 9    835618.57928        90.000
  23188732.035   -23858061.973 7  -2807760.05026        62.000
  21512768.021    20401127.938 8   5195514.46029        80.000
  20457217.093   -19941923.168 9  -3738090.14629        88.000
  23933142.400      563517.286 7    597644.36026        42.000
  24255076.210     7574847.431 6  -3242258.53124        38.000
 96  6 11 15 44  0.0000000  0  6G 2G26G27G 7G15G 4
  21449191.004     -984155.809 9    843037.62928        92.000
  23189708.099   -23852950.719 8  -2803777.26926        64.000
  21520464.442    20441554.350 8   5227015.55129        80.000
  20457262.902   -19941675.472 9  -3737897.15329        88.000
  23937543.444      586661.251 6    615678.61426        40.000
  24245709.644     7525595.110 6  -3280636.91724        38.000
 96  6 11 15 44 15.0000000  0  6G 2G26G27G 7G15G 4
  21451007.027     -974606.811 9    850478.41428        92.000
  23190700.652   -23847729.749 8  -2799708.98126        72.000
  21528166.980    20482065.239 8   5258582.45729        78.000
  20457328.556   -19941331.677 9  -3737629.25229        88.000
  23941975.875      609927.967 7    633808.51126        44.000
  24236331.417     7476330.509 6  -3319024.87624        36.000
 96  6 11 15 44 30.0000000  0  6G 2G26G27G 7G15G 4
  21452826.947     -965027.885 9    857942.49828        90.000
  23191712.392   -23842394.305 8  -2795551.52026        70.000
  21535895.600    20522658.783 8   5290213.78629        80.000
  20457410.489   -19940892.189 9  -3737286.78829        88.000
  23946415.681      633318.242 7    652034.72326        42.000
  24226962.333     7427053.954 6  -3357422.12724        38.000
 96  6 11 15 44 45.0000000  0  6G 2G26G27G 7G15G 4
  21454659.488     -955417.495 9    865431.11028        92.000
  23192747.755   -23836941.672 8  -2791302.71726        66.000
  21543639.029    20563337.084 9   5321911.14229        84.000
  20457515.087   -19940359.077 9  -3736871.37729        90.000
  23950895.090      656832.380 7    670357.39325        42.000
  24217574.062     7377768.029 6  -3395826.70624        36.000
 96  6 11 15 45  0.0000000  0  6G 2G26G27G 7G15G 4
  21456493.619     -945773.541 9    872945.89128        90.000
  23193808.840   -23831370.513 7  -2786961.56826        62.000
  21551392.591    20604104.892 8   5353678.23629        80.000
  20457633.925   -19939735.169 9  -3736385.21229        88.000
  23955397.613      680471.034 7    688777.10025        44.000
  24208195.985     7328474.034 6  -3434237.59924        34.000
 96  6 11 15 45 15.0000000  0  6G 2G26G27G 7G15G 4
  21458336.143     -936094.708 9    880487.82628        90.000
  23194894.389   -23825681.316 8  -2782528.44626        70.000
  21559167.079    20644964.090 8   5385516.55929        80.000
  20457767.782   -19939022.643 9  -3735829.99729        86.000
  23959913.477      704233.189 7    707293.05525        44.000
  24198817.517     7279171.476 6  -3472655.14824        36.000
 96  6 11 15 45 30.0000000  0  6G 2G26G27G 7G15G 4
  21460183.104     -926381.774 9    888056.34728        90.000
  23195997.595   -23819875.448 8  -2778004.40826        64.000
  21566961.773    20685918.714 8   5417429.24729        80.000
  20457920.946   -19938222.335 9  -3735206.37229        86.000
  23964456.562      728119.268 7    725905.57525        42.000
  24189431.945     7229865.224 6  -3511075.53924        34.000
 96  6 11 15 45 45.0000000  0  6G 2G26G27G 7G15G 4
  21462042.057     -916635.604 9    895650.76428        90.000
  23197127.873   -23813954.821 8  -2773390.96226        64.000
  21574767.229    20726969.478 8   5449416.83829        78.000
  20458091.318   -19937334.628 9  -3734514.65129        90.000
  23969029.416      752128.860 7    744614.35825        44.000
  24180043.464     7180558.480 6  -3549496.34125        36.000
 96  6 11 15 46  0.0000000  0  6G 2G26G27G 7G15G 4
  21463895.344     -906857.584 9    903269.98928        90.000
  23198277.067   -23807920.422 8  -2768688.83326        70.000
  21582600.866    20768116.335 8   5481479.31729        80.000
  20458277.879   -19936356.924 9  -3733752.80729        90.000
  23973622.746      776260.864 7    763418.51125        44.000
  24170668.654     7131249.308 6  -3587919.03125        38.000
 96  6 11 15 46 15.0000000  0  6G 2G26G27G 7G15G 4
  21465766.349     -897045.440 9    910915.82028        90.000
  23199444.669   -23801771.585 8  -2763897.52826        66.000
  21590450.062    20809358.233 8   5513615.82629        80.000
  20458479.010   -19935285.223 9  -3732917.70329        90.000
  23978241.439      800517.103 7    782319.46325        44.000
  24161284.641     7081938.976 6  -3626342.60225        40.000
 96  6 11 15 46 30.0000000  0  6G 2G26G27G 7G15G 4
  21467642.960     -887200.619 9    918587.10728        92.000
  23200639.372   -23795509.335 8  -2759017.88926        70.000
  21598318.175    20850693.576 8   5545825.18129        80.000
  20458702.445   -19934119.672 9  -3732009.47529        88.000
  23982876.560      824897.075 7    801316.81925        46.000
  24151899.458     7032625.137 6  -3664768.97225        38.000
 96  6 11 15 46 45.0000000  0  6G 2G26G27G 7G15G 4
  21469519.571     -877326.141 9    926281.50328        90.000
  23201848.644   -23789132.585 8  -2754049.01526        68.000
  21606197.201    20892126.063 8   5578110.22629        78.000
  20458942.729   -19932861.651 9  -3731029.20129        88.000
  23987537.643      849400.783 7    820410.59625        46.000
  24142510.378     6983307.824 6  -3703198.01225        40.000
 96  6 11 15 47  0.0000000  0  6G 2G26G27G 7G15G 4
  21471402.567     -867425.004 9    933996.66428        90.000
  23203087.837   -23782641.136 7  -2748990.76126        62.000
  21614103.148    20933654.614 8   5610470.12829        80.000
  20459198.901   -19931511.286 9  -3729976.97629        90.000
  23992230.415      874027.816 7    839600.52925        52.000
  24133127.054     6933985.520 6  -3741630.93125        36.000
 96  6 11 15 47 15.0000000  0  6G 2G26G27G 7G15G 4
  21473292.039     -857498.451 9    941731.63328        88.000
  23204344.626   -23776032.442 8  -2743841.12426        66.000
  21622024.414    20975276.622 8   5642902.83829        80.000
  20459472.372   -19930065.557 9  -3728850.42729        88.000
  23996939.285      898777.922 7    858886.32225        54.000
  24123740.072     6884655.049 6  -3780070.24225        40.000
 96  6 11 15 47 30.0000000  0  6G 2G26G27G 7G15G 4
  21475185.409     -847549.440 9    949484.10328        90.000
  23205623.271   -23769308.201 8  -2738601.45826        68.000
  21629961.929    21016986.312 8   5675403.87729        80.000
  20459767.458   -19928520.657 9  -3727646.61129        88.000
  24001676.785      923650.787 7    878267.80525        52.000
  24114348.594     6835315.222 6  -3818516.81025        38.000
 96  6 11 15 47 45.0000000  0  6G 2G26G27G 7G15G 4
  21477081.806     -837577.612 9    957254.34528        88.000
  23206924.071   -23762466.312 8  -2733270.12326        66.000
  21637912.095    21058782.940 8   5707972.66929        80.000
  20460079.062   -19926870.608 9  -3726360.84629        88.000
  24006426.397      948647.433 7    897745.73325        50.000
  24104957.385     6785964.865 7  -3856971.59325        44.000
 96  6 11 15 48  0.0000000  0  6G 2G26G27G 7G15G 4
  21478984.528     -827582.168 9    965043.00428        88.000
  23208248.314   -23755503.520 8  -2727844.57126        66.000
  21645884.326    21100666.188 8   5740608.93929        78.000
  20460414.170   -19925110.901 9  -3724989.64629        86.000
  24011208.266      973768.404 7    917320.53825        46.000
  24095567.226     6736603.410 7  -3895435.05525        44.000
 96  6 11 15 48 15.0000000  0  6G 2G26G27G 7G15G 4
  21480888.840     -817563.037 9    972850.13228        88.000
  23209593.962   -23748421.785 8  -2722326.35126        66.000
  21653871.876    21142638.573 8   5773314.68029        80.000
  20460772.092   -19923243.662 9  -3723534.65029        88.000
  24016011.751      999013.359 7    936991.87125        46.000
  24086173.349     6687231.218 7  -3933906.87125        42.000
 96  6 11 15 48 30.0000000  0  6G 2G26G27G 7G15G 4
  21482802.685     -807523.359 9    980673.26128        88.000
  23210968.391   -23741222.228 8  -2716716.32226        64.000
  21661874.776    21184703.317 8   5806092.40329        80.000
  20461144.584   -19921272.254 9  -3721998.47729        86.000
  24020839.939     1024381.725 7    956759.37425        50.000
  24076774.346     6637849.647 7  -3972386.00225        42.000
 96  6 11 15 48 45.0000000  0  6G 2G26G27G 7G15G 4
  21484714.192     -797464.528 9    988511.29628        88.000
  23212359.608   -23733905.281 8  -2711014.81826        64.000
  21669901.869    21226861.004 8   5838942.52629        80.000
  20461539.291   -19919201.591 9  -3720384.98029        88.000
  24025691.030     1049871.661 7    976621.66725        50.000
  24067374.413     6588456.840 7  -4010873.85025        44.000
 96  6 11 15 49  0.0000000  0  6G 2G26G27G 7G15G 4
  21486633.583     -787382.086 9    996367.72728        86.000
  23213776.547   -23726469.457 8  -2705220.66326        66.000
  21677936.517    21269110.151 8   5871863.92129        80.000
  20461952.855   -19917030.761 9  -3718693.41829        88.000
  24030563.287     1075484.002 7    996579.34725        50.000
  24057971.903     6539054.385 7  -4049369.23925        44.000
 96  6 11 15 49 15.0000000  0  6G 2G26G27G 7G15G 4
  21488555.283     -777272.918 9   1004244.99528        90.000
  23215210.754   -23718920.030 8  -2699338.00926        70.000
  21685996.467    21311447.561 8   5904854.10429        82.000
  20462387.824   -19914758.902 9  -3716923.13329        88.000
  24035467.652     1101217.820 7   1016631.68325        50.000
  24048569.032     6489642.377 7  -4087872.10625        42.000
 96  6 11 15 49 30.0000000  0  6G 2G26G27G 7G15G 4
  21490483.518     -767135.290 9   1012144.45628        90.000
  23216672.602   -23711260.909 8  -2693369.85526        66.000
  21694069.009    21353875.635 8   5937914.91729        80.000
  20462836.433   -19912386.094 9  -3715074.18729        86.000
  24040380.681     1127073.109 7   1036778.67425        50.000
  24039159.356     6440223.770 6  -4126380.09225        40.000
 96  6 11 15 49 45.0000000  0  6G 2G26G27G 7G15G 4
  21492417.719     -756969.099 9   1020066.15528        88.000
  23218147.011   -23703493.641 8  -2687317.44026        64.000
  21702159.987    21396397.886 8   5971049.13529        80.000
  20463308.906   -19909914.352 9  -3713148.15329        86.000
  24045322.759     1153049.123 7   1057019.73225        54.000
  24029756.905     6390800.884 6  -4164891.41025        40.000
 96  6 11 15 50  0.0000000  0  6G 2G26G27G 7G15G 4
  21494363.582     -746772.706 9   1028011.39328        92.000
  23219646.273   -23695617.092 8  -2681179.90826        66.000
  21710270.213    21439017.563 8   6004259.24729        80.000
  20463797.178   -19907348.888 9  -3711149.07929        86.000
  24050287.712     1179145.325 7   1077354.48725        52.000
  24020359.101     6341376.011 7  -4203404.26725        42.000
 96  6 11 15 50 15.0000000  0  6G 2G26G27G 7G15G 4
  21496304.978     -736545.785 9   1035980.42928        88.000
  23221166.581   -23687634.546 8  -2674959.76526        70.000
  21718400.015    21481735.035 8   6037545.56829        78.000
  20464298.941   -19904695.368 9  -3709081.41329        86.000
  24055284.953     1205361.538 7   1097782.67525        50.000
  24010957.490     6291947.763 6  -4241919.75925        40.000
 96  6 11 15 50 30.0000000  0  6G 2G26G27G 7G15G 4
  21498264.421     -726286.767 9   1043974.45528        92.000
  23222700.529   -23679546.314 7  -2668657.25426        60.000
  21726548.344    21524549.485 8   6070907.47229        80.000
  20464822.738   -19901953.872 9  -3706945.18629        88.000
  24060292.926     1231697.412 7   1118304.10125        48.000
  24001536.452     6242515.148 6  -4280438.63225        38.000
 96  6 11 15 50 45.0000000  0  6G 2G26G27G 7G15G 4
  21500217.689     -715993.607 9   1051995.09528        92.000
  23224263.137   -23671348.501 8  -2662269.35126        70.000
  21734710.493    21567455.371 8   6104340.61929        78.000
  20465358.017   -19899122.694 9  -3704739.05729        84.000
  24065327.011     1258152.601 7   1138918.52225        42.000
  23992133.941     6193078.971 6  -4318960.32625        40.000
 96  6 11 15 51  0.0000000  0  6G 2G26G27G 7G15G 4
  21502186.696     -705663.020 9   1060044.89528        92.000
  23225843.913   -23663043.445 8  -2655797.88926        66.000
  21742897.825    21610450.718 8   6137843.46329        82.000
  20465912.933   -19896200.875 9  -3702462.33429        84.000
  24070378.993     1284726.614 7   1159625.52825        44.000
  23982722.497     6143640.192 6  -4357484.04425        38.000
 96  6 11 15 51 15.0000000  0  6G 2G26G27G 7G15G 4
  21504157.621     -695296.547 9   1068122.66728        94.000
  23227444.295   -23654636.331 8  -2649246.91526        64.000
  21751094.541    21653535.706 8   6171416.17129        80.000
  20466488.295   -19893186.689 9  -3700113.60429        86.000
  24075465.932     1311419.002 7   1180424.81225        48.000
  23973322.924     6094200.537 6  -4396008.39325        38.000
 96  6 11 15 51 30.0000000  0  6G 2G26G27G 7G15G 4
  21506134.363     -684898.129 9   1076225.32628        90.000
  23229062.455   -23646127.473 8  -2642616.64926        66.000
  21759309.274    21696712.282 8   6205060.24429        78.000
  20467081.614   -19890080.629 9  -3697693.29829        86.000
  24080560.275     1338229.335 7   1201316.00225        46.000
  23963915.107     6044760.454 7  -4434533.12925        42.000
 96  6 11 15 51 45.0000000  0  6G 2G26G27G 7G15G 4
  21508121.717     -674467.693 9   1084352.95428        92.000
  23230703.489   -23637513.003 8  -2635904.11026        66.000
  21767541.365    21739981.129 8   6238776.21829        80.000
  20467688.184   -19886882.669 9  -3695201.38029        86.000
  24085690.054     1365158.374 7   1222299.67725        46.000
  23954503.302     5995321.840 6  -4473056.67725        40.000
 96  6 11 15 52  0.0000000  0  6G 2G26G27G 7G15G 4
  21510109.521     -664004.713 9   1092505.91728        90.000
  23232355.405   -23628793.970 7  -2629110.07226        62.000
  21775793.812    21783339.839 8   6272562.19229        80.000
  20468315.800   -19883591.900 9  -3692637.15929        84.000
  24090836.171     1392205.529 7   1243375.34924        44.000
  23945097.824     5945884.255 7  -4511579.43525        42.000
 96  6 11 15 52 15.0000000  0  6G 2G26G27G 7G15G 4
  21512105.989     -653509.090 9   1100684.32528        92.000
  23234043.746   -23619971.005 8  -2622235.04626        66.000
  21784059.899    21826782.562 8   6306413.65229        80.000
  20468959.964   -19880207.018 9  -3689999.57729        86.000
  24096006.782     1419370.008 7   1264542.44224        42.000
  23935692.675     5896446.074 6  -4550102.67125        40.000
 96  6 11 15 52 30.0000000  0  6G 2G26G27G 7G15G 4
  21514112.620     -642980.892 9   1108888.10728        92.000
  23235736.284   -23611045.967 7  -2615280.48626        62.000
  21792344.544    21870305.560 8   6340327.66728        80.000
  20469622.745   -19876726.470 9  -3687287.45729        86.000
  24101198.408     1446649.810 7   1285799.44724        42.000
  23926283.449     5847007.187 6  -4588626.43425        40.000
 96  6 11 15 52 45.0000000  0  6G 2G26G27G 7G15G 4
  21516120.450     -632420.473 9   1117117.00028        90.000
  23237460.691   -23602017.644 8  -2608245.43426        64.000
  21800639.681    21913907.025 8   6374302.81828        78.000
  20470302.494   -19873147.398 9  -3684498.56629        88.000
  24106407.751     1474044.610 6   1307146.01425        38.000
  23916871.255     5797572.937 7  -4627146.62525        42.000
 96  6 11 15 53  0.0000000  0  6G 2G26G27G 7G15G 4
  21518138.832     -621829.614 9   1125369.61928        90.000
  23239194.660   -23592887.659 7  -2601131.20226        62.000
  21808952.087    21957587.654 8   6408339.65228        82.000
  20471002.540   -19869471.409 9  -3681634.17629        86.000
  24111639.190     1501555.192 6   1328582.84425        36.000
  23907465.926     5748144.255 7  -4665662.48425        44.000
 96  6 11 15 53 15.0000000  0  6G 2G26G27G 7G15G 4
  21520160.963     -611210.728 9   1133644.07028        92.000
  23240949.915   -23583657.905 7  -2593939.20526        62.000
  21817281.820    22001349.168 8   6442439.52628        82.000
  20471723.691   -19865699.180 9  -3678694.76729        86.000
  24116904.025     1529180.800 6   1350109.30425        38.000
  23898060.267     5698718.061 7  -4704176.37825        44.000
 96  6 11 15 53 30.0000000  0  6G 2G26G27G 7G15G 4
  21522182.253     -600565.281 9   1141939.23728        88.000
  23242721.868   -23574320.591 7  -2586663.39226        60.000
  21825622.406    22045192.000 8   6476602.74828        80.000
  20472457.043   -19861828.227 9  -3675678.43829        88.000
  24122178.243     1556922.474 6   1371726.18525        34.000
  23888655.478     5649293.956 7  -4742688.62025        44.000
 96  6 11 15 53 45.0000000  0  6G 2G26G27G 7G15G 4
  21524217.394     -589892.078 9   1150256.01828        92.000
  23244525.150   -23564871.447 7  -2579300.43026        60.000
  21833980.560    22089115.868 8   6510829.13328        80.000
  20473212.700   -19857861.443 9  -3672587.44229        88.000
  24127483.731     1584779.503 6   1393432.92225        34.000
  23879253.687     5599869.660 7  -4781201.03425        46.000
 96  6 11 15 54  0.0000000  0  6G 2G26G27G 7G15G 4
  21526252.625     -579190.373 9   1158594.99528        90.000
  23246348.788   -23555309.469 7  -2571849.55326        62.000
  21842355.322    22133120.269 8   6545118.26528        82.000
  20473983.256   -19853798.143 9  -3669421.23029        84.000
  24132799.021     1612752.195 6   1415229.80525        34.000
  23869849.557     5550444.721 7  -4819713.96025        48.000
 96  6 11 15 54 15.0000000  0  6G 2G26G27G 7G15G 4
  21528296.460     -568459.180 9   1166956.95728        90.000
  23248186.875   -23545632.198 8  -2564308.83026        64.000
  21850743.635    22177205.333 8   6579470.25028        80.000
  20474776.987   -19849638.483 9  -3666179.92629        88.000
  24138141.922     1640841.592 6   1437117.62325        34.000
  23860447.766     5501020.852 7  -4858226.05625        46.000
 96  6 11 15 54 30.0000000  0  6G 2G26G27G 7G15G 4
  21530343.084     -557700.430 9   1175340.40428        90.000
  23250049.366   -23535838.599 7  -2556677.47626        60.000
  21859148.856    22221370.296 8   6613884.49528        82.000
  20475583.099   -19845386.102 9  -3662866.38529        90.000
  24143515.582     1669046.743 6   1459095.67625        34.000
  23851043.636     5451596.974 7  -4896738.13625        48.000
 96  6 11 15 54 45.0000000  0  6G 2G26G27G 7G15G 4
  21532394.503     -546917.729 9   1183742.49828        88.000
  23251939.497   -23525929.503 8  -2548956.11426        70.000
  21867563.911    22265615.534 8   6648361.28728        80.000
  20476410.166   -19841042.923 9  -3659482.08729        86.000
  24148903.542     1697366.733 6   1481163.22725        36.000
  23841630.003     5402173.471 7  -4935249.91725        46.000
 96  6 11 15 55  0.0000000  0  6G 2G26G27G 7G15G 4
  21534450.720     -536115.750 9   1192159.61728        88.000
  23253840.991   -23515906.429 7  -2541145.96326        62.000
  21876002.888    22309939.728 8   6682899.61028        80.000
  20477256.840   -19836613.238 9  -3656030.38229        86.000
  24154311.858     1725799.658 6   1503318.76025        34.000
  23832229.561     5352745.786 7  -4973764.96625        48.000
 96  6 11 15 55 15.0000000  0  6G 2G26G27G 7G15G 4
  21536510.534     -525292.488 9   1200593.34828        88.000
  23255771.834   -23505766.899 8  -2533245.01326        66.000
  21884450.740    22354344.710 8   6717500.88228        80.000
  20478116.345   -19832097.026 9  -3652511.26129        86.000
  24159750.902     1754346.145 6   1525562.75125        32.000
  23822823.003     5303312.571 7  -5012284.33225        46.000
 96  6 11 15 55 30.0000000  0  6G 2G26G27G 7G15G 4
  21538573.436     -514447.231 9   1209044.18128        90.000
  23257726.511   -23495508.746 8  -2525251.64126        64.000
  21892920.956    22398830.470 8   6752165.07528        82.000
  20478991.199   -19827493.069 9  -3648923.75729        86.000
  24165202.688     1783005.966 6   1547895.06025        34.000
  23813407.451     5253876.285 7  -5050806.09025        46.000
 96  6 11 15 55 45.0000000  0  6G 2G26G27G 7G15G 4
  21540637.117     -503580.953 9   1217511.40128        88.000
  23259696.537   -23485135.894 8  -2517168.93626        66.000
  21901398.218    22443396.053 8   6786891.49528        80.000
  20479885.360   -19822804.438 9  -3645270.27229        86.000
  24170668.474     1811777.175 6   1570314.14025        32.000
  23803998.045     5204438.683 7  -5089328.86725        46.000
 96  6 11 15 56  0.0000000  0  6G 2G26G27G 7G15G 4
  21542712.401     -492690.041 9   1225997.82428        90.000
  23261694.084   -23474652.540 8  -2509000.09226        64.000
  21909896.135    22488041.377 8   6821680.03728        80.000
  20480795.440   -19818028.953 9  -3641549.11329        88.000
  24176174.073     1840662.023 6   1592821.83225        34.000
  23794594.335     5155003.094 7  -5127850.06625        48.000
 96  6 11 15 56 15.0000000  0  6G 2G26G27G 7G15G 4
  21544786.904     -481774.981 9   1234503.05328        86.000
  23263707.940   -23464062.404 8  -2500748.05926        64.000
  21918403.045    22532763.420 8   6856528.36228        80.000
  20481716.523   -19813164.707 9  -3637758.80129        88.000
  24181686.507     1869659.346 6   1615417.15525        34.000
  23785188.976     5105570.690 7  -5166368.80125        46.000
 96  6 11 15 56 30.0000000  0  6G 2G26G27G 7G15G 4
  21546871.781     -470833.814 9   1243028.63028        88.000
  23265739.214   -23453367.356 7  -2492414.28326        62.000
  21926929.113    22577562.093 8   6891436.39628        78.000
  20482659.370   -19808211.999 9  -3633899.54429        88.000
  24187229.070     1898769.035 6   1638100.05125        34.000
  23775787.245     5056142.239 7  -5204884.44625        48.000
 96  6 11 15 56 45.0000000  0  6G 2G26G27G 7G15G 4
  21548960.645     -459866.447 9   1251574.64028        86.000
  23267795.790   -23442570.122 8  -2484000.84426        64.000
  21935469.540    22622440.199 8   6926406.34328        78.000
  20483617.657   -19803169.072 9  -3629969.98529        86.000
  24192791.779     1927991.443 6   1660870.79925        36.000
  23766379.758     5006719.156 7  -5243395.91225        48.000
 96  6 11 15 57  0.0000000  0  6G 2G26G27G 7G15G 4
  21551048.250     -448873.767 9   1260140.35228        86.000
  23269874.611   -23431671.711 8  -2475508.59126        66.000
  21944025.707    22667398.492 8   6961438.75328        78.000
  20484595.430   -19798034.164 9  -3625968.76729        86.000
  24198370.946     1957325.576 6   1683728.53825        38.000
  23756977.667     4957300.575 7  -5281903.84425        46.000
 96  6 11 15 57 15.0000000  0  5G 2G26G27G 7G 4
  21553143.199     -437852.869 9   1268728.06128        86.000
  23271969.261   -23420672.481 8  -2466937.79126        66.000
  21952594.585    22712439.761 8   6996535.82028        80.000
  20485589.961   -19792807.117 9  -3621895.73129        86.000
  23747576.535     4907886.990 7  -5320407.90625        48.000
 96  6 11 15 57 30.0000000  0  5G 2G26G27G 7G 4
  21555247.982     -426803.421 9   1277338.00228        86.000
  23274079.230   -23409575.016 8  -2458290.43026        64.000
  21961180.101    22757564.806 8   7031698.18328        80.000
  20486603.200   -19787489.282 9  -3617751.95329        86.000
  23738175.133     4858481.254 7  -5358905.84125        46.000
 96  6 11 15 57 45.0000000  0  5G 2G26G27G 7G 4
  21557355.913     -415723.731 9   1285971.51728        88.000
  23276210.695   -23398380.191 7  -2449567.20826        60.000
  21969786.273    22802775.340 8   7066927.15528        80.000
  20487630.319   -19782078.938 9  -3613536.10429        86.000
  23728766.507     4809084.476 7  -5397396.81425        44.000
 96  6 11 15 58  0.0000000  0  5G 2G26G27G 7G 4
  21559470.439     -404614.506 9   1294628.05728        86.000
  23278356.849   -23387091.399 8  -2440770.75626        66.000
  21978406.236    22848069.446 8   7102221.24428        80.000
  20488678.723   -19776577.401 9  -3609249.18829        86.000
  23719368.853     4759694.110 7  -5435882.77925        44.000
 96  6 11 15 58 15.0000000  0  5G 2G26G27G 7G 4
  21561589.552     -393474.749 9   1303308.38128        84.000
  23280516.164   -23375706.055 8  -2431899.07726        64.000
  21987042.597    22893448.789 8   7137581.75228        80.000
  20489744.275   -19770983.507 9  -3604890.31429        88.000
  23709971.888     4710310.635 7  -5474363.41325        48.000
 96  6 11 15 58 30.0000000  0  5G 2G26G27G 7G 4
  21563722.575     -382305.505 9   1312011.68228        90.000
  23282706.927   -23364221.062 7  -2422949.74226        62.000
  21995694.308    22938916.513 8   7173011.11828        78.000
  20490821.579   -19765300.916 9  -3600462.31529        86.000
  23700573.215     4660935.127 7  -5512837.82425        44.000
 96  6 11 15 58 45.0000000  0  5G 2G26G27G 7G 4
  21565850.712     -371107.895 9   1320737.08728        90.000
  23284910.972   -23352633.741 8  -2413920.68526        64.000
  22004365.355    22984476.062 8   7208512.04328        78.000
  20491923.107   -19759530.182 9  -3595965.63429        84.000
  23691188.182     4611568.526 7  -5551305.26125        52.000
 96  6 11 15 59  0.0000000  0  5G 2G26G27G 7G 4
  21567985.444     -359882.749 9   1329483.93928        88.000
  23287137.770   -23340940.556 8  -2404809.13326        66.000
  22013050.912    23030127.888 8   7244084.87828        78.000
  20493037.166   -19753670.152 9  -3591399.38229        88.000
  23681791.607     4562210.540 7  -5589765.99825        48.000
 96  6 11 15 59 15.0000000  0  5G 2G26G27G 7G 4
  21570127.312     -348632.132 9   1338250.64128        88.000
  23289381.177   -23329143.124 8  -2395616.35326        68.000
  22021752.238    23075869.066 8   7279727.34628        78.000
  20494169.002   -19747723.228 9  -3586765.41329        86.000
  23672391.315     4512858.437 7  -5628222.14125        46.000
 96  6 11 15 59 30.0000000  0  5G 2G26G27G 7G 4
  21572273.376     -337353.882 9   1347038.87828        86.000
  23291650.756   -23317240.512 8  -2386341.60626        64.000
  22030476.798    23121699.364 8   7315439.25328        80.000
  20495318.077   -19741689.970 9  -3582064.16729        88.000
  23663008.950     4463515.128 7  -5666671.44725        48.000
 96  6 11 15 59 45.0000000  0  5G 2G26G27G 7G 4
  21574424.237     -326049.495 9   1355847.49028        86.000
  23293934.844   -23305233.443 8  -2376985.45326        68.000
  22039210.982    23167614.140 8   7351216.99128        76.000
  20496483.220   -19735570.386 9  -3577295.65929        88.000
  23653620.619     4414177.914 7  -5705115.99625        50.000
 96  6 11 16  0  0.0000000  0  5G 2G26G27G 7G 4
  21576579.265     -314718.280 9   1364677.00728        84.000
  23296242.227   -23293120.753 8  -2367546.99426        68.000
  22047966.960    23213610.090 8   7387057.96928        78.000
  20497665.541   -19729362.641 9  -3572458.45429        88.000
  23644239.394     4364845.251 7  -5743557.01025        50.000
 96  6 11 16  0 15.0000000  0  5G 2G26G27G 7G 4
  21578736.512     -303361.102 9   1373526.74528        84.000
  23298560.462   -23280901.274 8  -2358025.36426        64.000
  22056731.602    23259682.961 8   7422958.89128        78.000
  20498861.563   -19723066.723 9  -3567552.54429        88.000
  23634845.247     4315518.486 7  -5781993.43025        52.000
 96  6 11 16  0 30.0000000  0  5G 2G26G27G 7G 4
  21580904.671     -291977.602 9   1382396.99328        84.000
  23300909.306   -23268574.001 8  -2348419.72226        66.000
  22065518.310    23305832.176 8   7458919.28828        80.000
  20500074.314   -19716682.100 9  -3562577.51229        88.000
  23625460.634     4266198.656 7  -5820424.42725        50.000
 96  6 11 16  0 45.0000000  0  5G 2G26G27G 7G 4
  21583078.166     -280568.620 9   1391287.09828        86.000
  23303275.778   -23256139.666 8  -2338730.64726        64.000
  22074310.803    23352054.648 8   7494936.77928        78.000
  20501307.240   -19710208.637 9  -3557533.25229        88.000
  23616078.809     4216883.686 7  -5858851.64925        50.000
 96  6 11 16  1  0.0000000  0  5G 2G26G27G 7G 4
  21585252.441     -269133.629 9   1400197.46028        86.000
  23305661.406   -23243601.000 7  -2328960.25626        62.000
  22083119.035    23398343.998 8   7531006.38628        74.000
  20502557.855   -19703644.939 9  -3552418.68529        88.000
  23606693.716     4167573.885 7  -5897274.83825        54.000
 96  6 11 16  1 15.0000000  0  5G 2G26G27G 7G 4
  21587435.679     -257670.336 9   1409129.87828        88.000
  23308066.162   -23230958.735 7  -2319109.14226        62.000
  22091941.027    23444699.390 8   7567127.46828        76.000
  20503825.257   -19696989.322 9  -3547232.47929        90.000
  23597312.490     4118272.060 7  -5935691.80825        48.000
 96  6 11 16  1 30.0000000  0  5G 2G26G27G 7G 4
  21589622.935     -246176.140 9   1418086.42028        86.000
  23310494.630   -23218216.114 8  -2309179.83426        66.000
  22100773.543    23491118.212 8   7603297.95028        76.000
  20505110.377   -19690242.544 9  -3541975.25229        88.000
  23587935.342     4068981.600 7  -5974099.92825        50.000
 96  6 11 16  1 45.0000000  0  5G 2G26G27G 7G 4
  21591815.137     -234646.942 9   1427070.20528        86.000
  23312936.680   -23205370.385 8  -2299170.20526        64.000
  22109618.530    23537601.594 8   7639518.74428        74.000
  20506410.517   -19683403.665 9  -3536646.26829        88.000
  23578555.736     4019704.540 7  -6012497.63025        48.000
 96  6 11 16  2  0.0000000  0  5G 2G26G27G 7G 4
  21594016.304     -223083.636 9   1436080.55728        86.000
  23315399.865   -23192423.342 7  -2289081.63926        62.000
  22118478.536    23584147.671 8   7675788.40428        76.000
  20507728.585   -19676470.850 9  -3531244.07229        88.000
  23569180.776     3970439.631 7  -6050885.84725        54.000
 96  6 11 16  2 15.0000000  0  5G 2G26G27G 7G 4
  21596219.658     -211490.152 9   1445114.43228        86.000
  23317879.448   -23179377.766 7  -2278916.26126        62.000
  22127347.356    23630756.745 8   7712107.13328        78.000
  20509068.627   -19669446.856 9  -3525770.82429        90.000
  23559811.932     3921188.594 7  -6089263.24225        50.000
 96  6 11 16  2 30.0000000  0  5G 2G26G27G 7G 4
  21598434.585     -199866.529 9   1454171.79028        86.000
  23320380.047   -23166232.970 7  -2268673.56626        62.000
  22136227.778    23677432.477 8   7748477.82328        74.000
  20510420.301   -19662334.095 9  -3520228.42529        92.000
  23550443.058     3871953.227 7  -6127628.42825        56.000
 96  6 11 16  2 45.0000000  0  5G 2G26G27G 7G 4
  21600656.287     -188211.693 9   1463253.47828        86.000
  23322907.027   -23152989.377 8  -2258353.88426        64.000
  22145123.100    23724179.434 8   7784904.00028        74.000
  20511788.135   -19655133.209 9  -3514617.34929        92.000
  23541074.453     3822733.461 7  -6165981.44825        50.000
 96  6 11 16  3  0.0000000  0  5G 2G26G27G 7G 4
  21602878.858     -176523.949 9   1472360.77328        86.000
  23325441.983   -23139646.742 7  -2247957.01226        62.000
  22154028.705    23770998.142 8   7821386.10428        72.000
  20513175.304   -19647844.743 9  -3508938.02129        90.000
  23531711.095     3773532.143 7  -6204320.09025        54.000
 96  6 11 16  3 15.0000000  0  5G 2G26G27G 7G 4
  21605108.684     -164803.080 9   1481493.92928        88.000
  23327999.422   -23126208.886 7  -2237485.99326        62.000
  22162956.435    23817890.866 8   7857925.86928        74.000
  20514580.282   -19640470.212 9  -3503191.63129        92.000
  23522348.907     3724348.896 7  -6242644.68325        50.000
 96  6 11 16  3 30.0000000  0  5G 2G26G27G 7G 4
  21607346.545     -153047.284 9   1490654.29828        86.000
  23330577.847   -23112674.336 7  -2226939.63126        60.000
  22171892.648    23864864.572 8   7894528.73728        74.000
  20516000.788   -19633010.206 9  -3497378.64529        92.000
  23512996.281     3675183.018 7  -6280955.70725        52.000
 96  6 11 16  3 45.0000000  0  5G 2G26G27G 7G 4
  21609586.295     -141258.634 9   1499840.25228        86.000
  23333171.142   -23099042.642 8  -2216317.53026        64.000
  22180849.158    23911919.569 8   7931194.95628        74.000
  20517435.025   -19625466.651 9  -3491500.54829        90.000
  23503643.626     3626032.937 7  -6319254.46225        52.000
 96  6 11 16  4  0.0000000  0  5G 2G26G27G 7G 4
  21611837.466     -129440.992 9   1509048.79028        86.000
  23335786.531   -23085312.791 8  -2205618.96326        66.000
  22189822.486    23959057.756 8   7967925.97528        74.000
  20518885.871   -19617838.390 9  -3485556.43729        90.000
  23494294.418     3576896.095 7  -6357542.89025        52.000
 96  6 11 16  4 15.0000000  0  5G 2G26G27G 7G 4
  21614091.096     -117595.818 9   1518278.78728        84.000
  23338414.542   -23071487.032 8  -2194845.64426        64.000
  22198805.856    24006279.935 8   8004722.46928        74.000
  20520354.464   -19610125.422 9  -3479546.34729        92.000
  23484946.200     3527775.313 7  -6395818.79926        52.000
 96  6 11 16  4 30.0000000  0  5G 2G26G27G 7G 4
  21616346.645     -105720.394 8   1527532.36728        82.000
  23341063.928   -23057564.242 7  -2183996.73626        60.000
  22207810.243    24053587.259 8   8041585.30028        74.000
  20521838.707   -19602332.146 9  -3473473.67229        94.000
  23475596.273     3478671.759 7  -6434081.26826        50.000
 96  6 11 16  4 45.0000000  0  5G 2G26G27G 7G 4
  21618612.776      -93812.214 8   1536811.45428        82.000
  23343731.481   -23043542.472 8  -2173070.67726        64.000
  22216827.460    24100980.627 8   8078515.18428        74.000
  20523336.020   -19594456.224 9  -3467336.58329        94.000
  23466256.299     3429585.593 7  -6472330.21026        52.000
 96  6 11 16  5  0.0000000  0  5G 2G26G27G 7G 4
  21620890.809      -81872.909 9   1546114.81528        84.000
  23346419.840   -23029423.680 8  -2162069.06526        64.000
  22225860.777    24148456.284 8   8115509.19028        74.000
  20524850.182   -19586498.115 9  -3461135.46129        92.000
  23456926.338     3380515.767 7  -6510566.40526        56.000
 96  6 11 16  5 15.0000000  0  5G 2G26G27G 7G 4
  21623164.405      -69904.480 8   1555440.85028        82.000
  23349125.677   -23015208.310 7  -2150992.14926        62.000
  22234907.884    24196011.084 8   8152564.85528        70.000
  20526382.421   -19578459.772 9  -3454871.82929        94.000
  23447591.130     3331462.807 7  -6548789.45826        56.000
 96  6 11 16  5 30.0000000  0  5G 2G26G27G 7G 4
  21625450.862      -57909.088 8   1564787.89628        82.000
  23351851.120   -23000893.124 8  -2139837.46526        64.000
  22243979.334    24243646.399 8   8189683.27928        74.000
  20527923.954   -19570340.266 9  -3448544.93929        94.000
  23438253.555     3282426.358 7  -6586999.64326        54.000
 96  6 11 16  5 45.0000000  0  6G 2G26G27G 7G 9G 4
  21627736.390      -45886.947 9   1574155.79128        84.000
  23354596.589   -22986473.413 7  -2128601.33426        60.000
  22253053.482    24291360.186 8   8226862.83228        74.000
  20529485.393   -19562137.882 9  -3442153.48529        94.000
  24177593.320    -3326195.649 6   -164278.20821        40.000
  23428928.600     3233409.773 7  -6625194.37126        56.000
 96  6 11 16  6  0.0000000  0  6G 2G26G27G 7G 9G 4
  21630028.693      -33837.832 9   1583544.70228        84.000
  23357358.217   -22971950.098 7  -2117284.45926        60.000
  22262146.936    24339151.186 8   8264102.54628        74.000
  20531061.792   -19553852.478 9  -3435697.32829        94.000
  24168688.345    -3373007.700 6   -200755.08521        40.000
  23419604.635     3184412.440 7  -6663374.08426        54.000
 96  6 11 16  6 15.0000000  0  6G 2G26G27G 7G 9G 4
  21632327.501      -21759.026 8   1592956.76228        82.000
  23360145.388   -22957323.170 7  -2105886.87926        60.000
  22271260.357    24387018.241 8   8301401.54728        74.000
  20532656.628   -19545483.737 9  -3429176.22629        96.000
  24159783.520    -3419802.836 7   -237218.77721        42.000
  23410288.524     3135436.155 7  -6701537.38826        56.000
 96  6 11 16  6 30.0000000  0  6G 2G26G27G 7G 9G 4
  21634635.424       -9648.200 9   1602393.75728        84.000
  23362941.822   -22942592.304 8  -2094408.32326        64.000
  22280381.423    24434960.063 8   8338758.80428        72.000
  20534264.175   -19537035.437 9  -3422593.13729        96.000
  24150876.956    -3466581.214 6   -273669.46422        40.000
  23400967.078     3086482.162 7  -6739683.33526        54.000
 96  6 11 16  6 45.0000000  0  6G 2G26G27G 7G 9G 4
  21636942.297        2493.470 8   1611854.79328        82.000
  23365764.878   -22927755.172 7  -2082846.94426        60.000
  22289520.566    24482973.976 8   8376172.21528        74.000
  20535885.482   -19528506.535 9  -3415947.24429        96.000
  24141983.193    -3513339.714 7   -310104.67223        42.000
  23391654.624     3037547.631 7  -6777814.08726        54.000
 96  6 11 16  7  0.0000000  0  6G 2G26G27G 7G 9G 4
  21639257.504       14661.947 8   1621336.71928        82.000
  23368611.947   -22912815.606 8  -2071205.71226        66.000
  22298667.744    24531055.665 8   8413638.43728        72.000
  20537525.977   -19519898.192 9  -3409239.44029        98.000
  24133086.912    -3560079.478 7   -346525.26423        42.000
  23382348.647     2988629.815 7  -6815931.82326        54.000
 96  6 11 16  7 15.0000000  0  6G 2G26G27G 7G 9G 4
  21641576.698       26860.407 8   1630842.00028        82.000
  23371473.705   -22897775.585 8  -2059486.25326        66.000
  22307828.352    24579204.753 8   8451157.20528        70.000
  20539175.585   -19511212.453 9  -3402471.33229        96.000
  24124198.125    -3606796.193 7   -382927.90724        44.000
  23373041.770     2939729.163 7  -6854036.22626        54.000
 96  6 11 16  7 30.0000000  0  6G 2G26G27G 7G 9G 4
  21643907.704       39089.901 9   1640371.47928        84.000
  23374350.094   -22882635.219 7  -2047688.54726        62.000
  22317009.616    24627423.098 8   8488729.91728        72.000
  20540844.469   -19502448.850 9  -3395642.55129        98.000
  24115312.037    -3653487.095 7   -419310.39724        44.000
  23363737.321     2890846.575 7  -6892126.51926        54.000
 96  6 11 16  7 45.0000000  0  6G 2G26G27G 7G 9G 4
  21646243.567       51353.395 9   1649927.44828        84.000
  23377253.044   -22867396.224 7  -2035814.01526        62.000
  22326195.526    24675710.188 8   8526356.20528        72.000
  20542527.204   -19493604.198 9  -3388750.61729       100.000
  24106438.600    -3700153.291 7   -455673.63025        44.000
  23354439.588     2841980.750 7  -6930203.77526        54.000
 96  6 11 16  8  0.0000000  0  6G 2G26G27G 7G 9G 4
  21648580.090       63652.761 8   1659511.35828        82.000
  23380171.194   -22852063.921 7  -2023866.79626        62.000
  22335396.607    24724062.921 8   8564033.65328        72.000
  20544227.657   -19484678.948 9  -3381795.88329       100.000
  24097555.989    -3746795.076 7   -492017.90024        44.000
  23345146.411     2793130.424 7  -6968268.93626        56.000
 96  6 11 16  8 15.0000000  0  6G 2G26G27G 7G 9G 4
  21650934.150       75988.163 9   1669123.35728        84.000
  23383103.554   -22836637.461 8  -2011846.19326        64.000
  22344607.700    24772480.037 8   8601761.24228        72.000
  20545941.001   -19475672.100 9  -3374777.56329       100.000
  24088684.441    -3793412.769 7   -528343.43824        44.000
  23335854.914     2744297.685 7  -7006320.38326        56.000
 96  6 11 16  8 30.0000000  0  6G 2G26G27G 7G 9G 4
  21653282.814       88360.770 9   1678764.35528        84.000
  23386058.848   -22821116.362 8  -1999751.88126        64.000
  22353833.693    24820961.142 8   8639538.71528        70.000
  20547671.043   -19466582.932 9  -3367695.09629       102.000
  24079821.466    -3840008.963 7   -564652.14524        42.000
  23326566.144     2695484.618 7  -7044356.50626        58.000
 96  6 11 16  8 45.0000000  0  6G 2G26G27G 7G 9G 4
  21655645.838      100769.526 9   1688433.50028        84.000
  23389032.010   -22805502.247 7  -1987585.01326        62.000
  22363075.875    24869505.801 8   8677365.70328        72.000
  20549415.116   -19457409.684 9  -3360547.12329       102.000
  24070957.023    -3886582.503 6   -600943.17825        40.000
  23317275.786     2646691.335 7  -7082377.21026        58.000
 96  6 11 16  9  0.0000000  0  6G 2G26G27G 7G 9G 4
  21658011.950      113212.729 9   1698129.49428        84.000
  23392020.941   -22789795.996 7  -1975346.34826        62.000
  22372325.072    24918112.686 8   8715241.18128        72.000
  20551178.255   -19448151.165 9  -3353332.68429       102.000
  24062098.096    -3933134.795 6   -637217.63125        38.000
  23308001.376     2597918.170 7  -7120382.24326        60.000
 96  6 11 16  9 15.0000000  0  6G 2G26G27G 7G 9G 4
  21660382.979      125689.693 8   1707851.79728        82.000
  23395026.420   -22774001.033 8  -1963038.59426        64.000
  22381582.873    24966785.111 8   8753167.71627        70.000
  20552954.286   -19438808.770 9  -3346052.89729       100.000
  24053240.608    -3979666.731 6   -673476.31325        36.000
  23298724.269     2549167.576 7  -7158369.70226        60.000
 96  6 11 16  9 30.0000000  0  6G 2G26G27G 7G 9G 4
  21662763.451      138199.002 8   1717599.30728        82.000
  23398049.827   -22758116.448 7  -1950661.02926        62.000
  22390858.841    25015523.548 8   8791145.71127        70.000
  20554749.803   -19429381.004 9  -3338706.59729       102.000
  24044395.861    -4026178.968 6   -709719.56325        36.000
  23289451.328     2500442.793 7  -7196337.04826        60.000
 96  6 11 16  9 45.0000000  0  6G 2G26G27G 7G 9G 4
  21665152.257      150739.642 8   1727371.22828        82.000
  23401087.324   -22742140.580 8  -1938212.32326        64.000
  22400151.058    25064326.526 8   8829173.98927        72.000
  20556563.427   -19419865.274 9  -3331291.74129       102.000
  24035546.497    -4072672.995 6   -745948.66325        38.000
  23280184.024     2451745.802 7  -7234282.71226        58.000
 96  6 11 16 10  0.0000000  0  6G 2G26G27G 7G 9G 4
  21667546.909      163308.807 9   1737165.38528        84.000
  23404146.796   -22726074.891 7  -1925693.62126        60.000
  22409444.295    25113192.078 8   8867251.03327        70.000
  20558389.193   -19410264.717 9  -3323810.78329       104.000
  24026702.530    -4119149.817 6   -782164.33525        40.000
  23270921.546     2403077.141 7  -7272206.29926        58.000
 96  6 11 16 10 15.0000000  0  6G 2G26G27G 7G 9G 4
  21669941.502      175906.870 8   1746982.05828        82.000
  23407220.239   -22709916.742 8  -1913102.86626        64.000
  22418755.998    25162122.706 8   8905378.77927        72.000
  20560232.078   -19400581.286 9  -3316265.25129       104.000
  24017857.603    -4165605.726 6   -818363.70425        40.000
  23261662.936     2354442.163 7  -7310103.66326        56.000
 96  6 11 16 10 30.0000000  0  6G 2G26G27G 7G 9G 4
  21672344.578      188534.127 9   1756821.46128        84.000
  23410315.236   -22693662.799 8  -1900437.44026        64.000
  22428081.492    25211121.946 8   8943559.98927        72.000
  20562086.564   -19390815.147 9  -3308655.27729       100.000
  24009027.606    -4212039.041 6   -854545.51125        40.000
  23252419.285     2305843.671 7  -7347972.58426        58.000
 96  6 11 16 10 45.0000000  0  6G 2G26G27G 7G 9G 4
  21674755.089      201188.606 9   1766682.09228        86.000
  23413423.814   -22677316.902 7  -1887700.39426        60.000
  22437417.689    25260190.642 8   8981795.31827        72.000
  20563960.536   -19380969.575 9  -3300983.39729       102.000
  24000192.602    -4258449.479 6   -890709.48325        40.000
  23243178.482     2257278.606 7  -7385815.48326        58.000
 96  6 11 16 11  0.0000000  0  6G 2G26G27G 7G 9G 4
  21677167.339      213869.498 8   1776563.30728        82.000
  23416552.748   -22660876.319 7  -1874889.57326        60.000
  22446765.937    25309329.582 8   9020085.37827        68.000
  20565848.569   -19371042.840 9  -3293248.28029       102.000
  23991363.415    -4304835.324 6   -926854.29025        38.000
  23233944.305     2208749.991 7  -7423629.96426        60.000
 96  6 11 16 11 15.0000000  0  6G 2G26G27G 7G 9G 4
  21679583.277      226575.418 9   1786464.00828        84.000
  23419695.952   -22644340.436 7  -1862004.49026        62.000
  22456134.002    25358539.391 8   9058430.66927        70.000
  20567753.780   -19361036.348 9  -3285451.02529       102.000
  23982545.679    -4351199.538 6   -962982.23125        38.000
  23224709.768     2160257.411 7  -7461416.37226        58.000
 96  6 11 16 11 30.0000000  0  6G 2G26G27G 7G 9G 4
  21682009.677      239309.002 9   1796386.28328        86.000
  23422866.647   -22627709.243 7  -1849045.13026        62.000
  22465509.322    25407820.433 8   9096831.45927        70.000
  20569675.720   -19350947.413 9  -3277589.50729       102.000
  23973725.155    -4397543.481 6   -999094.36525        38.000
  23215490.550     2111800.797 7  -7499174.75726        60.000
 96  6 11 16 11 45.0000000  0  6G 2G26G27G 7G 9G 4
  21684436.557      252072.265 9   1806331.68128        84.000
  23426049.573   -22610979.606 8  -1836009.05326        64.000
  22474901.819    25457169.761 8   9135285.45727        68.000
  20571608.482   -19340774.832 9  -3269662.81429       102.000
  23964909.818    -4443867.090 6  -1035190.64725        40.000
  23206279.127     2063377.871 7  -7536906.85726        62.000
 96  6 11 16 12  0.0000000  0  6G 2G26G27G 7G 9G 4
  21686871.231      264865.325 9   1816300.31028        84.000
  23429249.978   -22594151.453 7  -1822896.21226        62.000
  22484307.208    25506587.397 8   9173792.70427        68.000
  20573561.690   -19330519.118 9  -3261671.35029       102.000
  23956100.417    -4490170.776 7  -1071271.40525        42.000
  23197072.861     2014984.387 7  -7574616.02226        60.000
 96  6 11 16 12 15.0000000  0  6G 2G26G27G 7G 9G 4
  21689308.394      277686.370 9   1826290.72128        84.000
  23432465.971   -22577225.576 7  -1809707.21526        60.000
  22493725.548    25556072.792 8   9212352.72227        70.000
  20575529.947   -19320183.965 9  -3253617.99329       104.000
  23947293.953    -4536454.857 6  -1107336.91025        40.000
  23187870.581     1966617.741 7  -7612304.28726        62.000
 96  6 11 16 12 30.0000000  0  6G 2G26G27G 7G 9G 4
  21691755.150      290535.969 9   1836303.38928        84.000
  23435712.334   -22560199.625 7  -1796440.24426        58.000
  22503153.361    25605626.263 8   9250965.79127        70.000
  20577513.704   -19309766.923 9  -3245500.81429       104.000
  23938490.578    -4582718.426 6  -1143386.39425        40.000
  23178666.983     1918276.079 7  -7649973.06726        60.000
 96  6 11 16 12 45.0000000  0  6G 2G26G27G 7G 9G 4
  21694211.770      303414.916 9   1846338.91228        88.000
  23438969.639   -22543074.234 7  -1783095.80026        62.000
  22512589.629    25655248.144 8   9289632.18727        66.000
  20579512.630   -19299265.631 9  -3237317.97929       104.000
  23929684.624    -4628959.884 7  -1179418.65925        42.000
  23169471.569     1869957.541 7  -7687623.84326        60.000
 96  6 11 16 13  0.0000000  0  6G 2G26G27G 7G 9G 4
  21696668.269      316324.460 9   1856398.29528        84.000
  23442244.152   -22525851.433 7  -1769675.47126        58.000
  22522049.220    25704935.848 8   9328349.84727        68.000
  20581522.558   -19288681.013 9  -3229070.22629       104.000
  23920892.880    -4675179.567 7  -1215433.98125        46.000
  23160278.403     1821660.813 7  -7725257.62126        58.000
 96  6 11 16 13 15.0000000  0  6G 2G26G27G 7G 9G 4
  21699127.467      329267.439 9   1866483.72928        84.000
  23445541.659   -22508529.484 7  -1756177.84226        56.000
  22531515.496    25754688.370 8   9367118.03927        66.000
  20583553.053   -19278013.060 9  -3220757.54229       104.000
  23912105.304    -4721373.955 7  -1251429.57425        50.000
  23151095.550     1773387.608 7  -7762873.08626        58.000
 96  6 11 16 13 30.0000000  0  6G 2G26G27G 7G 9G 4
  21701598.896      342245.019 9   1876596.14128        84.000
  23448856.674   -22491113.108 7  -1742606.62826        60.000
  22541001.889    25804505.034 8   9405936.19727        68.000
  20585600.036   -19267263.134 9  -3212380.96829       104.000
  23903319.556    -4767540.414 7  -1287403.43425        52.000
  23141916.475     1725136.469 7  -7800471.36326        58.000
 96  6 11 16 13 45.0000000  0  6G 2G26G27G 7G 9G 4
  21704070.894      355258.835 9   1886736.76228        84.000
  23452194.504   -22473600.552 7  -1728960.49626        62.000
  22550486.243    25854386.402 8   9444804.79227        66.000
  20587662.398   -19256434.457 9  -3203943.04329       104.000
  23894537.076    -4813672.961 7  -1323350.87025        50.000
  23132735.660     1676907.567 7  -7838052.27426        58.000
 96  6 11 16 14  0.0000000  0  6G 2G26G27G 7G 9G 4
  21706552.966      368307.122 9   1896904.25128        84.000
  23455538.509   -22455992.687 7  -1715240.10926        56.000
  22559991.523    25904332.433 8   9483723.74727        66.000
  20589734.533   -19245532.140 9  -3195447.73429       106.000
  23885766.228    -4859767.315 7  -1359268.54425        48.000
  23123562.521     1628702.871 7  -7875614.35526        60.000
 96  6 11 16 14 15.0000000  0  6G 2G26G27G 7G 9G 4
  21709043.432      381390.332 8   1907098.95928        82.000
  23458909.855   -22438292.229 7  -1701447.54326        58.000
  22569506.846    25954344.547 8   9522694.20127        66.000
  20591822.738   -19234556.138 9  -3186894.99429       104.000
  23877001.766    -4905822.210 7  -1395155.47125        44.000
  23114396.426     1580525.415 7  -7913155.20026        62.000
 96  6 11 16 14 30.0000000  0  6G 2G26G27G 7G 9G 4
  21711539.294      394511.694 8   1917323.38428        82.000
  23462291.963   -22420500.655 7  -1687583.99026        54.000
  22579040.306    26004423.500 8   9561716.73227        66.000
  20593928.270   -19223504.642 9  -3178283.43829       106.000
  23868246.777    -4951836.248 7  -1431010.50325        46.000
  23105232.730     1532378.702 7  -7950672.08226        60.000
 96  6 11 16 14 45.0000000  0  6G 2G26G27G 7G 9G 4
  21714047.628      407672.126 8   1927578.26528        82.000
  23465700.693   -22402622.744 7  -1673653.16126        60.000
  22588583.179    26054566.425 8   9600789.12827        68.000
  20596043.456   -19212376.946 9  -3169612.51429       104.000
  23859500.212    -4997811.427 7  -1466835.31425        50.000
  23096075.540     1484261.821 7  -7988165.73226        60.000
 96  6 11 16 15  0.0000000  0  6G 2G26G27G 7G 9G 4
  21716561.837      420872.444 9   1937864.23828        84.000
  23469115.419   -22384661.856 7  -1659657.66026        58.000
  22598133.758    26104771.295 8   9639909.80327        66.000
  20598174.231   -19201175.661 9  -3160884.22629       102.000
  23850758.863    -5043749.972 7  -1502631.56225        52.000
  23086931.210     1436176.223 7  -8025634.99326        62.000
 96  6 11 16 15 15.0000000  0  6G 2G26G27G 7G 9G 4
  21719075.747      434113.204 8   1948181.71628        82.000
  23472549.872   -22366617.785 7  -1645597.36626        60.000
  22607702.114    26155038.567 8   9679079.09427        64.000
  20600321.044   -19189900.161 9  -3152098.12329       104.000
  23842018.834    -5089651.769 7  -1538399.17825        50.000
  23077779.895     1388123.574 7  -8063078.59326        62.000
 96  6 11 16 15 30.0000000  0  6G 2G26G27G 7G 9G 4
  21721605.515      447393.258 9   1958529.78828        84.000
  23475999.014   -22348490.948 7  -1631472.56726        56.000
  22617280.423    26205369.353 8   9718297.85927        64.000
  20602480.779   -19178549.477 9  -3143253.43129       104.000
  23833294.663    -5135518.274 7  -1574139.30025        48.000
  23068642.881     1340103.627 7  -8100496.70726        62.000
 96  6 11 16 15 45.0000000  0  6G 2G26G27G 7G 9G 4
  21724140.291      460712.409 9   1968908.32928        86.000
  23479463.026   -22330281.248 7  -1617283.18026        56.000
  22626873.062    26255766.508 8   9757568.36027        64.000
  20604656.733   -19167122.084 9  -3134348.96829       106.000
  23824569.264    -5181353.134 7  -1609854.75225        42.000
  23059515.430     1292119.258 7  -8137887.08826        62.000
 96  6 11 16 16  0.0000000  0  6G 2G26G27G 7G 9G 4
  21726683.610      474071.150 8   1979317.74028        82.000
  23482941.788   -22311987.733 7  -1603028.50726        54.000
  22636471.637    26306230.383 8   9796890.84727        64.000
  20606843.209   -19155616.148 9  -3125383.30029       106.000
  23815855.736    -5227159.046 7  -1645547.62325        42.000
  23050386.240     1244171.487 7  -8175248.94626        62.000
 96  6 11 16 16 15.0000000  0  6G 2G26G27G 7G 9G 4
  21729233.285      487467.879 9   1989756.73128        84.000
  23486441.475   -22293615.293 7  -1588712.34426        58.000
  22646087.090    26356757.671 8   9836262.73227        66.000
  20609048.393   -19144027.520 9  -3116353.19729       102.000
  23807145.806    -5272942.959 7  -1681223.40025        44.000
  23041272.699     1196259.523 8  -8212582.92826        64.000
 96  6 11 16 16 30.0000000  0  6G 2G26G27G 7G 9G 4
  21731788.296      500903.730 9   2000226.21728        84.000
  23489952.734   -22275161.405 7  -1574332.71626        54.000
  22655717.833    26407348.888 8   9875684.43627        68.000
  20611269.915   -19132356.180 9  -3107258.65629       104.000
  23798429.580    -5318706.046 7  -1716882.92325        46.000
  23032157.329     1148382.733 7  -8249889.48226        62.000
 96  6 11 16 16 45.0000000  0  6G 2G26G27G 7G 9G 4
  21734348.674      514376.548 8   2010724.52128        82.000
  23493482.221   -22256624.056 7  -1559888.01826        60.000
  22665355.321    26458002.741 8   9915154.97227        66.000
  20613506.786   -19120605.324 9  -3098102.14129       104.000
  23789727.924    -5364450.324 7  -1752527.79825        46.000
  23023057.549     1100541.215 7  -8287168.56326        62.000
 96  6 11 16 17  0.0000000  0  6G 2G26G27G 7G 9G 4
  21736925.060      527884.162 8   2021249.93828        82.000
  23497022.290   -22238000.618 7  -1545376.25826        52.000
  22675000.724    26508720.688 8   9954675.43627        64.000
  20615759.277   -19108777.908 9  -3088885.97029       104.000
  23781027.797    -5410174.388 7  -1788156.90725        50.000
  23013959.987     1052737.585 7  -8324418.11026        62.000
 96  6 11 16 17 15.0000000  0  6G 2G26G27G 7G 9G 4
  21739496.919      541424.768 8   2031801.04328        82.000
  23500585.443   -22219285.858 7  -1530793.31826        58.000
  22684672.808    26559507.973 8   9994249.90327        64.000
  20618021.990   -19096870.886 9  -3079607.77129       102.000
  23772331.657    -5455876.644 7  -1823769.04225        54.000
  23004872.018     1004977.065 8  -8361634.05826        64.000
 96  6 11 16 17 30.0000000  0  6G 2G26G27G 7G 9G 4
  21742082.480      554998.456 8   2042377.92428        82.000
  23504158.160   -22200476.182 7  -1516136.44226        52.000
  22694347.110    26610365.897 8  10033879.44627        64.000
  20620305.899   -19084879.249 9  -3070263.64029       104.000
  23763643.612    -5501555.053 7  -1859362.58425        54.000
  22995789.566      957261.749 8  -8398814.80326        64.000
 96  6 11 16 17 45.0000000  0  6G 2G26G27G 7G 9G 4
  21744662.314      568604.054 8   2052979.69128        80.000
  23507762.864   -22181571.836 7  -1501405.79026        60.000
  22704038.921    26661292.791 8  10073562.73227        66.000
  20622605.038   -19072805.374 9  -3060855.42729       104.000
  23754949.990    -5547210.728 7  -1894938.45025        50.000
  22986716.497      909591.668 8  -8435960.28726        64.000
 96  6 11 16 18  0.0000000  0  6G 2G26G27G 7G 9G 4
  21747261.124      582239.012 8   2063604.31528        80.000
  23511371.406   -22162574.223 7  -1486602.48426        50.000
  22713747.969    26712284.350 8  10113296.39727        68.000
  20624917.397   -19060652.951 9  -3051385.99329       106.000
  23746265.752    -5592843.094 7  -1930496.08425        46.000
  22977656.799      861964.513 8  -8473072.33026        66.000
 96  6 11 16 18 15.0000000  0  6G 2G26G27G 7G 9G 4
  21749866.621      595901.971 9   2074250.77228        84.000
  23515008.368   -22143482.126 7  -1471725.53626        54.000
  22723458.667    26763337.200 8  10153077.81627        66.000
  20627241.598   -19048425.008 9  -3041857.73029       104.000
  23737588.559    -5638450.101 7  -1966034.00025        44.000
  22968601.868      814377.816 8  -8510152.83426        66.000
 96  6 11 16 18 30.0000000  0  6G 2G26G27G 7G 9G 4
  21752467.770      609592.321 8   2084918.58028        82.000
  23518658.012   -22124292.958 7  -1456772.94026        56.000
  22733185.163    26814452.238 8  10192907.70027        66.000
  20629585.315   -19036123.445 9  -3032272.09629       106.000
  23728913.075    -5684028.367 7  -2001549.48825        46.000
  22959552.453      766832.778 7  -8547200.85826        62.000
 96  6 11 16 18 45.0000000  0  6G 2G26G27G 7G 9G 4
  21755079.172      623310.778 8   2095608.27228        82.000
  23522326.182   -22105006.774 7  -1441744.74026        54.000
  22742920.654    26865630.089 8  10232786.52727        64.000
  20631937.187   -19023750.538 9  -3022630.87629       102.000
  23720246.915    -5729575.677 7  -2037040.84825        52.000
  22950514.579      719329.361 8  -8584216.49626        64.000
 96  6 11 16 19  0.0000000  0  6G 2G26G27G 7G 9G 4
  21757698.759      637057.222 8   2106319.75328        80.000
  23526019.356   -22085627.518 7  -1426644.02226        54.000
  22752677.729    26916869.750 8  10272713.52027        64.000
  20634305.338   -19011305.816 9  -3012933.68929       104.000
  23711585.761    -5775090.554 7  -2072506.97325        58.000
  22941481.863      671867.393 8  -8621199.82726        66.000
 96  6 11 16 19 15.0000000  0  6G 2G26G27G 7G 9G 4
  21760320.084      650832.710 8   2117053.90428        82.000
  23529722.812   -22066157.328 7  -1411472.47126        54.000
  22762433.036    26968172.750 7  10312689.86627        62.000
  20636687.938   -18998785.152 9  -3003177.31229       106.000
  23702933.091    -5820569.267 7  -2107944.93725        58.000
  22932461.287      624446.158 8  -8658151.42526        66.000
 96  6 11 16 19 30.0000000  0  6G 2G26G27G 7G 9G 4
  21762947.315      664641.307 8   2127813.84428        82.000
  23533451.091   -22046599.094 7  -1396232.30426        58.000
  22772208.998    27019536.401 8  10352713.48727        64.000
  20639084.149   -18986188.629 9  -2993361.83529       106.000
  23694282.849    -5866010.760 7  -2143353.88825        54.000
  22923445.059      577061.407 8  -8695074.54526        66.000
 96  6 11 16 19 45.0000000  0  6G 2G26G27G 7G 9G 4
  21765577.364      678484.734 8   2138600.91128        80.000
  23537184.346   -22026954.569 7  -1380924.90126        56.000
  22781992.395    27070955.841 8  10392780.55627        66.000
  20641494.271   -18973522.239 9  -2983491.91329       104.000
  23685638.004    -5911413.373 7  -2178732.54525        50.000
  22914429.551      529710.391 8  -8731971.41626        66.000
 96  6 11 16 20  0.0000000  0  6G 2G26G27G 7G 9G 4
  21768222.133      692362.139 8   2149414.48828        82.000
  23540939.397   -22007226.725 7  -1365552.57026        58.000
  22791793.240    27122431.744 7  10432891.62727        62.000
  20643922.020   -18960790.361 9  -2973570.96429       104.000
  23677012.345    -5956776.916 7  -2214080.72525        50.000
  22905432.539      482392.515 8  -8768842.45226        66.000
 96  6 11 16 20 15.0000000  0  6G 2G26G27G 7G 9G 4
  21770868.941      706271.622 8   2160253.03228        80.000
  23544706.559   -21987416.262 7  -1350115.83126        58.000
  22801599.031    27173964.093 7  10473046.66027        62.000
  20646355.466   -18947992.774 9  -2963598.82329       106.000
  23668386.927    -6002099.589 7  -2249397.05026        50.000
  22896430.431      435107.756 8  -8805687.68526        66.000
 96  6 11 16 20 30.0000000  0  6G 2G26G27G 7G 9G 4
  21773517.338      720215.423 8   2171118.32728        78.000
  23548487.991   -21967525.709 7  -1334616.69526        56.000
  22811412.318    27225553.551 7  10513246.24727        62.000
  20648804.800   -18935126.920 9  -2953573.47929       106.000
  23659770.682    -6047381.719 7  -2284681.78326        54.000
  22887433.420      387858.064 8  -8842505.57726        66.000
 96  6 11 16 20 45.0000000  0  6G 2G26G27G 7G 9G 4
  21776180.304      734197.471 8   2182013.41028        80.000
  23552285.492   -21947557.462 7  -1319057.03326        52.000
  22821247.369    27277200.850 7  10553490.88327        62.000
  20651266.486   -18922188.977 9  -2943491.95529       108.000
  23651162.651    -6092622.282 7  -2319934.13526        58.000
  22878455.775      340645.468 8  -8879294.58126        66.000
 96  6 11 16 21  0.0000000  0  6G 2G26G27G 7G 9G 4
  21778853.883      748219.783 8   2192939.88928        80.000
  23556109.914   -21927512.892 7  -1303437.88226        58.000
  22831077.444    27328906.033 7  10593780.60026        60.000
  20653737.405   -18909176.549 9  -2933352.40129       104.000
  23642562.115    -6137820.587 7  -2355153.58426        62.000
  22869480.858      293472.263 8  -8916052.91326        68.000
 96  6 11 16 21 15.0000000  0  6G 2G26G27G 7G 9G 4
  21781524.374      762281.244 8   2203896.86228        80.000
  23559932.508   -21907391.808 7  -1287759.16326        56.000
  22840927.095    27380667.294 7  10634114.05426        62.000
  20656232.338   -18896089.304 9  -2923154.54329       106.000
  23633967.665    -6182976.679 7  -2390340.17326        58.000
  22860507.530      246339.503 8  -8952779.71126        68.000
 96  6 11 16 21 30.0000000  0  6G 2G26G27G 7G 9G 4
  21784205.958      776381.782 8   2214884.28128        80.000
  23563776.537   -21887192.413 7  -1272019.40826        58.000
  22850794.974    27432482.989 7  10674489.89526        62.000
  20658734.406   -18882927.068 9  -2912898.25129       104.000
  23625383.258    -6228093.896 7  -2425496.41726        52.000
  22851546.284      199249.264 8  -8989473.36526        68.000
 96  6 11 16 21 45.0000000  0  6G 2G26G27G 7G 9G 4
  21786896.715      790521.067 8   2225901.92728        78.000
  23567638.463   -21866913.821 7  -1256217.90226        58.000
  22860656.767    27484351.250 7  10714906.69326        60.000
  20661254.431   -18869691.759 9  -2902585.01929       106.000
  23616801.758    -6273173.787 7  -2460623.58026        52.000
  22842596.100      152202.870 8  -9026132.84326        68.000
 96  6 11 16 22  0.0000000  0  6G 2G26G27G 7G 9G 4
  21789595.207      804697.244 8   2236948.28528        80.000
  23571507.045   -21846556.053 7  -1240354.68826        56.000
  22870540.444    27536272.745 7  10755364.99526        60.000
  20663789.027   -18856382.166 9  -2892213.91429       108.000
  23608230.992    -6318217.213 7  -2495722.31726        56.000
  22833658.627      105203.613 8  -9062755.61126        70.000
 96  6 11 16 22 15.0000000  0  6G 2G26G27G 7G 9G 4
  21792305.031      818912.217 8   2248024.86728        80.000
  23575401.289   -21826119.922 7  -1224430.43226        56.000
  22880431.287    27588248.989 7  10795865.95326        60.000
  20666333.305   -18842994.035 9  -2881781.59229       106.000
  23599667.510    -6363223.672 7  -2530792.26826        58.000
  22824716.927       58252.041 8  -9099341.22026        68.000
 96  6 11 16 22 30.0000000  0  6G 2G26G27G 7G 9G 4
  21795013.296      833169.148 8   2259134.16328        80.000
  23579307.735   -21805604.023 7  -1208444.00126        58.000
  22890334.511    27640277.103 7  10836407.31626        62.000
  20668898.060   -18829525.298 9  -2871286.47729       106.000
  23591110.354    -6408193.611 7  -2565833.76026        58.000
  22815793.215       11347.017 8  -9135890.55526        70.000
 96  6 11 16 22 45.0000000  0  6G 2G26G27G 7G 9G 4
  21797740.838      847470.696 8   2270278.22728        82.000
  23583224.463   -21785006.463 7  -1192394.00426        54.000
  22900248.168    27692358.972 7  10876990.54726        62.000
  20671475.885   -18815973.165 9  -2860726.38329       106.000
  23582562.851    -6453129.361 7  -2600848.61826        62.000
  22806870.372      -35509.079 8  -9172401.76826        68.000
 96  6 11 16 23  0.0000000  0  6G 2G26G27G 7G 9G 4
  21800464.093      861812.249 8   2281453.47428        80.000
  23587165.595   -21764323.893 7  -1176277.73026        56.000
  22910168.031    27744493.351 7  10917614.72926        60.000
  20674072.687   -18802340.771 9  -2850103.73129       108.000
  23574014.150    -6498031.041 7  -2635836.91526        56.000
  22797966.896      -82316.672 8  -9208875.18726        70.000
 96  6 11 16 23 15.0000000  0  6G 2G26G27G 7G 9G 4
  21803202.067      876190.284 8   2292657.13428        80.000
  23591107.206   -21743553.584 7  -1160093.08026        54.000
  22920096.377    27796679.452 7  10958279.20826        58.000
  20676679.413   -18788631.964 9  -2839421.53729       106.000
  23565482.236    -6542900.015 7  -2670799.72026        52.000
  22789065.608     -129076.282 8  -9245311.22626        70.000
 96  6 11 16 23 30.0000000  0  6G 2G26G27G 7G 9G 4
  21805947.387      890604.439 8   2303888.94828        80.000
  23595082.125   -21722693.280 7  -1143838.29326        54.000
  22930033.688    27848916.832 7  10998983.64226        58.000
  20679301.997   -18774847.894 9  -2828680.70629       106.000
  23556942.738    -6587736.136 7  -2705736.90926        52.000
  22780179.850     -175788.341 8  -9281710.20026        70.000
 96  6 11 16 23 45.0000000  0  6G 2G26G27G 7G 9G 4
  21808696.094      905056.765 8   2315150.49528        78.000
  23599071.223   -21701742.007 7  -1127512.60626        54.000
  22939983.740    27901207.037 7  11039729.22526        60.000
  20681939.751   -18760987.825 9  -2817880.64529       106.000
  23548420.568    -6632537.374 7  -2740646.94526        58.000
  22771297.059     -222454.374 8  -9318073.30526        68.000
 96  6 11 16 24  0.0000000  0  6G 2G26G27G 7G 9G 4
  21811451.306      919547.684 8   2326442.10728        80.000
  23603070.125   -21680698.438 7  -1111115.03426        52.000
  22949949.171    27953552.153 7  11080517.61126        58.000
  20684592.135   -18747050.814 9  -2807020.64229       108.000
  23539901.186    -6677297.715 7  -2775525.13326        62.000
  22762426.050     -269073.114 8  -9354399.56127        68.000
 96  6 11 16 24 15.0000000  0  6G 2G26G27G 7G 9G 4
  21814218.930      934074.085 8   2337761.37028        80.000
  23607096.907   -21659563.484 7  -1094646.23326        56.000
  22959918.859    28005950.392 7  11121347.39526        60.000
  20687259.568   -18733037.002 9  -2796100.79129       108.000
  23531391.637    -6722016.400 7  -2810370.85226        60.000
  22753563.945     -315645.717 8  -9390689.87827        70.000
 96  6 11 16 24 30.0000000  0  6G 2G26G27G 7G 9G 4
  21816987.064      948635.181 8   2349107.67228        80.000
  23611137.540   -21638334.566 7  -1078104.23226        56.000
  22969901.258    28058403.799 7  11162220.16326        60.000
  20689941.212   -18718946.951 9  -2785121.53029       110.000
  23522891.261    -6766690.808 7  -2845182.08026        54.000
  22744709.335     -362169.747 8  -9426942.33527        72.000
 96  6 11 16 24 45.0000000  0  6G 2G26G27G 7G 9G 4
  21819766.350      963228.230 8   2360478.89528        80.000
  23615191.543   -21617013.504 7  -1061490.44326        54.000
  22979889.114    28110911.958 7  11203135.59726        56.000
  20692635.507   -18704786.034 9  -2774087.04629       110.000
  23514400.449    -6811323.543 7  -2879960.78926        56.000
  22735867.137     -408645.377 8  -9463157.08127        72.000
 96  6 11 16 25  0.0000000  0  6G 2G26G27G 7G 9G 4
  21822548.394      977853.697 8   2371875.36628        80.000
  23619263.174   -21595600.460 7  -1044804.96926        50.000
  22989894.627    28163473.867 7  11244092.89726        58.000
  20695344.251   -18690557.979 9  -2763000.25029       110.000
  23505910.507    -6855910.210 7  -2914703.60026        56.000
  22727038.489     -455071.424 8  -9499333.19827        72.000
 96  6 11 16 25 15.0000000  0  6G 2G26G27G 7G 9G 4
  21825337.813      992511.696 8   2383297.18128        80.000
  23623360.378   -21574100.842 7  -1028052.00426        52.000
  22999904.967    28216087.471 7  11285090.47926        58.000
  20698061.630   -18676267.332 9  -2751864.67829       108.000
  23497435.494    -6900447.492 7  -2949407.95826        60.000
  22718209.271     -501449.556 8  -9535471.97227        72.000
 96  6 11 16 25 30.0000000  0  6G 2G26G27G 7G 9G 4
  21828129.810     1007204.446 8   2394746.09128        78.000
  23627463.457   -21552520.072 7  -1011235.83526        50.000
  23009930.267    28268752.089 7  11326127.81626        58.000
  20700794.388   -18661914.350 9  -2740680.54329       110.000
  23488969.085    -6944938.266 7  -2984076.09726        60.000
  22709386.109     -547781.513 8  -9571574.76627        70.000
 96  6 11 16 25 45.0000000  0  6G 2G26G27G 7G 9G 4
  21830939.285     1021935.338 8   2406224.69428        80.000
  23631582.066   -21530859.781 7   -994357.68826        48.000
  23019960.333    28321468.300 7  11367205.38026        58.000
  20703538.179   -18647495.415 9  -2729444.99929       108.000
  23480512.959    -6989380.906 7  -3018706.70226        56.000
  22700580.695     -594064.999 8  -9607639.80927        70.000
 96  6 11 16 26  0.0000000  0  6G 2G26G27G 7G 9G 4
  21833750.739     1036703.344 8   2417732.21528        78.000
  23635725.348   -21509121.586 7   -977418.85426        48.000
  23029999.993    28374238.462 7  11408324.95026        58.000
  20706289.884   -18633011.697 9  -2718158.98229       110.000
  23472065.557    -7033772.925 7  -3053297.84226        58.000
  22691780.917     -640297.898 8  -9643665.41527        68.000
 96  6 11 16 26 15.0000000  0  6G 2G26G27G 7G 9G 4
  21836564.681     1051507.789 8   2429268.13928        78.000
  23639872.287   -21487307.820 7   -960421.15026        48.000
  23040053.503    28427061.052 7  11449485.40626        56.000
  20709063.354   -18618465.070 9  -2706823.94929       112.000
  23463629.937    -7078115.632 7  -3087850.58526        60.000
  22682998.977     -686478.660 8  -9679650.39227        70.000
 96  6 11 16 26 30.0000000  0  6G 2G26G27G 7G 9G 4
  21839384.439     1066352.343 8   2440835.34528        76.000
  23644042.490   -21465419.043 7   -943364.97626        50.000
  23050113.189    28479938.545 7  11490688.61626        56.000
  20711842.310   -18603855.825 9  -2695440.11529       110.000
  23455198.214    -7122413.485 7  -3122368.38226        56.000
  22674222.522     -732608.014 8  -9715595.30327        72.000
 96  6 11 16 26 45.0000000  0  6G 2G26G27G 7G 9G 4
  21842222.874     1081240.159 8   2452436.22428        80.000
  23648217.160   -21443458.418 7   -926252.75926        48.000
  23060189.573    28532869.021 7  11531933.13226        56.000
  20714635.176   -18589186.805 9  -2684009.70529       110.000
  23446777.194    -7166671.399 7  -3156855.01826        62.000
  22665452.694     -778687.301 8  -9751501.22027        72.000
 96  6 11 16 27  0.0000000  0  6G 2G26G27G 7G 9G 4
  21845062.298     1096172.799 8   2464072.07428        76.000
  23652410.327   -21421427.366 7   -909085.71526        48.000
  23070264.308    28585849.917 7  11573216.90526        56.000
  20717438.596   -18574456.543 9  -2672531.58729       110.000
  23438364.418    -7210890.374 7  -3191311.34726        62.000
  22656689.700     -824717.007 8  -9787368.51127        72.000
 96  6 11 16 27 15.0000000  0  6G 2G26G27G 7G 9G 4
  21847913.774     1111149.509 8   2475742.23028        78.000
  23656624.929   -21399323.583 7   -891861.99626        52.000
  23080369.862    28638884.083 7  11614542.20226        56.000
  20720254.187   -18559659.174 9  -2661001.16929       110.000
  23429955.719    -7255069.135 7  -3225736.32726        56.000
  22647944.005     -870694.594 8  -9823195.16327        72.000
 96  6 11 16 27 30.0000000  0  6G 2G26G27G 7G 9G 4
  21850773.165     1126167.517 8   2487444.57428        78.000
  23660837.013   -21377148.037 7   -874582.35926        48.000
  23090466.962    28691972.384 7  11655909.69426        56.000
  20723081.889   -18544792.028 9  -2649416.37529       112.000
  23421552.686    -7299212.359 7  -3260133.61326        56.000
  22639200.498     -916619.213 8  -9858980.58127        70.000
 96  6 11 16 27 45.0000000  0  6G 2G26G27G 7G 9G 4
  21853642.568     1141226.795 8   2499179.05428        80.000
  23665069.543   -21354897.664 7   -857244.39526        46.000
  23100577.043    28745114.840 7  11697319.38926        54.000
  20725922.992   -18529854.547 9  -2637776.78629       108.000
  23413161.406    -7343320.582 7  -3294503.65626        62.000
  22630475.068     -962490.075 8  -9894724.07527        72.000
 96  6 11 16 28  0.0000000  0  6G 2G26G27G 7G 9G 4
  21856511.552     1156325.256 8   2510944.08328        78.000
  23669315.924   -21332572.766 7   -839848.39326        46.000
  23110699.116    28798310.278 7  11738770.37126        52.000
  20728776.507   -18514847.691 9  -2626083.12529       108.000
  23404775.551    -7387390.605 8  -3328843.90826        64.000
  22621755.545    -1008306.252 8  -9930424.96427        74.000
 96  6 11 16 28 15.0000000  0  6G 2G26G27G 7G 9G 4
  21859393.936     1171463.799 8   2522740.35028        80.000
  23673578.792   -21310171.827 7   -822393.13926        50.000
  23120834.529    28851559.525 7  11780263.27226        50.000
  20731650.377   -18499770.389 9  -2614334.58629       110.000
  23396394.103    -7431423.407 7  -3363155.16226        60.000
  22613046.064    -1054066.560 8  -9966082.31227        74.000
 96  6 11 16 28 30.0000000  0  6G 2G26G27G 7G 9G 4
  21862279.289     1186642.672 8   2534568.03028        78.000
  23677857.011   -21287694.421 7   -804878.30926        48.000
  23130970.602    28904860.276 7  11821796.28126        50.000
  20734529.464   -18484622.261 9  -2602530.84529       108.000
  23388025.187    -7475422.246 7  -3397439.94326        56.000
  22604347.856    -1099771.931 8 -10001696.86727        74.000
 96  6 11 16 28 45.0000000  0  6G 2G26G27G 7G 9G 4
  21865174.535     1201861.658 8   2546426.98528        78.000
  23682148.720   -21265137.172 7   -787301.22826        52.000
  23141128.320    28958213.203 7  11863369.95626        50.000
  20737427.018   -18469402.488 9  -2590671.28029       108.000
  23379658.339    -7519384.703 7  -3431696.37226        60.000
  22595661.999    -1145420.487 8 -10037267.15327        74.000
 96  6 11 16 29  0.0000000  0  6G 2G26G27G 7G 9G 4
  21868080.993     1217117.249 8   2558314.45628        80.000
  23686463.513   -21242500.865 7   -769662.54726        52.000
  23151290.655    29011614.590 7  11904981.40226        52.000
  20740336.144   -18454111.201 9  -2578755.99229       106.000
  23371298.567    -7563307.778 7  -3465922.15926        60.000
  22586986.994    -1191011.287 8 -10072792.43727        72.000
 96  6 11 16 29 15.0000000  0  6G 2G26G27G 7G 9G 4
  21870992.277     1232407.204 8   2570228.71328        80.000
  23690780.104   -21219783.739 7   -751960.90526        44.000
  23161461.984    29065065.022 7  11946631.09926        52.000
  20743259.600   -18438748.893 9  -2566785.36229       108.000
  23362947.878    -7607189.006 7  -3500115.29526        60.000
  22578320.504    -1236543.852 8 -10108272.33227        74.000
 96  6 11 16 29 30.0000000  0  6G 2G26G27G 7G 9G 4
  21873906.829     1247733.340 8   2582171.12928        80.000
  23695116.332   -21196986.623 7   -734196.92726        44.000
  23171640.267    29118563.255 7  11988317.99526        52.000
  20746197.117   -18423317.111 9  -2554760.58829       110.000
  23354605.673    -7651026.300 7  -3534274.20426        60.000
  22569671.851    -1282017.836 8 -10143706.58327        76.000
 96  6 11 16 29 45.0000000  0  6G 2G26G27G 7G 9G 4
  21876831.125     1263095.510 8   2594141.65028        76.000
  23699466.741   -21174111.168 7   -716371.93126        46.000
  23181835.040    29172107.362 7  12030040.65926        54.000
  20749145.006   -18407818.422 9  -2542683.69129       110.000
  23346274.740    -7694816.814 7  -3568396.64026        58.000
  22561027.156    -1327434.443 8 -10179096.11827        76.000
 96  6 11 16 30  0.0000000  0  6G 2G26G27G 7G 9G 4
  21879754.581     1278495.015 8   2606141.25928        74.000
  23703841.012   -21151156.498 7   -698485.18926        50.000
  23192027.623    29225697.765 7  12071799.40626        52.000
  20752107.915   -18392252.241 9  -2530554.19829       108.000
  23337948.544    -7738557.793 7  -3602480.50626        62.000
  22552393.583    -1372791.964 8 -10214439.61427        76.000
 96  6 11 16 30 15.0000000  0  6G 2G26G27G 7G 9G 4
  21882700.642     1293930.196 8   2618168.68528        78.000
  23708221.670   -21128122.324 7   -680536.50226        48.000
  23202236.396    29279335.610 7  12113595.08726        54.000
  20755084.974   -18376617.094 9  -2518370.96729       108.000
  23329633.561    -7782249.464 7  -3636525.94726        60.000
  22543774.430    -1418092.111 8 -10249738.41727        76.000
 96  6 11 16 30 30.0000000  0  6G 2G26G27G 7G 9G 4
  21885641.036     1309401.110 8   2630223.93828        76.000
  23712622.833   -21105008.249 7   -662525.54026        48.000
  23212453.323    29333019.651 7  12155426.78426        54.000
  20758073.395   -18360915.043 9  -2506135.60929       110.000
  23321328.111    -7825890.805 8  -3670532.15826        64.000
  22535168.078    -1463337.786 8 -10284994.75427        78.000
 96  6 11 16 30 45.0000000  0  6G 2G26G27G 7G 9G 4
  21888593.902     1324910.065 8   2642308.83428        76.000
  23717038.626   -21081815.333 7   -644453.12526        50.000
  23222677.415    29386749.693 7  12197294.33026        52.000
  20761071.799   -18345146.871 9  -2493848.72029       108.000
  23313036.990    -7869477.424 8  -3704495.75326        66.000
  22526566.972    -1508528.497 8 -10320208.27227        76.000
 96  6 11 16 31  0.0000000  0  6G 2G26G27G 7G 9G 4
  21891552.164     1340460.224 8   2654425.83228        78.000
  23721462.453   -21058545.963 7   -626321.13426        50.000
  23232911.370    29440524.887 7  12239197.05426        54.000
  20764084.264   -18329311.152 9  -2481509.19229       108.000
  23304753.875    -7913008.215 7  -3738415.85126        60.000
  22517976.149    -1553661.444 8 -10355376.77927        74.000
 96  6 11 16 31 15.0000000  0  6G 2G26G27G 7G 9G 4
  21894520.019     1356054.522 8   2666577.19228        78.000
  23725911.104   -21035201.183 7   -608130.42326        50.000
  23243150.602    29494344.583 7  12281134.45826        52.000
  20767112.197   -18313407.246 9  -2469116.53929       110.000
  23296479.783    -7956481.028 7  -3772290.73226        60.000
  22509400.286    -1598737.763 8 -10390501.15727        76.000
 96  6 11 16 31 30.0000000  0  6G 2G26G27G 7G 9G 4
  21897489.523     1371692.040 8   2678762.29828        76.000
  23730364.850   -21011785.077 7   -589884.16926        50.000
  23253399.397    29548207.440 7  12323105.48526        50.000
  20770152.992   -18297434.288 9  -2456670.07129       110.000
  23288217.383    -7999896.705 7  -3806121.09126        60.000
  22500835.306    -1643760.839 8 -10425584.05127        76.000
 96  6 11 16 31 45.0000000  0  6G 2G26G27G 7G 9G 4
  21900477.525     1387370.269 8   2690979.10328        78.000
  23734840.692   -20988299.444 7   -571583.67826        48.000
  23263657.695    29602114.008 7  12365110.58426        46.000
  20773204.999   -18281392.219 9  -2444169.75929       110.000
  23279964.996    -8043255.401 8  -3839907.05926        64.000
  22492276.141    -1688729.928 8 -10460624.87127        76.000
 96  6 11 16 32  0.0000000  0  6G 2G26G27G 7G 9G 4
  21903473.951     1403088.161 8   2703226.79728        76.000
  23739316.623   -20964743.701 7   -553228.54826        50.000
  23273920.070    29656062.884 7  12407148.65626        48.000
  20776267.080   -18265280.541 9  -2431615.20629       108.000
  23271730.566    -8086560.415 7  -3873651.21526        62.000
  22483728.818    -1733644.433 8 -10495623.15227        74.000
 96  6 11 16 32 15.0000000  0  6G 2G26G27G 7G 9G 4
  21906468.937     1418850.359 8   2715509.02228        74.000
  23743811.501   -20941119.069 7   -534819.74726        50.000
  23284199.174    29710054.991 7  12449220.38526        48.000
  20779349.696   -18249097.248 9  -2419004.83729       110.000
  23263494.368    -8129811.874 8  -3907353.63326        64.000
  22475191.659    -1778503.148 8 -10530577.98927        74.000
 96  6 11 16 32 30.0000000  0  6G 2G26G27G 7G 9G 4
  21909473.397     1434659.129 8   2727827.56528        76.000
  23748317.862   -20917426.723 7   -516358.18426        48.000
  23294485.114    29764092.203 7  12491327.26026        48.000
  20782444.153   -18232842.642 9  -2406338.90129       108.000
  23255279.065    -8173007.067 8  -3941012.20826        68.000
  22466665.651    -1823302.771 8 -10565486.75427        74.000
 96  6 11 16 32 45.0000000  0  6G 2G26G27G 7G 9G 4
  21912494.226     1450516.234 8   2740183.73328        76.000
  23752835.584   -20893668.340 7   -497845.16726        46.000
  23304779.117    29818172.813 7  12533467.99826        50.000
  20785547.695   -18216518.982 9  -2393619.17029       106.000
  23247069.099    -8216148.271 8  -3974628.72926        64.000
  22458154.213    -1868036.937 8 -10600344.53427        72.000
 96  6 11 16 33  0.0000000  0  6G 2G26G27G 7G 9G 4
  21915524.558     1466421.251 8   2752577.24628        78.000
  23757372.523   -20869844.788 7   -479281.39726        48.000
  23315076.239    29872298.068 7  12575643.50226        50.000
  20788666.226   -18200124.423 9  -2380844.17329       104.000
  23238867.946    -8259238.801 7  -4008205.71526        62.000
  22449648.202    -1912702.702 8 -10635148.99427        70.000
 96  6 11 16 33 15.0000000  0  6G 2G26G27G 7G 9G 4
  21918557.109     1482369.486 8   2765004.42128        76.000
  23761920.615   -20845957.284 7   -460667.79926        48.000
  23325384.692    29926467.593 7  12617853.50626        48.000
  20791801.845   -18183659.957 9  -2368014.71929       106.000
  23230680.165    -8302279.940 8  -4041744.23726        64.000
  22441165.514    -1957302.967 8 -10669902.41727        72.000
 96  6 11 16 33 30.0000000  0  6G 2G26G27G 7G 9G 4
  21921596.105     1498356.834 8   2777462.09928        76.000
  23766469.815   -20822007.412 7   -442005.58726        48.000
  23335697.073    29980682.240 7  12660098.64826        48.000
  20794946.338   -18167130.093 9  -2355134.30529       104.000
  23222499.698    -8345270.266 7  -4075243.17226        62.000
  22432691.881    -2001840.095 8 -10704606.63327        74.000
 96  6 11 16 33 45.0000000  0  6G 2G26G27G 7G 9G 4
  21924647.692     1514381.231 8   2789948.64428        78.000
  23771047.346   -20797994.753 7   -423294.41526        50.000
  23346023.544    30034944.146 7  12702380.61226        48.000
  20798104.562   -18150537.132 9  -2342204.73129       106.000
  23214325.617    -8388212.052 8  -4108704.28926        64.000
  22424233.206    -2046309.337 8 -10739257.99727        76.000
 96  6 11 16 34  0.0000000  0  6G 2G26G27G 7G 9G 4
  21927705.545     1530445.251 8   2802466.06828        76.000
  23775628.715   -20773917.323 7   -404532.76526        48.000
  23356360.448    30089252.863 7  12744699.06126        48.000
  20801274.837   -18133885.795 9  -2329229.66329       104.000
  23206164.217    -8431104.419 8  -4142126.88426        66.000
  22415779.239    -2090709.631 8 -10773855.60827        74.000
 96  6 11 16 34 15.0000000  0  6G 2G26G27G 7G 9G 4
  21930768.645     1546553.368 8   2815017.83628        76.000
  23780221.475   -20749774.561 7   -385720.24226        48.000
  23366693.964    30143609.792 7  12787055.09026        46.000
  20804456.714   -18117175.128 9  -2316208.35329       106.000
  23198010.941    -8473945.065 8  -4175509.19726        64.000
  22407343.739    -2135040.229 8 -10808398.90727        74.000
 96  6 11 16 34 30.0000000  0  6G 2G26G27G 7G 9G 4
  21933840.918     1562704.286 8   2827602.96328        76.000
  23784834.772   -20725565.327 7   -366855.93026        48.000
  23377056.920    30198017.235 7  12829450.50126        48.000
  20807647.046   -18100406.622 9  -2303141.99129       106.000
  23189866.300    -8516731.795 8  -4208849.48126        64.000
  22398923.498    -2179298.971 8 -10842886.21327        74.000
 96  6 11 16 34 45.0000000  0  6G 2G26G27G 7G 9G 4
  21936927.821     1578896.563 8   2840220.31728        80.000
  23789449.867   -20701285.184 7   -347936.38526        50.000
  23387419.666    30252472.710 7  12871883.30526        50.000
  20810846.701   -18083581.862 9  -2290031.78129       102.000
  23181738.866    -8559464.259 8  -4242147.48326        68.000
  22390515.399    -2223484.907 8 -10877316.80427        76.000
 96  6 11 16 35  0.0000000  0  6G 2G26G27G 7G 9G 4
  21940016.103     1595128.644 8   2852868.70428        78.000
  23794083.429   -20676933.006 7   -328960.66626        50.000
  23397790.507    30306973.940 7  12914351.74626        48.000
  20814057.778   -18066699.788 9  -2276876.90329       102.000
  23173613.951    -8602143.198 8  -4275403.78426        68.000
  22382118.482    -2267602.576 8 -10911694.17127        76.000
 96  6 11 16 35 15.0000000  0  6G 2G26G27G 7G 9G 4
  21943110.021     1611398.561 8   2865546.54128        78.000
  23798727.424   -20652508.563 7   -309928.65326        46.000
  23408168.602    30361520.642 7  12956855.65626        48.000
  20817283.784   -18049760.547 9  -2263677.50929       104.000
  23165503.426    -8644765.638 8  -4308616.06826        70.000
  22373736.974    -2311655.999 8 -10946021.48327        74.000
 96  6 11 16 35 30.0000000  0  6G 2G26G27G 7G 9G 4
  21946211.044     1627706.721 8   2878254.20028        76.000
  23803392.374   -20628010.638 7   -290839.34926        50.000
  23418558.239    30416112.385 7  12999394.64626        48.000
  20820514.258   -18032765.106 9  -2250434.31429       104.000
  23157405.971    -8687328.713 8  -4341782.06926        68.000
  22365365.480    -2355645.811 8 -10980299.24827        74.000
 96  6 11 16 35 45.0000000  0  6G 2G26G27G 7G 9G 4
  21949323.400     1644054.247 8   2890992.54628        80.000
  23808063.680   -20603438.557 7   -271692.29926        50.000
  23428956.961    30470749.004 7  13041968.56826        48.000
  20823763.169   -18015711.335 9  -2237145.65529       104.000
  23149317.121    -8729833.546 8  -4374902.68926        70.000
  22357005.647    -2399568.962 8 -11014525.06727        74.000
 96  6 11 16 36  0.0000000  0  6G 2G26G27G 7G 9G 4
  21952438.603     1660439.976 8   2903760.65428        78.000
  23812756.542   -20578791.666 7   -252486.94826        48.000
  23439357.121    30525429.559 7  13084576.80126        50.000
  20827017.656   -17998595.886 9  -2223808.93129       102.000
  23141235.136    -8772284.303 8  -4407981.20226        68.000
  22348659.485    -2443428.298 8 -11048701.16327        76.000
 96  6 11 16 36 15.0000000  0  6G 2G26G27G 7G 9G 4
  21955566.667     1676862.155 8   2916557.15628        78.000
  23817464.632   -20554070.343 7   -233223.63026        48.000
  23449769.662    30580153.770 7  13127219.03926        48.000
  20830290.820   -17981415.863 9  -2210421.90529       106.000
  23133171.708    -8814681.044 8  -4441017.60826        66.000
  22340328.013    -2487225.249 8 -11082828.62627        76.000
 96  6 11 16 36 30.0000000  0  6G 2G26G27G 7G 9G 4
  21958701.327     1693320.084 8   2929381.52528        78.000
  23822177.789   -20529274.131 7   -213901.90826        48.000
  23460198.722    30634920.764 7  13169894.57726        50.000
  20833569.770   -17964167.810 9  -2196981.85929       104.000
  23125111.968    -8857025.909 8  -4474013.59026        68.000
  22332002.326    -2530959.502 8 -11116907.24427        74.000
 96  6 11 16 36 45.0000000  0  6G 2G26G27G 7G 9G 4
  21961835.358     1709812.250 8   2942232.54928        78.000
  23826917.478   -20504401.230 7   -194520.43926        48.000
  23470622.986    30689728.909 7  13212602.20526        48.000
  20836866.617   -17946852.796 9  -2183489.63229       106.000
  23117064.699    -8899318.979 8  -4506969.20426        70.000
  22323694.748    -2574632.039 8 -11150937.78427        76.000
 96  6 11 16 37  0.0000000  0  6G 2G26G27G 7G 9G 4
  21964981.889     1726341.109 8   2955112.17028        78.000
  23831669.519   -20479452.530 7   -175079.89826        50.000
  23481070.513    30744579.587 7  13255342.95426        50.000
  20840174.797   -17929468.056 9  -2169943.07729       104.000
  23109025.525    -8941557.340 8  -4539882.18126        68.000
  22315391.666    -2618244.576 8 -11184921.56827        78.000
 96  6 11 16 37 15.0000000  0  6G 2G26G27G 7G 9G 4
  21968130.460     1742907.702 8   2968021.21528        76.000
  23836425.936   -20454430.967 7   -155582.58126        46.000
  23491513.544    30799477.237 7  13298120.32326        50.000
  20843492.390   -17912015.335 9  -2156343.55029       102.000
  23101000.020    -8983740.434 8  -4572752.11426        66.000
  22307104.143    -2661797.482 8 -11218858.86527        78.000
 96  6 11 16 37 30.0000000  0  6G 2G26G27G 7G 9G 4
  21971295.639     1759513.618 8   2980960.88628        78.000
  23841199.861   -20429337.897 7   -136029.59926        50.000
  23501967.067    30854421.848 7  13340934.27126        50.000
  20846825.783   -17894496.114 9  -2142692.19929       102.000
  23092984.649    -9025867.768 8  -4605578.60626        70.000
  22298830.591    -2705288.896 8 -11252748.25327        78.000
 96  6 11 16 37 45.0000000  0  6G 2G26G27G 7G 9G 4
  21974460.008     1776162.219 8   2993933.83528        80.000
  23845987.187   -20404173.585 7   -116421.04026        46.000
  23512430.603    30909412.591 7  13383784.17326        50.000
  20850174.345   -17876909.527 9  -2128988.37129       104.000
  23084975.454    -9067940.402 8  -4638362.43826        68.000
  22290564.533    -2748716.363 8 -11286587.83527        76.000
 96  6 11 16 38  0.0000000  0  6G 2G26G27G 7G 9G 4
  21977636.639     1792854.604 8   3006940.89328        80.000
  23850786.204   -20378939.144 7    -96757.84626        48.000
  23522904.332    30964447.160 7  13426668.23526        48.000
  20853534.508   -17859257.782 9  -2115233.74929       104.000
  23076978.580    -9109961.678 8  -4671106.26626        72.000
  22282311.157    -2792078.063 8 -11320376.15627        74.000
 96  6 11 16 38 15.0000000  0  6G 2G26G27G 7G 9G 4
  21980817.796     1809593.820 8   3019984.42428        78.000
  23855603.629   -20353635.151 7    -77040.42526        48.000
  23533386.126    31019523.269 7  13469584.65326        48.000
  20856907.833   -17841545.358 9  -2101431.85529       104.000
  23068993.368    -9151928.144 8  -4703807.38526        70.000
  22274077.807    -2835373.919 8 -11354113.16927        76.000
 96  6 11 16 38 30.0000000  0  6G 2G26G27G 7G 9G 4
  21984012.025     1826383.675 8   3033067.43928        76.000
  23860434.845   -20328263.269 7    -57270.14726        50.000
  23543875.654    31074637.131 7  13512530.47926        48.000
  20860287.394   -17823775.064 9  -2087584.87029       104.000
  23061018.499    -9193836.367 8  -4736463.11526        68.000
  22265847.305    -2878600.882 8 -11387796.49028        74.000
 96  6 11 16 38 45.0000000  0  6G 2G26G27G 7G 9G 4
  21987224.691     1843229.080 8   3046193.72328        80.000
  23865276.523   -20302823.931 7    -37447.32625        44.000
  23554366.771    31129788.076 7  13555505.23026        46.000
  20863676.757   -17805949.815 9  -2073695.04129       104.000
  23053057.061    -9235682.523 8  -4769070.49826        74.000
  22257638.717    -2921757.438 8 -11421424.96028        74.000
 96  6 11 16 39  0.0000000  0  6G 2G26G27G 7G 9G 4
  21990441.944     1860127.076 8   3059360.98328        82.000
  23870126.625   -20277323.699 7    -17577.06725        44.000
  23564870.330    31184973.864 7  13598507.10226        48.000
  20867079.671   -17788074.358 9  -2059766.13429       104.000
  23045105.156    -9277466.089 8  -4801629.10326        74.000
  22249441.492    -2964842.262 8 -11454997.52328        74.000
 96  6 11 16 39 15.0000000  0  6G 2G26G27G 7G 9G 4
  21993662.584     1877079.592 8   3072570.73928        78.000
  23874994.205   -20251763.952 7      2339.59025        46.000
  23575373.139    31240194.690 7  13641536.27326        44.000
  20870491.819   -17770146.970 9  -2045796.73229       104.000
  23037163.713    -9319188.172 8  -4834139.80926        68.000
  22241253.920    -3007851.037 8 -11488510.84128        74.000
 96  6 11 16 39 30.0000000  0  6G 2G26G27G 7G 9G 4
  21996900.073     1894087.760 8   3085823.86928        76.000
  23879869.101   -20226143.860 7     22303.27025        46.000
  23585896.154    31295447.205 7  13684590.17926        46.000
  20873914.130   -17752165.382 9  -2031785.11629       104.000
  23029237.351    -9360847.971 8  -4866601.95926        70.000
  22233084.906    -3050777.481 8 -11521959.98828        76.000
 96  6 11 16 39 45.0000000  0  7G 2G26G27G24G 7G 9G 4
  22000147.635     1911150.102 8   3099119.20028        78.000
  23884753.199   -20200462.876 7     42314.42025        44.000
  23596407.747    31350725.262 7  13727663.97826        44.000
  24441505.748    -3276013.078 6  -1844402.42124        36.000
  20877346.963   -17734127.796 9  -2017729.84629       102.000
  23021320.312    -9402447.477 8  -4899017.14426        72.000
  22224931.480    -3093621.066 8 -11555344.59428        76.000
 96  6 11 16 40  0.0000000  0  7G 2G26G27G24G 7G 9G 4
  22003405.839     1928266.032 8   3112456.29628        80.000
  23889656.635   -20174720.713 7     62373.26225        46.000
  23606935.439    31406029.953 7  13770758.53026        46.000
  24431103.159    -3330598.002 6  -1886936.04424        34.000
  20880787.232   -17716033.870 9  -2003630.67129        98.000
  23013421.830    -9443984.162 8  -4931383.36126        72.000
  22216794.873    -3136378.781 8 -11588662.27328        78.000
 96  6 11 16 40 15.0000000  0  7G 2G26G27G24G 7G 9G 4
  22006673.487     1945430.370 8   3125831.09828        80.000
  23894569.724   -20148919.912 7     82477.79325        48.000
  23617459.023    31461359.598 7  13813872.50326        44.000
  24420726.563    -3385190.552 6  -1929475.61425        36.000
  20884237.993   -17697886.847 9  -1989490.12929       100.000
  23005525.566    -9485458.227 8  -4963700.78726        74.000
  22208676.793    -3179054.277 8 -11621915.88628        76.000
 96  6 11 16 40 30.0000000  0  7G 2G26G27G24G 7G 9G 4
  22009947.371     1962642.819 8   3139243.39728        80.000
  23899481.643   -20123060.981 7    102627.59325        44.000
  23627995.379    31516715.988 7  13857007.29325        44.000
  24410331.679    -3439791.596 6  -1972021.79925        34.000
  20887703.534   -17679683.958 9  -1975306.06229       100.000
  22997645.371    -9526867.307 8  -4995967.58526        72.000
  22200564.919    -3221649.261 8 -11655106.76828        76.000
 96  6 11 16 40 45.0000000  0  7G 2G26G27G24G 7G 9G 4
  22013230.098     1979899.474 8   3152690.14528        78.000
  23904417.936   -20097144.808 7    122821.97225        42.000
  23638535.752    31572102.329 7  13900165.42725        44.000
  24399941.412    -3494397.493 6  -2014571.79525        36.000
  20891181.846   -17661424.469 9  -1961077.88029       102.000
  22989775.939    -9568215.199 8  -5028186.72226        74.000
  22192478.437    -3264163.768 8 -11688234.95928        76.000
 96  6 11 16 41  0.0000000  0  7G 2G26G27G24G 7G 9G 4
  22016526.976     1997194.692 8   3166166.93928        82.000
  23909357.376   -20071171.151 7    143061.12025        42.000
  23649083.021    31627519.729 7  13943347.77926        44.000
  24389547.817    -3549004.613 6  -2057122.75824        36.000
  20894664.025   -17643108.014 9  -1946805.31629        98.000
  22981921.287    -9609503.993 8  -5060359.78726        74.000
  22184405.206    -3306598.950 8 -11721301.30228        78.000
 96  6 11 16 41 15.0000000  0  7G 2G26G27G24G 7G 9G 4
  22019821.065     2014526.263 8   3179672.06028        82.000
  23914311.567   -20045136.339 7    163348.00025        42.000
  23659633.796    31682969.441 7  13986555.33826        46.000
  24379151.015    -3603613.968 6  -2099675.38124        34.000
  20898162.453   -17624730.066 9  -1932484.83629       100.000
  22974073.410    -9650733.906 8  -5092486.96826        70.000
  22176342.168    -3348955.118 8 -11754306.08528        78.000
 96  6 11 16 41 30.0000000  0  7G 2G26G27G24G 7G 9G 4
  22023126.217     2031895.354 8   3193206.41828        80.000
  23919283.205   -20019037.297 7    183684.88525        46.000
  23670188.619    31738452.008 7  14029788.47125        44.000
  24368756.911    -3658225.907 6  -2142230.00723        34.000
  20901673.413   -17606289.283 9  -1918115.39829        98.000
  22966242.021    -9691905.872 8  -5124568.99926        76.000
  22168301.164    -3391236.173 8 -11787252.35528        80.000
 96  6 11 16 41 45.0000000  0  7G 2G26G27G24G 7G 9G 4
  22026438.414     2049301.421 8   3206769.58528        80.000
  23924255.113   -19992873.439 7    204072.32025        42.000
  23680755.044    31793969.442 7  14073048.79425        44.000
  24358371.350    -3712839.845 6  -2184786.01023        36.000
  20905193.186   -17587784.692 9  -1903696.23429        98.000
  22958415.759    -9733017.545 8  -5156604.06026        76.000
  22160268.166    -3433443.629 8 -11820141.24828        78.000
 96  6 11 16 42  0.0000000  0  7G 2G26G27G24G 7G 9G 4
  22029759.245     2066743.553 8   3220360.86128        82.000
  23929249.565   -19966645.472 7    224509.69125        44.000
  23691332.202    31849526.084 7  14116339.61725        44.000
  24347973.828    -3767453.816 6  -2227342.26323        32.000
  20908726.150   -17569217.932 9  -1889228.61129       100.000
  22950604.607    -9774067.413 8  -5188590.95026        72.000
  22152244.820    -3475580.954 8 -11852975.51228        78.000
 96  6 11 16 42 15.0000000  0  7G 2G26G27G24G 7G 9G 4
  22033089.040     2084223.724 8   3233981.75828        82.000
  23934244.827   -19940352.986 6    244997.30725        40.000
  23701909.509    31905125.089 7  14159663.52325        42.000
  24337585.630    -3822066.014 6  -2269897.13023        34.000
  20912272.725   -17550588.218 9  -1874711.96929       100.000
  22942805.926    -9815054.791 8  -5220529.15126        72.000
  22144244.888    -3517647.411 8 -11885754.56228        80.000
 96  6 11 16 42 30.0000000  0  7G 2G26G27G24G 7G 9G 4
  22036420.663     2101744.855 8   3247634.58628        82.000
  23939269.648   -19913995.526 7    265535.53725        42.000
  23712500.338    31960768.817 7  14203022.21825        42.000
  24327185.440    -3876675.074 6  -2312449.57324        32.000
  20915827.334   -17531891.235 9  -1860142.88229       100.000
  22935016.389    -9855980.097 8  -5252418.97226        74.000
  22136252.871    -3559642.255 8 -11918477.79928        80.000
 96  6 11 16 42 45.0000000  0  7G 2G26G27G24G 7G 9G 4
  22039760.621     2119308.348 8   3261320.41928        80.000
  23944299.446   -19887570.376 7    286126.58225        44.000
  23723085.889    32016458.242 7  14246416.56025        42.000
  24316810.432    -3931278.993 6  -2354998.03525        34.000
  20919402.269   -17513124.962 9  -1845519.81429       104.000
  22927240.881    -9896843.468 8  -5284260.55226        70.000
  22128271.406    -3601560.821 8 -11951141.60128        76.000
 96  6 11 16 43  0.0000000  0  7G 2G26G27G24G 7G 9G 4
  22043111.521     2136914.995 8   3275039.88328        80.000
  23949334.071   -19861075.310 7    306772.06825        42.000
  23733697.433    32072191.931 7  14289845.37425        42.000
  24306412.281    -3985875.870 6  -2397540.97325        36.000
  20922984.249   -17494288.320 9  -1830841.90929       100.000
  22919477.366    -9937642.188 8  -5316051.72626        72.000
  22120313.536    -3643401.621 8 -11983744.82228        80.000
 96  6 11 16 43 15.0000000  0  7G 2G26G27G24G 7G 9G 4
  22046476.122     2154568.789 8   3288796.10028        82.000
  23954396.456   -19834507.770 7    327474.03125        44.000
  23744311.855    32127968.325 7  14333307.45825        42.000
  24296030.678    -4040467.422 6  -2440079.79125        34.000
  20926580.979   -17475379.467 9  -1816107.72429       100.000
  22911726.472    -9978371.726 8  -5347789.02926        74.000
  22112364.149    -3685162.004 8 -12016285.35128        78.000
 96  6 11 16 43 30.0000000  0  7G 2G26G27G24G 7G 9G 4
  22049838.624     2172273.140 8   3302591.69028        80.000
  23959462.439   -19807871.114 7    348229.85025        42.000
  23754936.650    32183787.526 6  14376802.91525        40.000
  24285640.831    -4095056.676 6  -2482616.80625        36.000
  20930194.648   -17456400.096 9  -1801318.61429        98.000
  22903992.036   -10019033.296 8  -5379473.34327        76.000
  22104435.628    -3726841.559 8 -12048762.90328        82.000
 96  6 11 16 43 45.0000000  0  7G 2G26G27G24G 7G 9G 4
  22053210.450     2190028.257 8   3316426.85228        78.000
  23964542.273   -19781169.473 6    369036.28625        40.000
  23765564.862    32239647.870 6  14420330.42425        40.000
  24275248.495    -4149642.299 6  -2525150.96625        36.000
  20933820.368   -17437354.877 9  -1786478.16729       104.000
  22896265.305   -10059625.911 8  -5411103.93927        72.000
  22096518.139    -3768438.892 8 -12081176.40028        80.000
 96  6 11 16 44  0.0000000  0  7G 2G26G27G24G 7G 9G 4
  22056604.371     2207833.954 8   3330301.41428        78.000
  23969632.659   -19754404.944 7    389891.75125        42.000
  23776205.455    32295546.252 6  14463887.60325        38.000
  24264865.993    -4204224.110 6  -2567682.20525        36.000
  20937457.360   -17418247.105 9  -1771588.99229       102.000
  22888552.815   -10100148.045 8  -5442679.61027        72.000
  22088616.059    -3809953.968 8 -12113525.79328        80.000
 96  6 11 16 44 15.0000000  0  7G 2G26G27G24G 7G 9G 4
  22060005.306     2225690.864 8   3344215.89028        80.000
  23974739.653   -19727577.649 7    410796.09925        42.000
  23786846.499    32351481.478 6  14507473.41926        38.000
  24254491.915    -4258802.717 7  -2610210.93525        42.000
  20941100.618   -17399078.874 9  -1756652.70329        98.000
  22880854.144   -10140599.286 8  -5474200.02127        72.000
  22080733.826    -3851387.022 8 -12145811.27228        80.000
 96  6 11 16 44 30.0000000  0  7G 2G26G27G24G 7G 9G 4
  22063414.726     2243597.657 8   3358169.21728        80.000
  23979849.885   -19700689.411 6    431747.99625        38.000
  23797497.315    32407450.286 6  14551085.46025        38.000
  24244098.290    -4313380.947 7  -2652739.45725        42.000
  20944762.792   -17379850.844 9  -1741669.79229       102.000
  22873168.995   -10180980.797 8  -5505666.15027        74.000
  22072864.934    -3892735.250 8 -12178030.65928        80.000
 96  6 11 16 44 45.0000000  0  7G 2G26G27G24G 7G 9G 4
  22066831.221     2261550.042 8   3372158.09728        80.000
  23984988.808   -19673740.121 7    452747.44125        44.000
  23808157.396    32463449.276 6  14594720.95325        38.000
  24233711.890    -4367960.139 6  -2695268.67824        40.000
  20948427.665   -17360568.804 9  -1726644.82829       100.000
  22865501.952   -10221289.824 8  -5537075.74427        74.000
  22065010.341    -3934000.229 8 -12210185.16328        78.000
 96  6 11 16 45  0.0000000  0  7G 2G26G27G24G 7G 9G 4
  22070255.450     2279548.874 8   3386183.16228        80.000
  23990130.368   -19646727.477 7    473796.22725        46.000
  23818815.137    32519476.319 6  14638378.39125        36.000
  24223321.623    -4422537.738 6  -2737796.59124        40.000
  20952112.115   -17341233.448 9  -1711578.30929       102.000
  22857846.932   -10261522.989 8  -5568426.22527        76.000
  22057175.805    -3975182.147 8 -12242274.96228        78.000
 96  6 11 16 45 15.0000000  0  7G 2G26G27G24G 7G 9G 4
  22073687.084     2297597.468 8   3400247.01828        78.000
  23995277.205   -19619655.372 7    494891.34125        44.000
  23829485.201    32575530.670 6  14682057.10125        38.000
  24212941.849    -4477113.119 6  -2780322.81325        40.000
  20955802.020   -17321844.996 9  -1696470.40729       102.000
  22850204.173   -10301678.812 8  -5599716.47227        76.000
  22049360.276    -4016281.303 9 -12274300.27028        84.000
 96  6 11 16 45 30.0000000  0  7G 2G26G27G24G 7G 9G 4
  22077129.901     2315693.699 8   3414347.97328        78.000
  24000438.312   -19592528.684 7    516029.00325        42.000
  23840151.157    32631612.301 6  14725757.03125        38.000
  24202545.376    -4531688.235 6  -2822848.80025        40.000
  20959498.491   -17302405.586 9  -1681322.82529       100.000
  22842578.352   -10341761.238 8  -5630949.51527        78.000
  22041548.194    -4057298.161 8 -12306261.43628        80.000
 96  6 11 16 45 45.0000000  0  7G 2G26G27G24G 7G 9G 4
  22080581.951     2333836.820 8   3428485.47128        80.000
  24005612.370   -19565349.244 7    537207.74925        42.000
  23850837.139    32687719.811 6  14769477.14125        38.000
  24192165.602    -4586260.466 6  -2865372.55925        38.000
  20963207.463   -17282914.717 9  -1666135.13829       100.000
  22834965.392   -10381771.551 8  -5662126.34827        78.000
  22033764.412    -4098234.995 8 -12338160.24828        80.000
 96  6 11 16 46  0.0000000  0  7G 2G26G27G24G 7G 9G 4
  22084043.535     2352026.571 8   3442659.29328        80.000
  24010793.773   -19538115.281 6    558428.99925        40.000
  23861511.969    32743851.246 6  14813215.86525        38.000
  24181778.543    -4640827.562 6  -2907892.32425        38.000
  20966927.048   -17263370.442 9  -1650905.82229        98.000
  22827363.465   -10421707.364 8  -5693245.14427        76.000
  22025984.948    -4139091.671 8 -12369996.60528        78.000
 96  6 11 16 46 15.0000000  0  7G 2G26G27G24G 7G 9G 4
  22087514.172     2370262.038 8   3456868.75228        80.000
  24015991.605   -19510825.822 7    579693.52225        44.000
  23872198.731    32800008.137 6  14856974.44525        38.000
  24171392.983    -4695389.528 6  -2950408.09225        38.000
  20970655.028   -17243771.165 9  -1635633.64629        98.000
  22819777.996   -10461569.586 8  -5724306.59527        74.000
  22018224.730    -4179866.770 8 -12401769.39628        78.000
 96  6 11 16 46 30.0000000  0  7G 2G26G27G24G 7G 9G 4
  22090994.073     2388541.202 8   3471112.24928        78.000
  24021186.409   -19483481.012 6    601001.17425        40.000
  23882886.812    32856191.836 6  14900753.88625        36.000
  24161010.540    -4749946.294 6  -2992919.77225        36.000
  20974396.767   -17224118.431 9  -1620319.82229       100.000
  22812206.168   -10501360.712 8  -5755312.66127        76.000
  22010484.778    -4220556.119 8 -12433475.35728        82.000
 96  6 11 16 46 45.0000000  0  7G 2G26G27G24G 7G 9G 4
  22094484.497     2406865.313 8   3485390.79128        80.000
  24026404.986   -19456080.307 7    622352.40425        44.000
  23893584.546    32912402.647 6  14944554.46225        36.000
  24150632.895    -4804496.261 6  -3035426.17925        36.000
  20978145.702   -17204413.496 9  -1604965.32129       100.000
  22804649.210   -10541078.346 8  -5786261.45027        76.000
  22002759.007    -4261156.402 8 -12465111.92628        82.000
 96  6 11 16 47  0.0000000  0  7G 2G26G27G24G 7G 9G 4
  22097980.017     2425238.668 8   3499707.70328        82.000
  24031627.251   -19428625.214 6    643745.88125        40.000
  23904291.753    32968642.324 6  14988377.56925        38.000
  24140256.418    -4859037.239 6  -3077925.71324        34.000
  20981908.007   -17184655.503 9  -1589569.47629       100.000
  22797104.213   -10580724.207 8  -5817154.30327        74.000
  21995048.495    -4301668.712 8 -12496679.94528        80.000
 96  6 11 16 47 15.0000000  0  7G 2G26G27G24G 7G 9G 4
  22101482.282     2443662.294 8   3514063.78728        80.000
  24036865.524   -19401122.226 7    665176.77325        42.000
  23914996.772    33024912.923 6  15032224.76825        38.000
  24129879.732    -4913571.052 6  -3120419.60524        38.000
  20985676.938   -17164843.192 9  -1574131.28729        98.000
  22789568.270   -10620302.722 8  -5847994.66027        76.000
  21987356.989    -4342091.953 8 -12528178.56628        80.000
 96  6 11 16 47 30.0000000  0  7G 2G26G27G24G 7G 9G 4
  22104994.920     2462136.390 8   3528459.17428        78.000
  24042106.706   -19373569.504 6    686646.42325        40.000
  23925717.171    33081219.066 6  15076099.64125        40.000
  24119503.795    -4968096.514 6  -3162906.89524        34.000
  20989458.340   -17144976.297 9  -1558650.60929        98.000
  22782054.932   -10659811.975 8  -5878781.08627        76.000
  21979678.975    -4382423.176 8 -12559605.48528        80.000
 96  6 11 16 47 45.0000000  0  7G 2G26G27G24G 7G 9G 4
  22108520.390     2480658.012 8   3542891.60327        80.000
  24047361.798   -19345964.721 6    708156.65425        40.000
  23936439.937    33137561.692 6  15120002.91625        38.000
  24109117.515    -5022612.993 6  -3205387.20224        32.000
  20993245.948   -17125056.587 9  -1543128.74929        98.000
  22774548.488   -10699249.943 8  -5909511.95527        76.000
  21972026.383    -4422662.059 8 -12590960.44628        80.000
 96  6 11 16 48  0.0000000  0  7G 2G26G27G24G 7G 9G 4
  22112056.442     2499228.025 8   3557361.74727        80.000
  24052626.753   -19318305.561 6    729709.24825        40.000
  23947165.942    33193940.015 6  15163934.04525        38.000
  24098755.279    -5077119.175 6  -3247859.48325        34.000
  20997045.398   -17105087.112 9  -1527568.10629        98.000
  22767057.034   -10738614.442 8  -5940185.57827        80.000
  21964380.326    -4462808.972 8 -12622243.74028        78.000
 96  6 11 16 48 15.0000000  0  7G 2G26G27G24G 7G 9G 4
  22115599.749     2517847.538 8   3571870.45727        80.000
  24057898.993   -19290588.684 6    751306.82725        40.000
  23957897.463    33250357.359 6  15207895.58625        36.000
  24088374.216    -5131615.807 6  -3290324.31925        34.000
  21000855.370   -17085069.948 9  -1511970.30629        98.000
  22759581.739   -10777904.218 8  -5970800.97927        78.000
  21956761.161    -4502861.907 8 -12653453.80528        80.000
 96  6 11 16 48 30.0000000  0  7G 2G26G27G24G 7G 9G 4
  22119152.200     2536515.825 8   3586417.17627        80.000
  24063179.957   -19262814.536 6    772948.98025        36.000
  23968639.236    33306815.618 6  15251889.03925        38.000
  24078022.862    -5186101.035 6  -3332780.25125        34.000
  21004671.429   -17065005.628 9  -1496335.78529        96.000
  22752117.147   -10817119.139 8  -6001358.03327        76.000
  21949157.434    -4542821.313 8 -12684590.99028        80.000
 96  6 11 16 48 45.0000000  0  7G 2G26G27G24G 7G 9G 4
  22122713.254     2555232.321 8   3601001.46127        78.000
  24068480.738   -19234986.686 6    794632.95325        40.000
  23979383.648    33363309.621 6  15295910.31525        36.000
  24067644.676    -5240576.656 6  -3375228.74325        36.000
  21008503.556   -17044893.253 9  -1480663.79829        98.000
  22744670.872   -10856263.792 8  -6031860.32327        76.000
  21941573.405    -4582692.966 8 -12715659.78528        82.000
 96  6 11 16 49  0.0000000  0  7G 2G26G27G24G 7G 9G 4
  22126286.331     2573999.191 8   3615625.01827        80.000
  24073784.366   -19207104.216 6    816359.52125        36.000
  23990149.885    33419839.513 6  15339959.54825        38.000
  24057276.984    -5295040.574 6  -3417668.15525        36.000
  21012340.180   -17024727.404 9  -1464950.13929        98.000
  22737232.062   -10895338.243 8  -6062307.93027        78.000
  21933996.630    -4622482.010 8 -12746664.23128        80.000
 96  6 11 16 49 15.0000000  0  7G 2G26G27G24G 7G 9G 4
  22129865.763     2592814.798 8   3630286.52827        80.000
  24079097.288   -19179167.450 6    838128.44825        36.000
  24000914.263    33476401.478 6  15384033.74825        38.000
  24046924.101    -5349492.172 6  -3460097.91625        38.000
  21016187.416   -17004505.848 9  -1449193.08029        96.000
  22729811.179   -10934345.078 8  -6092702.85427        78.000
  21926442.670    -4662191.955 8 -12777607.03428        82.000
 96  6 11 16 49 30.0000000  0  7G 2G26G27G24G 7G 9G 4
  22133454.189     2611675.217 8   3644982.96027        80.000
  24084427.898   -19151173.970 6    859941.54925        36.000
  24011686.076    33532991.962 6  15428130.18625        38.000
  24036570.948    -5403930.645 7  -3502517.51025        42.000
  21020046.495   -16984228.941 9  -1433392.88329        98.000
  22722402.078   -10973282.263 8  -6123043.50927        78.000
  21918903.879    -4701823.476 9 -12808488.72028        84.000
 96  6 11 16 49 45.0000000  0  7G 2G26G27G24G 7G 9G 4
  22137054.786     2630582.390 8   3659715.81827        80.000
  24089768.970   -19123120.852 6    881801.09625        36.000
  24022460.617    33589607.703 6  15472246.37525        38.000
  24026207.992    -5458354.473 7  -3544925.67325        42.000
  21023915.616   -16963896.597 9  -1417549.49429        94.000
  22715005.749   -11012148.138 8  -6153328.59727        80.000
  21911374.861    -4741373.915 8 -12839307.23028        80.000
 96  6 11 16 50  0.0000000  0  7G 2G26G27G24G 7G 9G 4
  22140659.820     2649538.881 8   3674487.10927        80.000
  24095111.421   -19095009.699 6    903705.89725        36.000
  24033234.438    33646246.425 6  15516380.41725        38.000
  24015854.030    -5512762.784 6  -3587321.69025        40.000
  21027796.160   -16943507.847 9  -1401662.16929        98.000
  22707621.771   -11050945.212 8  -6183560.07927        76.000
  21903858.974    -4780843.832 8 -12870063.01028        80.000
 96  6 11 16 50 15.0000000  0  7G 2G26G27G24G 7G 9G 4
  22144277.476     2668545.856 8   3689297.73227        80.000
  24100479.655   -19066842.272 6    925654.47025        34.000
  24044007.990    33702907.236 6  15560531.65925        36.000
  24005503.816    -5567156.168 7  -3629706.06525        44.000
  21031687.436   -16923060.952 9  -1385729.51929        96.000
  22700253.711   -11089676.342 8  -6213740.15827        76.000
  21896370.098    -4820231.666 9 -12900754.81228        84.000
 96  6 11 16 50 30.0000000  0  7G 2G26G27G24G 7G 9G 4
  22147903.495     2687602.416 8   3704146.98627        80.000
  24105842.343   -19038621.881 6    947644.37925        34.000
  24054806.694    33759590.103 6  15604700.11525        38.000
  23995157.588    -5621532.979 7  -3672077.56125        42.000
  21035591.243   -16902550.214 9  -1369747.11629        96.000
  22692894.856   -11128341.248 8  -6243868.63527        78.000
  21888890.606    -4859534.192 8 -12931380.13528        82.000
 96  6 11 16 50 45.0000000  0  7G 2G26G27G24G 7G 9G 4
  22151541.567     2706711.564 8   3719037.23427        80.000
  24111224.277   -19010352.301 6    969672.57025        36.000
  24065598.833    33816294.857 6  15648885.54125        34.000
  23984810.431    -5675893.847 7  -3714436.61625        46.000
  21039508.751   -16881974.632 9  -1353714.19629        98.000
  22685549.941   -11166939.526 8  -6273945.19427        82.000
  21881427.363    -4898747.730 8 -12961936.13128        82.000
 96  6 11 16 51  0.0000000  0  7G 2G26G27G24G 7G 9G 4
  22155183.715     2725874.345 8   3733969.28827        78.000
  24116614.155   -18982032.814 6    991739.74225        38.000
  24076391.841    33873019.206 6  15693086.28825        36.000
  23974475.836    -5730241.110 7  -3756785.07025        46.000
  21043437.321   -16861336.477 9  -1337632.51229        98.000
  22678217.077   -11205469.932 8  -6303968.88027        80.000
  21873983.936    -4937868.537 8 -12992419.86928        80.000
 96  6 11 16 51 15.0000000  0  7G 2G26G27G24G 7G 9G 4
  22158840.734     2745089.286 8   3748941.96927        78.000
  24122007.272   -18953662.170 6   1013846.73025        34.000
  24087181.521    33929764.832 6  15737303.63425        34.000
  23964124.122    -5784575.451 7  -3799123.49425        44.000
  21047372.577   -16840638.502 9  -1321504.22029        96.000
  22670898.723   -11243928.348 8  -6333936.44727        80.000
  21866559.306    -4976892.653 8 -13022828.25228        80.000
 96  6 11 16 51 30.0000000  0  7G 2G26G27G24G 7G 9G 4
  22162504.767     2764355.741 8   3763954.77427        76.000
  24127424.252   -18925241.755 6   1035992.50525        36.000
  24097996.864    33986533.273 6  15781538.75725        34.000
  23953793.544    -5838898.061 7  -3841452.77525        46.000
  21051320.844   -16819885.069 9  -1305332.71229        94.000
  22663596.738   -11282312.209 8  -6363845.93827        80.000
  21859151.225    -5015815.033 8 -13053157.36528        82.000
 96  6 11 16 51 45.0000000  0  7G 2G26G27G24G 7G 9G 4
  22166184.900     2783673.977 8   3779007.95727        78.000
  24132846.598   -18896774.553 6   1058174.73025        40.000
  24108799.046    34043327.095 6  15825793.65925        34.000
  23943460.327    -5893209.678 7  -3883773.53925        44.000
  21055279.723   -16799077.837 9  -1289119.29529        94.000
  22656304.587   -11320619.886 9  -6393696.06327        84.000
  21851762.360    -5054633.687 8 -13083405.66428        78.000
 96  6 11 16 52  0.0000000  0  7G 2G26G27G24G 7G 9G 4
  22169875.794     2803045.669 8   3794102.77227        80.000
  24138264.807   -18868259.385 6   1080394.28925        38.000
  24119611.450    34100149.173 6  15870070.54825        34.000
  23933127.920    -5947511.095 7  -3926086.29925        46.000
  21059249.215   -16778216.472 9  -1272863.67229        92.000
  22649029.163   -11358849.784 8  -6423485.57727        82.000
  21844396.969    -5093348.216 8 -13113572.81728        80.000
 96  6 11 16 52 15.0000000  0  7G 2G26G27G24G 7G 9G 4
  22173569.687     2822469.230 8   3809238.02227        78.000
  24143696.597   -18839696.702 6   1102650.84525        38.000
  24130427.453    34157000.440 6  15914370.18125        34.000
  23922795.064    -6001802.498 7  -3968391.22225        42.000
  21063228.061   -16757301.934 9  -1256566.62929        94.000
  22641769.359   -11397002.248 8  -6453214.75527        80.000
  21837047.826    -5131961.905 8 -13143661.39628        80.000
 96  6 11 16 52 30.0000000  0  7G 2G26G27G24G 7G 9G 4
  22177269.516     2841943.906 8   3824413.08527        76.000
  24149142.596   -18811085.188 6   1124945.54125        38.000
  24141253.858    34213881.360 6  15958692.93125        34.000
  23912462.537    -6056082.842 7  -4010687.51725        42.000
  21067220.757   -16736334.110 9  -1240228.06529        94.000
  22634525.024   -11435074.416 8  -6482881.36327        82.000
  21829718.380    -5170474.076 8 -13173670.86728        82.000
 96  6 11 16 52 45.0000000  0  7G 2G26G27G24G 7G 9G 4
  22180987.092     2861469.896 8   3839628.15827        78.000
  24154595.192   -18782422.821 6   1147279.88025        38.000
  24152081.582    34270790.545 6  16003037.69725        34.000
  23902136.575    -6110354.228 7  -4052976.86325        42.000
  21071216.300   -16715317.310 9  -1223851.33029        92.000
  22627295.170   -11473066.052 8  -6512485.22727        80.000
  21822413.248    -5208887.623 8 -13203603.47928        82.000
 96  6 11 16 53  0.0000000  0  7G 2G26G27G24G 7G 9G 4
  22184713.393     2881048.082 8   3854883.89627        78.000
  24160064.935   -18753703.755 6   1169658.35925        40.000
  24162912.933    34327726.592 6  16047403.44125        30.000
  23891812.263    -6164614.007 7  -4095257.16325        42.000
  21075224.376   -16694251.182 9  -1207436.14629        90.000
  22620080.994   -11510975.196 9  -6542024.80527        84.000
  21815118.128    -5247203.286 8 -13233459.82328        82.000
 96  6 11 16 53 15.0000000  0  7G 2G26G27G24G 7G 9G 4
  22188449.916     2900674.903 8   3870177.50527        76.000
  24165537.227   -18724927.926 6   1192081.05225        38.000
  24173751.000    34384686.261 6  16091787.58025        32.000
  23881496.794    -6218860.827 7  -4137527.33925        44.000
  21079242.944   -16673137.343 9  -1190983.81729        94.000
  22612884.206   -11548801.283 9  -6571499.66627        84.000
  21807845.463    -5285427.162 8 -13263244.65428        82.000
 96  6 11 16 53 30.0000000  0  7G 2G26G27G24G 7G 9G 4
  22192193.274     2920352.354 8   3885510.56527        76.000
  24171029.544   -18696097.311 6   1214546.43125        38.000
  24184595.453    34441671.378 6  16136191.51525        32.000
  23871167.864    -6273090.586 7  -4179784.22925        44.000
  21083268.827   -16651976.000 9  -1174494.47029        92.000
  22605700.909   -11586541.790 8  -6600907.84427        80.000
  21800586.138    -5323560.707 8 -13292959.08428        80.000
 96  6 11 16 53 45.0000000  0  7G 2G26G27G24G 7G 9G 4
  22195945.417     2940081.100 8   3900883.62027        74.000
  24176521.353   -18667213.425 6   1237053.29125        36.000
  24195443.203    34498679.210 6  16180613.07925        32.000
  23860852.935    -6327301.167 7  -4222026.27925        42.000
  21087306.312   -16630766.626 9  -1157967.68729        92.000
  22598536.709   -11624197.056 9  -6630249.58827        86.000
  21793345.281    -5361604.626 8 -13322603.69328        82.000
 96  6 11 16 54  0.0000000  0  7G 2G26G27G24G 7G 9G 4
  22199711.619     2959861.719 8   3916297.07227        74.000
  24182031.928   -18638276.089 6   1259601.89025        36.000
  24206295.001    34555709.013 6  16225051.84225        34.000
  23850541.184    -6381493.753 7  -4264254.27025        44.000
  21091354.259   -16609509.110 9  -1141403.38129        92.000
  22591386.718   -11661769.132 9  -6659526.51927        84.000
  21786126.189    -5399561.260 8 -13352180.28028        82.000
 96  6 11 16 54 15.0000000  0  7G 2G26G27G24G 7G 9G 4
  22203491.313     2979695.166 8   3931751.72527        76.000
  24187545.591   -18609285.646 6   1282191.84925        36.000
  24217154.773    34612760.652 6  16269507.66325        34.000
  23840234.619    -6435666.590 7  -4306466.81125        42.000
  21095406.374   -16588204.783 9  -1124802.58629        94.000
  22584254.416   -11699258.394 8  -6688738.91927        80.000
  21778919.118    -5437430.378 8 -13381688.65928        80.000
 96  6 11 16 54 30.0000000  0  7G 2G26G27G24G 7G 9G 4
  22207269.357     2999579.297 8   3947245.83227        76.000
  24193068.907   -18580246.243 6   1304819.95625        38.000
  24228014.365    34669832.269 6  16313979.08525        36.000
  23829925.026    -6489820.095 7  -4348664.29525        42.000
  21099470.720   -16566854.500 9  -1108166.01129        96.000
  22577136.624   -11736664.994 8  -6717886.89927        82.000
  21771728.686    -5475212.764 8 -13411129.46928        80.000
 96  6 11 16 54 45.0000000  0  7G 2G26G27G24G 7G 9G 4
  22211063.141     3019515.217 8   3962780.32627        74.000
  24198605.084   -18551157.915 6   1327486.16425        38.000
  24238879.173    34726924.430 6  16358466.47625        36.000
  23819634.320    -6543952.740 7  -4390845.49425        44.000
  21103541.752   -16545457.442 9  -1091492.97229        96.000
  22570031.962   -11773984.403 8  -6746966.93427        80.000
  21764558.100    -5512904.724 8 -13440499.81328        82.000
 96  6 11 16 55  0.0000000  0  6G 2G26G24G 7G 9G 4
  22214866.698     3039504.477 8   3978356.37327        74.000
  24204147.947   -18522022.481 6   1350189.03425        36.000
  23809327.006    -6598063.150 7  -4433009.39825        42.000
  21107621.867   -16524011.635 9  -1074781.95429        94.000
  22562945.828   -11811213.354 8  -6775976.49327        80.000
  21757402.953    -5550505.691 9 -13469799.26528        84.000
 96  6 11 16 55 15.0000000  0  6G 2G26G24G 7G 9G 4
  22218681.587     3059546.592 8   3993973.59327        74.000
  24209698.814   -18492846.345 6   1372923.64525        34.000
  23799039.148    -6652151.627 7  -4475156.23125        44.000
  21111712.506   -16502517.495 9  -1058033.25729        94.000
  22555881.038   -11848353.258 9  -6804916.66727        84.000
  21750259.529    -5588017.207 8 -13499028.99528        82.000
 96  6 11 16 55 30.0000000  0  6G 2G26G24G 7G 9G 4
  22222508.198     3079642.341 8   4009632.62027        76.000
  24215264.281   -18463631.801 6   1395688.25225        38.000
  23788737.350    -6706218.459 7  -4517286.20425        42.000
  21115811.478   -16480976.255 9  -1041247.88628        92.000
  22548828.751   -11885404.929 9  -6833788.09027        84.000
  21743143.055    -5625438.119 8 -13528188.12928        80.000
 96  6 11 16 55 45.0000000  0  6G 2G26G24G 7G 9G 4
  22226338.616     3099793.263 8   4025334.64027        76.000
  24220825.761   -18434376.228 6   1418484.79925        34.000
  23778462.383    -6760263.291 7  -4559399.11225        44.000
  21119921.303   -16459385.077 9  -1024423.59128        94.000
  22541794.241   -11922369.326 9  -6862591.49627        84.000
  21736038.993    -5662764.635 8 -13557273.71028        82.000
 96  6 11 16 56  0.0000000  0  6G 2G26G24G 7G 9G 4
  22230182.915     3119996.912 8   4041077.73727        76.000
  24226411.344   -18405077.585 6   1441314.91425        36.000
  23768187.926    -6814289.670 7  -4601497.56525        48.000
  21124037.963   -16437742.852 9  -1007559.51028        92.000
  22534777.778   -11959249.561 8  -6891329.33827        80.000
  21728954.898    -5699996.595 8 -13586285.60628        82.000
 96  6 11 16 56 15.0000000  0  6G 2G26G24G 7G 9G 4
  22234037.676     3140253.599 8   4056862.15627        76.000
  24231986.675   -18375736.200 6   1464178.32025        34.000
  23757908.672    -6868297.228 7  -4643581.32325        48.000
  21128166.105   -16416048.991 9   -990655.19828        90.000
  22527777.294   -11996044.014 8  -6920000.33227        82.000
  21721889.569    -5737134.146 8 -13615223.94528        82.000
 96  6 11 16 56 30.0000000  0  6G 2G26G24G 7G 9G 4
  22237903.470     3160562.707 8   4072687.45027        72.000
  24237583.230   -18346349.607 6   1487076.92425        34.000
  23747620.604    -6922282.017 7  -4685647.33325        44.000
  21132309.087   -16394300.587 9   -973708.37928        92.000
  22520792.280   -12032747.463 9  -6948600.38727        84.000
  21714837.521    -5774175.882 8 -13644087.61028        82.000
 96  6 11 16 56 45.0000000  0  6G 2G26G24G 7G 9G 4
  22241778.977     3180924.765 8   4088553.98727        74.000
  24243187.940   -18316915.463 6   1510012.54725        38.000
  23737368.242    -6976242.290 7  -4727694.22025        48.000
  21136453.088   -16372496.137 9   -956717.90328        92.000
  22513822.195   -12069360.766 8  -6977130.22927        82.000
  21707809.156    -5811119.415 8 -13672874.76928        80.000
 96  6 11 16 57  0.0000000  0  6G 2G26G24G 7G 9G 4
  22245660.600     3201341.580 8   4104463.19427        74.000
  24248793.430   -18287431.425 6   1532987.11925        36.000
  23727096.483    -7030177.417 7  -4769721.59625        46.000
  21140615.017   -16350635.030 9   -939683.27928        92.000
  22506872.946   -12105885.439 8  -7005591.00927        80.000
  21700798.870    -5847964.871 8 -13701585.49628        82.000
 96  6 11 16 57 15.0000000  0  6G 2G26G24G 7G 9G 4
  22249556.762     3221812.761 8   4120414.74727        74.000
  24254412.020   -18257895.313 6   1556002.27925        36.000
  23716839.294    -7084085.701 7  -4811728.01225        46.000
  21144784.350   -16328717.530 9   -922604.69629        90.000
  22499937.877   -12142324.726 8  -7033985.23427        80.000
  21693802.253    -5884711.989 8 -13730219.60328        80.000
 96  6 11 16 57 30.0000000  0  6G 2G26G24G 7G 9G 4
  22253465.367     3242335.633 8   4136406.58527        74.000
  24260045.600   -18228306.245 6   1579058.70425        36.000
  23706597.814    -7137967.505 7  -4853713.82925        52.000
  21148965.556   -16306745.840 9   -905483.89629        90.000
  22493019.986   -12178681.187 8  -7062314.93327        82.000
  21686832.258    -5921358.476 8 -13758775.29528        82.000
 96  6 11 16 57 45.0000000  0  6G 2G26G24G 7G 9G 4
  22257382.275     3262907.848 8   4152436.87927        76.000
  24265682.717   -18198663.665 6   1602156.77325        36.000
  23696341.074    -7191822.788 7  -4895678.98225        48.000
  21153157.674   -16284722.610 9   -888322.93729        90.000
  22486119.573   -12214952.860 9  -7090578.56127        84.000
  21679876.624    -5957901.855 8 -13787250.62829        82.000
 96  6 11 16 58  0.0000000  0  6G 2G26G24G 7G 9G 4
  22261304.310     3283527.206 8   4168503.90927        74.000
  24271331.707   -18168969.391 6   1625295.11025        34.000
  23686090.481    -7245652.373 7  -4937624.10725        48.000
  21157359.145   -16262646.549 9   -871120.81528        90.000
  22479235.649   -12251138.079 9  -7118774.83827        84.000
  21672942.394    -5994341.051 8 -13815644.79129        80.000
 96  6 11 16 58 15.0000000  0  6G 2G26G24G 7G 9G 4
  22265237.557     3304192.881 8   4184607.03927        74.000
  24276992.928   -18139226.926 6   1648471.03325        34.000
  23675861.082    -7299455.164 7  -4979548.28725        50.000
  21161565.863   -16240520.575 9   -853879.80628        90.000
  22472363.866   -12287234.397 8  -7146901.82027        82.000
  21666029.420    -6030672.806 9 -13843955.23429        84.000
 96  6 11 16 58 30.0000000  0  6G 2G26G24G 7G 9G 4
  22269178.269     3324906.034 8   4200747.16927        74.000
  24282664.551   -18109438.724 6   1671682.60325        32.000
  23665622.540    -7353229.395 7  -5021450.26125        50.000
  21165784.422   -16218346.745 9   -836601.48628        90.000
  22465511.810   -12323241.604 8  -7174959.36227        80.000
  21659137.761    -6066897.573 8 -13872182.30329        82.000
 96  6 11 16 58 45.0000000  0  6G 2G26G24G 7G 9G 4
  22273130.103     3345665.578 8   4216923.42227        76.000
  24288338.063   -18079606.927 6   1694928.15225        34.000
  23655399.468    -7406978.219 7  -5063332.43025        50.000
  21170014.554   -16196130.010 9   -819289.74028        92.000
  22458674.833   -12359163.540 9  -7202950.47227        84.000
  21652265.319    -6103014.700 8 -13900325.49829        80.000
 96  6 11 16 59  0.0000000  0  6G 2G26G24G 7G 9G 4
  22277088.533     3366471.648 8   4233135.93727        74.000
  24294023.448   -18049732.499 6   1718206.95725        34.000
  23645175.346    -7460703.723 7  -5105196.40125        52.000
  21174252.450   -16173871.004 9   -801945.04329        94.000
  22451856.323   -12395001.312 9  -7230876.00327        84.000
  21645412.543    -6139020.469 8 -13928381.93629        80.000
 96  6 11 16 59 15.0000000  0  6G 2G26G24G 7G 9G 4
  22281058.174     3387324.428 8   4249384.83127        78.000
  24299722.172   -18019816.047 6   1741518.46425        36.000
  23634959.978    -7514406.889 7  -5147043.00925        52.000
  21178496.792   -16151569.961 9   -784567.61129        92.000
  22445053.103   -12430753.117 8  -7258734.54227        78.000
  21638580.422    -6174913.776 8 -13956350.73229        82.000
 96  6 11 16 59 30.0000000  0  6G 2G26G24G 7G 9G 4
  22285034.052     3408225.168 8   4265671.12927        76.000
  24305414.452   -17989859.765 6   1764860.97825        32.000
  23624733.457    -7568086.540 7  -5188871.33225        48.000
  21182748.748   -16129226.966 9   -767157.48629        92.000
  22438268.230   -12466417.710 8  -7286525.11927        80.000
  21631772.136    -6210692.798 8 -13984230.47529        80.000
 96  6 11 16 59 45.0000000  0  6G 2G26G24G 7G 9G 4
  22289019.013     3429177.095 8   4281997.29627        76.000
  24311134.522   -17959863.740 6   1788234.44125        36.000
  23614532.869    -7621741.970 7  -5230680.74625        52.000
  21187011.497   -16106837.986 9   -749711.53629        94.000
  22431495.589   -12501991.635 8  -7314245.05327        82.000
  21624984.385    -6246355.320 8 -14012019.42529        80.000
 96  6 11 17  0  0.0000000  0  6G 2G26G24G 7G 9G 4
  22293016.266     3450180.192 8   4298363.35327        74.000
  24316845.808   -17929831.875 6   1811635.87925        38.000
  23604324.846    -7675376.119 7  -5272473.53325        52.000
  21191276.674   -16084404.342 9   -732230.76129        94.000
  22424743.723   -12537477.171 8  -7341896.10927        80.000
  21618219.838    -6281905.681 8 -14039721.00429        82.000
 96  6 11 17  0 15.0000000  0  6G 2G26G24G 7G 9G 4
  22297017.776     3471237.141 8   4314771.35627        72.000
  24322559.073   -17899764.032 6   1835065.36325        32.000
  23594124.318    -7728986.404 7  -5314247.74225        52.000
  21195555.462   -16061923.774 9   -714713.42829        96.000
  22418007.416   -12572876.965 9  -7369480.32927        88.000
  21611478.555    -6317345.424 8 -14067336.36329        82.000
 96  6 11 17  0 30.0000000  0  6G 2G26G24G 7G 9G 4
  22301042.999     3492353.406 8   4331225.58827        74.000
  24328297.850   -17869657.469 6   1858525.00125        36.000
  23583928.406    -7782570.644 7  -5356001.65925        56.000
  21199839.167   -16039396.500 9   -697159.70929        92.000
  22411289.097   -12608191.990 9  -7396998.53027        84.000
  21604753.520    -6352675.706 8 -14094866.45029        82.000
 96  6 11 17  0 45.0000000  0  6G 2G26G24G 7G 9G 4
  22305072.779     3513532.615 8   4347728.85827        74.000
  24334031.201   -17839509.958 6   1882016.57025        34.000
  23573731.235    -7836127.899 7  -5397734.57025        52.000
  21204140.139   -16016819.259 9   -679567.07529        96.000
  22404583.879   -12643421.515 8  -7424450.11927        82.000
  21598051.660    -6387898.342 8 -14122312.63829        82.000
 96  6 11 17  1  0.0000000  0  6G 2G26G24G 7G 9G 4
  22309113.892     3534774.491 8   4364280.98027        74.000
  24339778.312   -17809320.521 6   1905540.69525        34.000
  23563542.999    -7889656.572 7  -5439445.21125        52.000
  21208443.360   -15994188.828 9   -661932.95829        94.000
  22397899.047   -12678563.759 9  -7451833.68127        86.000
  21591369.676    -6423013.505 8 -14149675.09529        82.000
 96  6 11 17  1 15.0000000  0  6G 2G26G24G 7G 9G 4
  22313168.255     3556082.146 8   4380884.32527        74.000
  24345524.464   -17779090.625 6   1929096.40525        32.000
  23553358.329    -7943154.060 7  -5481131.58525        52.000
  21212760.192   -15971501.416 9   -644254.45929        92.000
  22391225.997   -12713615.832 8  -7479146.96227        82.000
  21584707.268    -6458023.133 9 -14176955.30029        84.000
 96  6 11 17  1 30.0000000  0  6G 2G26G24G 7G 9G 4
  22317235.030     3577459.274 8   4397541.83527        74.000
  24351282.218   -17748821.078 6   1952683.08425        32.000
  23543190.628    -7996616.451 7  -5522790.54925        52.000
  21217089.525   -15948756.326 9   -626531.00029        92.000
  22384572.763   -12748574.973 9  -7506387.82527        84.000
  21578065.096    -6492929.265 9 -14204154.86429        84.000
 96  6 11 17  1 45.0000000  0  6G 2G26G24G 7G 9G 4
  22321317.364     3598905.987 8   4414253.54227        74.000
  24357058.559   -17718511.740 6   1976300.75625        32.000
  23533022.837    -8050042.272 7  -5564421.02725        52.000
  21221429.440   -15925952.448 9   -608761.76329        92.000
  22377938.176   -12783438.490 9  -7533554.20427        86.000
  21571442.471    -6527730.632 8 -14231272.80129        82.000
 96  6 11 17  2  0.0000000  0  6G 2G26G24G 7G 9G 4
  22325409.261     3620420.428 8   4431018.05727        72.000
  24362831.693   -17688164.096 6   1999948.27625        32.000
  23522864.969    -8103433.144 7  -5606024.27125        52.000
  21225780.118   -15903093.201 9   -590949.34729        94.000
  22371326.763   -12818205.677 9  -7560645.51427        84.000
  21564838.943    -6562429.040 8 -14258310.49929        82.000
 96  6 11 17  2 15.0000000  0  6G 2G26G24G 7G 9G 4
  22329521.724     3642001.121 8   4447834.18427        74.000
  24368611.152   -17657779.671 6   2023624.44825        32.000
  23512716.965    -8156788.009 7  -5647599.45726        54.000
  21230142.338   -15880181.754 9   -573096.26929        92.000
  22364727.521   -12852877.207 9  -7587662.27528        86.000
  21558258.498    -6597024.992 9 -14285268.36129        84.000
 96  6 11 17  2 30.0000000  0  6G 2G26G24G 7G 9G 4
  22333637.754     3663645.927 8   4464700.25327        78.000
  24374395.287   -17627357.773 6   2047329.77425        32.000
  23502572.678    -8210108.038 7  -5689147.51425        54.000
  21234508.576   -15857219.991 9   -555203.99229        88.000
  22358146.327   -12887450.139 9  -7614602.21128        84.000
  21551692.893    -6631518.070 9 -14312146.07728        84.000
 96  6 11 17  2 45.0000000  0  6G 2G26G24G 7G 9G 4
  22337768.025     3685352.888 8   4481614.75827        80.000
  24380196.091   -17596897.925 6   2071064.69525        32.000
  23492423.174    -8263393.816 7  -5730668.92425        54.000
  21238886.235   -15834209.338 9   -537273.62629        86.000
  22351586.868   -12921921.536 9  -7641463.03728        84.000
  21545146.715    -6665908.445 9 -14338943.76529        84.000
 96  6 11 17  3  0.0000000  0  6G 2G26G24G 7G 9G 4
  22341909.448     3707116.487 8   4498573.39227        78.000
  24386001.932   -17566401.716 6   2094827.91625        32.000
  23482292.497    -8316645.733 7  -5772163.89525        54.000
  21243279.454   -15811149.468 9   -519304.89829        88.000
  22345046.596   -12956291.939 9  -7668245.15228        84.000
  21538625.150    -6700194.784 9 -14365660.37229        86.000
 96  6 11 17  3 15.0000000  0  6G 2G26G24G 7G 9G 4
  22346060.344     3728935.703 8   4515575.37827        74.000
  24391813.559   -17535870.837 6   2118618.19125        34.000
  23472170.035    -8369864.398 7  -5813632.95426        52.000
  21247675.400   -15788044.013 9   -501300.64329        88.000
  22338524.911   -12990563.238 9  -7694950.04828        86.000
  21532119.564    -6734374.633 9 -14392293.99729        86.000
 96  6 11 17  3 30.0000000  0  6G 2G26G24G 7G 9G 4
  22350222.903     3750810.958 8   4532621.04627        78.000
  24397621.918   -17505304.363 6   2142436.25025        30.000
  23462046.913    -8423048.816 7  -5855075.31526        52.000
  21252076.444   -15764895.057 9   -483262.49829        86.000
  22332021.183   -13024736.123 8  -7721578.26528        82.000
  21525635.922    -6768445.027 9 -14418842.34428        86.000
 96  6 11 17  3 45.0000000  0  6G 2G26G24G 7G 9G 4
  22354397.722     3772741.013 8   4549709.39227        80.000
  24403453.631   -17474698.202 6   2166285.16825        32.000
  23451930.986    -8476199.099 7  -5896491.08826        54.000
  21256488.249   -15741702.114 9   -465190.08429        84.000
  22325539.311   -13058812.369 9  -7748131.16828        84.000
  21519176.144    -6802402.389 9 -14445302.61229        88.000
 96  6 11 17  4  0.0000000  0  6G 2G26G24G 7G 9G 4
  22358579.677     3794721.535 8   4566837.05527        78.000
  24409285.493   -17444054.819 6   2190163.02524        32.000
  23441815.029    -8529318.053 7  -5937882.44426        52.000
  21260912.017   -15718466.739 9   -447084.59029        86.000
  22319070.209   -13092796.212 9  -7774612.07628        86.000
  21512733.245    -6836247.217 9 -14471675.18829        84.000
 96  6 11 17  4 15.0000000  0  6G 2G26G24G 7G 9G 4
  22362767.448     3816755.078 8   4584006.03327        74.000
  24415125.540   -17413372.770 6   2214071.09124        30.000
  23431721.137    -8582404.021 7  -5979248.12126        54.000
  21265340.761   -15695189.103 9   -428946.17929        86.000
  22312622.933   -13126691.292 8  -7801023.81928        82.000
  21506315.857    -6869981.481 9 -14497961.61029        88.000
 96  6 11 17  4 30.0000000  0  6G 2G26G24G 7G 9G 4
  22366975.905     3838845.119 8   4601219.06027        80.000
  24420970.924   -17382647.673 6   2238012.71224        36.000
  23421627.215    -8635452.556 7  -6020584.64926        54.000
  21269781.467   -15671863.152 8   -410770.11629        82.000
  22306189.057   -13160495.787 9  -7827364.97328        90.000
  21499915.648    -6903600.036 9 -14524157.88529        86.000
 96  6 11 17  4 45.0000000  0  6G 2G26G24G 7G 9G 4
  22371193.115     3860992.852 8   4618477.03227        80.000
  24426828.538   -17351877.956 6   2261989.10524        34.000
  23411535.841    -8688464.420 7  -6061892.56026        54.000
  21274232.365   -15648488.708 9   -392556.25129        84.000
  22299770.110   -13194210.518 8  -7853636.19028        80.000
  21493537.923    -6937101.547 9 -14550262.92129        86.000
 96  6 11 17  5  0.0000000  0  6G 2G26G24G 7G 9G 4
  22375420.369     3883195.402 8   4635777.70227        80.000
  24432693.109   -17321068.942 6   2285996.17524        36.000
  23401461.885    -8741442.452 7  -6103174.09926        54.000
  21278683.114   -15625067.375 8   -374305.87029        80.000
  22293373.499   -13227841.316 9  -7879841.98928        86.000
  21487188.079    -6970488.123 9 -14576278.42429        86.000
 96  6 11 17  5 15.0000000  0  6G 2G26G24G 7G 9G 4
  22379653.109     3905454.957 8   4653122.80727        80.000
  24438557.739   -17290223.198 6   2310031.81624        34.000
  23391380.314    -8794386.634 7  -6144429.28126        54.000
  21283153.409   -15601599.383 8   -356019.12229        82.000
  22286988.729   -13261385.960 9  -7905980.66928        86.000
  21480855.203    -7003756.841 9 -14602202.08729        84.000
 96  6 11 17  5 30.0000000  0  6G 2G26G24G 7G 9G 4
  22383900.148     3927771.725 8   4670512.51427        78.000
  24444433.281   -17259342.501 6   2334094.51323        32.000
  23381313.164    -8847297.863 7  -6185658.76826        54.000
  21287626.523   -15578086.816 8   -337697.66729        82.000
  22280620.807   -13294841.059 9  -7932049.56728        84.000
  21474548.829    -7036908.581 9 -14628034.59629        84.000
 96  6 11 17  5 45.0000000  0  6G 2G26G24G 7G 9G 4
  22388154.773     3950144.265 8   4687945.65027        76.000
  24450308.644   -17228426.004 6   2358185.30624        32.000
  23371250.450    -8900175.709 7  -6226862.25926        52.000
  21292104.643   -15554529.048 8   -319340.96729        82.000
  22274272.072   -13328202.515 9  -7958045.49428        88.000
  21468261.552    -7069945.396 9 -14653777.56129        86.000
 96  6 11 17  6  0.0000000  0  6G 2G26G24G 7G 9G 4
  22392422.528     3972570.761 8   4705420.82827        74.000
  24456209.818   -17197476.584 6   2382301.75424        36.000
  23361189.775    -8953021.463 7  -6268040.76826        52.000
  21296598.262   -15530927.974 8   -300950.51129        82.000
  22267944.952   -13361469.796 9  -7983968.04128        84.000
  21461996.789    -7102869.527 9 -14679432.70729        84.000
 96  6 11 17  6 15.0000000  0  6G 2G26G24G 7G 9G 4
  22396703.355     3995053.684 8   4722939.97227        78.000
  24462098.791   -17166493.909 6   2406444.11724        36.000
  23351141.391    -9005830.574 7  -6309190.71026        54.000
  21301098.656   -15507285.027 8   -282527.43429        82.000
  22261631.173   -13394639.231 9  -8009814.34628        88.000
  21455750.103    -7135681.132 9 -14705000.16929        84.000
 96  6 11 17  6 30.0000000  0  6G 2G26G24G 7G 9G 4
  22400991.107     4017592.236 8   4740502.48427        76.000
  24468005.033   -17135476.521 6   2430613.48624        32.000
  23341097.534    -9058603.975 7  -6350312.81226        54.000
  21305605.376   -15483600.841 9   -264072.24329        84.000
  22255338.680   -13427706.764 8  -8035581.26728        82.000
  21449528.840    -7168376.806 9 -14730477.31729        84.000
 96  6 11 17  6 45.0000000  0  6G 2G26G24G 7G 9G 4
  22405293.008     4040180.859 8   4758103.99927        78.000
  24473908.216   -17104427.993 6   2454806.97723        32.000
  23331067.828    -9111344.287 7  -6391409.12426        54.000
  21310122.559   -15459877.642 9   -245586.62329        84.000
  22249064.233   -13460670.508 9  -8061267.27028        86.000
  21443330.541    -7200958.163 9 -14755865.36529        86.000
 96  6 11 17  7  0.0000000  0  6G 2G26G24G 7G 9G 4
  22409597.758     4062817.739 8   4775743.14627        74.000
  24479818.175   -17073350.652 6   2479023.04923        30.000
  23321035.723    -9164049.213 7  -6432477.85426        56.000
  21314640.461   -15436118.687 9   -227073.16429        84.000
  22242811.972   -13493530.624 9  -8086872.56128        86.000
  21437151.489    -7233426.244 9 -14781165.15929        84.000
 96  6 11 17  7 15.0000000  0  6G 2G26G24G 7G 9G 4
  22413914.890     4085502.187 8   4793419.32827        76.000
  24485736.557   -17042246.189 6   2503260.29924        30.000
  23311017.139    -9216716.365 7  -6473517.16126        56.000
  21319166.098   -15412324.860 8   -208532.52529        82.000
  22236580.006   -13526286.803 9  -8112396.84028        86.000
  21430998.818    -7265781.608 9 -14806377.10729        86.000
 96  6 11 17  7 30.0000000  0  6G 2G26G24G 7G 9G 4
  22418238.197     4108233.587 8   4811132.11427        74.000
  24491670.619   -17011112.407 6   2527520.42324        30.000
  23300998.345    -9269342.782 7  -6514524.72426        54.000
  21323705.526   -15388498.152 9   -189966.25329        84.000
  22230363.689   -13558939.208 9  -8137840.27228        86.000
  21424860.508    -7298023.347 9 -14831500.53529        86.000
 96  6 11 17  7 45.0000000  0  6G 2G26G24G 7G 9G 4
  22422574.635     4131012.979 8   4828882.26127        78.000
  24497597.756   -16979945.159 6   2551806.60124        30.000
  23290992.262    -9321924.119 7  -6555497.19626        56.000
  21328246.092   -15364635.124 9   -171371.69729        86.000
  22224171.027   -13591490.065 9  -8163204.55928        86.000
  21418747.500    -7330150.543 9 -14856534.70029        84.000
 96  6 11 17  8  0.0000000  0  6G 2G26G24G 7G 9G 4
  22426917.008     4153841.923 8   4846671.03427        76.000
  24503540.962   -16948741.306 6   2576121.28824        34.000
  23280997.361    -9374459.357 7  -6596433.73826        56.000
  21332794.754   -15340734.801 9   -152748.06129        86.000
  22217995.872   -13623941.542 9  -8188491.42828        88.000
  21412653.918    -7362163.230 9 -14881479.62629        84.000
 96  6 11 17  8 15.0000000  0  6G 2G26G24G 7G 9G 4
  22431272.423     4176720.264 8   4864498.31527        74.000
  24509486.566   -16917501.699 6   2600463.74324        32.000
  23271006.927    -9426946.789 7  -6637332.99526        58.000
  21337353.428   -15316795.491 9   -134094.06529        86.000
  22211839.064   -13656296.805 9  -8213703.30228        86.000
  21406584.440    -7394060.724 8 -14906334.81129        82.000
 96  6 11 17  8 30.0000000  0  6G 2G26G24G 7G 9G 4
  22435638.421     4199649.055 8   4882364.90227        76.000
  24515433.549   -16886225.326 6   2624834.84424        28.000
  23261034.091    -9479385.984 7  -6678194.66626        58.000
  21341910.153   -15292816.680 9   -115409.27029        84.000
  22205701.113   -13688553.844 9  -8238838.66028        88.000
  21400537.506    -7425841.917 9 -14931099.36629        84.000
 96  6 11 17  8 45.0000000  0  6G 2G26G24G 7G 9G 4
  22440011.463     4222627.382 8   4900270.08327        78.000
  24521399.179   -16854915.338 6   2649232.29124        30.000
  23251061.615    -9531778.218 7  -6719019.73726        56.000
  21346483.247   -15268797.937 9    -96693.37929        86.000
  22199580.970   -13720714.170 9  -8263898.65328        84.000
  21394509.160    -7457508.094 9 -14955774.29329        84.000
 96  6 11 17  9  0.0000000  0  6G 2G26G24G 7G 9G 4
  22444389.602     4245659.956 8   4918217.54427        76.000
  24527350.239   -16823572.572 6   2673655.21925        28.000
  23241099.392    -9584120.422 7  -6759805.83926        58.000
  21351057.391   -15244740.481 9    -77947.31329        84.000
  22193481.842   -13752780.811 9  -8288885.64228        90.000
  21388506.805    -7489062.290 9 -14980361.96429        86.000
 96  6 11 17  9 15.0000000  0  6G 2G26G24G 7G 9G 4
  22448784.110     4268754.052 8   4936212.93327        74.000
  24533330.769   -16792194.160 6   2698105.92625        32.000
  23231146.042    -9636410.377 7  -6800551.25726        58.000
  21355644.305   -15220641.109 9    -59168.60129        86.000
  22187396.625   -13784751.151 9  -8313797.58428        86.000
  21382524.806    -7520500.987 9 -15004859.64429        86.000
 96  6 11 17  9 30.0000000  0  6G 2G26G24G 7G 9G 4
  22453192.528     4291912.506 8   4954258.47527        76.000
  24539301.375   -16760779.183 6   2722585.15125        28.000
  23221213.768    -9688651.512 7  -6841258.60226        60.000
  21360239.524   -15196497.718 9    -40355.56829        88.000
  22181333.292   -13816620.513 9  -8338630.84428        90.000
  21376566.881    -7551824.069 9 -15029267.21029        84.000
 96  6 11 17  9 45.0000000  0  6G 2G26G24G 7G 9G 4
  22457611.739     4315135.025 8   4972353.93127        74.000
  24545287.211   -16729329.060 6   2747091.71024        26.000
  23211279.875    -9740845.910 7  -6881929.53926        58.000
  21364845.355   -15172307.915 9    -21506.37029        90.000
  22175283.810   -13848388.246 9  -8363384.93028        88.000
  21370625.804    -7583034.043 9 -15053586.66029        84.000
 96  6 11 17 10  0.0000000  0  6G 2G26G24G 7G 9G 4
  22462045.909     4338424.291 8   4990501.43227        76.000
  24551271.878   -16697844.474 6   2771625.05024        28.000
  23201349.550    -9792995.914 7  -6922565.88026        58.000
  21369454.095   -15148072.591 9     -2621.70729        90.000
  22169259.961   -13880053.248 9  -8388058.94128        88.000
  21364704.693    -7614131.402 9 -15077818.35129        84.000
 96  6 11 17 10 15.0000000  0  6G 2G26G24G 7G 9G 4
  22466491.172     4361781.474 8   5008701.80527        78.000
  24557275.132   -16666327.749 6   2796183.54425        26.000
  23191435.833    -9845101.047 7  -6963167.25826        58.000
  21374077.014   -15123792.002 9     16298.24029        90.000
  22163256.737   -13911612.625 9  -8412650.66428        90.000
  21358811.642    -7645112.680 8 -15101959.60729        82.000
 96  6 11 17 10 30.0000000  0  6G 2G26G24G 7G 9G 4
  22470947.047     4385206.292 8   5026954.90627        76.000
  24563280.125   -16634785.330 6   2820762.07225        26.000
  23181526.973    -9897162.409 7  -7003734.48826        58.000
  21378701.793   -15099469.244 9     35251.05029        90.000
  22157266.853   -13943065.694 9  -8437159.54128        88.000
  21352934.991    -7675977.102 8 -15126009.79429        80.000
 96  6 11 17 10 45.0000000  0  6G 2G26G24G 7G 9G 4
  22475417.762     4408700.758 8   5045262.29627        76.000
  24569283.439   -16603217.734 6   2845360.14925        24.000
  23171629.745    -9949180.724 7  -7044268.19726        58.000
  21383339.342   -15075104.897 9     54236.25029        88.000
  22151304.851   -13974410.751 9  -8461584.23928        86.000
  21347089.248    -7706721.692 9 -15149966.61229        84.000
 96  6 11 17 11  0.0000000  0  6G 2G26G24G 7G 9G 4
  22479901.218     4432264.303 8   5063623.47427        76.000
  24575302.372   -16571626.551 6   2869976.62925        26.000
  23161737.193   -10001157.089 7  -7084769.24226        58.000
  21387984.956   -15050697.291 9     73255.14029        86.000
  22145360.986   -14005649.832 9  -8485926.39028        90.000
  21341259.723    -7737346.052 9 -15173829.73529        84.000
 96  6 11 17 11 15.0000000  0  6G 2G26G24G 7G 9G 4
  22484399.154     4455896.679 8   5082038.32527        76.000
  24581320.526   -16540010.238 6   2894612.58825        24.000
  23151857.113   -10053089.777 7  -7125236.25326        60.000
  21392638.425   -15026243.828 9     92309.79929        86.000
  22139436.877   -14036779.719 9  -8510183.43928        88.000
  21335460.628    -7767844.955 9 -15197595.10329        86.000
 96  6 11 17 11 30.0000000  0  6G 2G26G24G 7G 9G 4
  22488906.654     4479593.063 8   5100503.01527        76.000
  24587334.303   -16508369.082 6   2919268.06525        26.000
  23141987.525   -10104980.432 7  -7165670.51826        62.000
  21397301.486   -15001742.524 9    111401.71529        88.000
  22133530.845   -14067798.248 9  -8534353.72728        84.000
  21329674.154    -7798216.150 9 -15221260.95629        84.000
 96  6 11 17 11 45.0000000  0  6G 2G26G24G 7G 9G 4
  22493431.841     4503346.435 8   5119012.11827        80.000
  24593362.439   -16476705.833 6   2943940.70825        26.000
  23132112.182   -10156828.285 7  -7206071.41826        60.000
  21401970.454   -14977195.182 9    130529.51529        88.000
  22127650.446   -14098709.265 9  -8558440.20828        86.000
  21323922.186    -7828459.781 9 -15244827.41329        84.000
 96  6 11 17 12  0.0000000  0  6G 2G26G24G 7G 9G 4
  22497956.339     4527155.522 8   5137564.64927        72.000
  24599396.242   -16445022.233 6   2968629.23025        28.000
  23122262.950   -10208630.716 7  -7246436.91826        60.000
  21406648.056   -14952604.036 9    149691.45129        84.000
  22121790.733   -14129515.641 9  -8582445.17628        88.000
  21318187.096    -7858572.744 9 -15268292.05729        86.000
 96  6 11 17 12 15.0000000  0  6G 2G26G24G 7G 9G 4
  22502498.464     4551016.705 8   5156157.77727        74.000
  24605425.039   -16413320.254 6   2993332.07725        26.000
  23112413.089   -10260387.924 7  -7286767.15826        62.000
  21411339.148   -14927973.912 9    168883.74129        86.000
  22115942.891   -14160218.965 9  -8606369.83428        88.000
  21312487.232    -7888553.712 9 -15291653.84829        86.000
 96  6 11 17 12 30.0000000  0  6G 2G26G24G 7G 9G 4
  22507049.734     4574929.332 8   5174790.99727        76.000
  24611461.090   -16381602.692 6   3018046.97625        28.000
  23102565.147   -10312099.852 7  -7327062.13826        60.000
  21416034.318   -14903303.564 9    188107.38829        86.000
  22110124.369   -14190818.846 9  -8630213.88828        90.000
  21306807.334    -7918406.051 9 -15314915.39729        86.000
 96  6 11 17 12 45.0000000  0  6G 2G26G24G 7G 9G 4
  22511613.624     4598892.763 8   5193463.78727        76.000
  24617497.471   -16349867.886 6   3042775.32125        24.000
  23092738.490   -10363767.508 7  -7367322.62326        62.000
  21420734.044   -14878593.726 9    207361.80529        86.000
  22104320.807   -14221316.738 9  -8653978.47528        86.000
  21301152.019    -7948132.432 9 -15338078.80329        86.000
 96  6 11 17 13  0.0000000  0  6G 2G26G24G 7G 9G 4
  22516180.872     4622907.746 8   5212176.76027        74.000
  24623540.148   -16318112.052 6   3067520.13224        26.000
  23082913.661   -10415388.739 7  -7407546.93526        62.000
  21425444.413   -14853842.640 9    226648.35829        84.000
  22098538.830   -14251711.438 9  -8677662.66928        94.000
  21295514.812    -7977732.373 9 -15361143.66529        86.000
 96  6 11 17 13 15.0000000  0  6G 2G26G24G 7G 9G 4
  22520761.521     4646973.880 8   5230929.57727        72.000
  24629593.977   -16286333.014 6   3092283.02725        28.000
  23073100.945   -10466961.528 7  -7447733.51126        62.000
  21430162.127   -14829050.833 9    245966.65729        86.000
  22092769.204   -14282003.195 9  -8701266.62728        86.000
  21289907.074    -8007208.552 9 -15384112.12229        86.000
 96  6 11 17 13 30.0000000  0  6G 2G26G24G 7G 9G 4
  22525349.575     4671091.236 8   5249722.30527        72.000
  24635641.750   -16254531.149 6   3117063.71825        26.000
  23063295.813   -10518485.516 8  -7487882.07226        64.000
  21434887.846   -14804222.674 9    265313.26429        84.000
  22087028.778   -14312191.285 9  -8724789.79928        94.000
  21284321.581    -8036563.839 9 -15406986.36729        86.000
 96  6 11 17 13 45.0000000  0  6G 2G26G24G 7G 9G 4
  22529950.790     4695264.169 8   5268558.34927        74.000
  24641702.594   -16222703.745 6   3141864.26625        26.000
  23053497.546   -10569958.640 8  -7527990.95926        64.000
  21439613.414   -14779357.857 8    284688.43629        82.000
  22081300.194   -14342276.056 9  -8748232.48128        86.000
  21278760.251    -8065798.341 9 -15429766.49229        88.000
 96  6 11 17 14  0.0000000  0  6G 2G26G24G 7G 9G 4
  22534560.129     4719497.275 8   5287441.28127        70.000
  24647752.976   -16190851.359 6   3166684.23825        26.000
  23043715.917   -10621378.731 8  -7568058.52726        66.000
  21444357.150   -14754457.005 9    304091.70429        84.000
  22075597.752   -14372258.759 9  -8771595.61228        88.000
  21273212.262    -8094911.682 9 -15452452.20629        86.000
 96  6 11 17 14 15.0000000  0  6G 2G26G24G 7G 9G 4
  22539181.279     4743794.795 8   5306374.40727        72.000
  24653821.315   -16158972.964 6   3191524.51824        28.000
  23033940.105   -10672749.317 8  -7608087.51426        66.000
  21449103.944   -14729521.883 9    323521.66029        84.000
  22069910.569   -14402138.887 9  -8794878.83028        86.000
  21267697.220    -8123905.264 9 -15475044.58229        86.000
 96  6 11 17 14 30.0000000  0  6G 2G26G24G 7G 9G 4
  22543824.585     4768162.122 8   5325361.93827        72.000
  24659903.144   -16127066.119 6   3216386.93924        30.000
  23024174.576   -10724069.778 8  -7648077.45826        66.000
  21453856.944   -14704549.744 8    342980.46829        82.000
  22064243.712   -14431915.284 9  -8818081.21628        90.000
  21262206.970    -8152782.650 9 -15497546.42229        88.000
 96  6 11 17 14 45.0000000  0  6G 2G26G24G 7G 9G 4
  22548470.469     4792600.560 8   5344404.86327        72.000
  24665976.730   -16095131.143 6   3241271.30624        28.000
  23014423.256   -10775341.434 8  -7688029.35726        66.000
  21458617.528   -14679540.921 8    362467.84929        82.000
  22058602.277   -14461587.470 9  -8841202.39628        90.000
  21256729.163    -8181543.767 9 -15519957.69729        86.000
 96  6 11 17 15  0.0000000  0  6G 2G26G24G 7G 9G 4
  22553135.030     4817108.780 8   5363502.15627        70.000
  24672055.771   -16063165.498 6   3266179.65424        30.000
  23004670.648   -10826561.756 8  -7727941.28426        66.000
  21463379.851   -14654495.972 8    381983.39229        82.000
  22052973.494   -14491153.905 9  -8864241.18428        94.000
  21251283.583    -8210184.054 9 -15542274.80529        88.000
 96  6 11 17 15 15.0000000  0  6G 2G26G24G 7G 9G 4
  22557811.672     4841684.280 8   5382651.89727        72.000
  24678145.335   -16031170.975 6   3291110.44424        28.000
  22994935.188   -10877730.071 8  -7767812.70626        66.000
  21468151.828   -14629413.742 8    401527.99129        80.000
  22047365.786   -14520613.101 9  -8887196.38028        84.000
  21245852.033    -8238705.252 9 -15564499.09629        86.000
 96  6 11 17 15 30.0000000  0  6G 2G26G24G 7G 9G 4
  22562496.918     4866326.238 8   5401853.39627        72.000
  24684249.290   -15999149.465 6   3316062.22023        28.000
  22985208.571   -10928846.247 8  -7807643.45726        68.000
  21472930.909   -14604294.600 8    421101.34129        78.000
  22041779.903   -14549964.314 9  -8910067.45028        90.000
  21240448.693    -8267107.274 9 -15586630.52729        86.000
 96  6 11 17 15 45.0000000  0  6G 2G26G24G 7G 9G 4
  22567201.831     4891036.136 8   5421107.86627        72.000
  24690327.372   -15967103.582 6   3341032.90823        24.000
  22975486.751   -10979912.833 8  -7847435.57526        66.000
  21477718.895   -14579138.096 8    440703.78729        78.000
  22036214.016   -14579206.579 9  -8932853.63228        86.000
  21235066.579    -8295388.989 9 -15608668.21729        86.000
 96  6 11 17 16  0.0000000  0  6G 2G26G24G 7G 9G 4
  22571919.156     4915813.899 8   5440415.21427        72.000
  24696431.596   -15935033.964 6   3366022.21123        22.000
  22965781.151   -11030929.885 8  -7887189.08526        64.000
  21482512.336   -14553942.484 8    460336.74429        78.000
  22030674.362   -14608338.618 9  -8955553.92128        94.000
  21229706.170    -8323549.095 9 -15630611.15029        86.000
 96  6 11 17 16 15.0000000  0  5G 2G24G 7G 9G 4
  22576644.994     4940658.329 8   5459774.51527        70.000
  22956083.134   -11081896.879 8  -7926903.60126        66.000
  21487316.001   -14528709.562 8    479998.75329        80.000
  22025150.266   -14637357.269 9  -8978165.86528        90.000
  21224374.631    -8351589.357 9 -15652460.70329        92.000
 96  6 11 17 16 30.0000000  0  5G 2G24G 7G 9G 4
  22581386.451     4965570.210 8   5479186.33827        72.000
  22946395.581   -11132810.626 8  -7966576.62026        66.000
  21492125.151   -14503436.611 8    499691.94229        82.000
  22019650.723   -14666257.310 9  -9000685.36728        92.000
  21219058.771    -8379508.951 9 -15674216.22729        90.000
 96  6 11 17 16 45.0000000  0  5G 2G24G 7G 9G 4
  22586138.372     4990543.150 8   5498645.77027        72.000
  22936716.512   -11183671.032 8  -8006208.10926        66.000
  21496939.039   -14478124.095 8    519415.98329        82.000
  22014175.853   -14695038.336 9  -9023112.13328        88.000
  21213769.653    -8407306.781 9 -15695876.87329        88.000
 96  6 11 17 17  0.0000000  0  5G 2G24G 7G 9G 4
  22590899.226     5015570.262 8   5518147.40627        72.000
  22927051.083   -11234479.004 8  -8045798.73626        66.000
  21501762.250   -14452775.037 8    539168.50029        82.000
  22008719.091   -14723703.225 9  -9045448.40128        90.000
  21208502.060    -8434981.724 9 -15717441.74029        88.000
 96  6 11 17 17 15.0000000  0  5G 2G24G 7G 9G 4
  22595675.909     5040653.159 8   5537692.49727        74.000
  22917392.789   -11285231.314 8  -8085345.95826        66.000
  21506598.622   -14427386.531 9    558951.73929        84.000
  22003284.573   -14752251.592 9  -9067693.88928        88.000
  21203262.467    -8462531.724 9 -15738909.26729        88.000
 96  6 11 17 17 30.0000000  0  5G 2G24G 7G 9G 4
  22600460.177     5065795.613 8   5557284.01727        72.000
  22907742.470   -11335928.308 8  -8124850.07426        66.000
  21511434.214   -14401956.800 8    578767.12329        80.000
  21997878.536   -14780684.336 9  -9089849.26628        92.000
  21198040.622    -8489958.057 9 -15760280.41629        90.000
 96  6 11 17 17 45.0000000  0  5G 2G24G 7G 9G 4
  22605252.120     5090999.046 8   5576923.05527        70.000
  22898106.900   -11386572.185 8  -8164312.79826        66.000
  21516284.166   -14376486.376 8    598614.19429        82.000
  21992483.800   -14809004.238 9  -9111916.71928        90.000
  21192846.777    -8517258.217 9 -15781553.25529        90.000
 96  6 11 17 18  0.0000000  0  5G 2G24G 7G 9G 4
  22610061.720     5116264.910 8   5596610.73027        72.000
  22888478.916   -11437159.552 8  -8203731.50026        66.000
  21521143.982   -14350973.741 9    618494.16829        84.000
  21987117.725   -14837211.111 9  -9133896.10128        90.000
  21187677.516    -8544430.927 9 -15802726.78929        90.000
 96  6 11 17 18 15.0000000  0  5G 2G24G 7G 9G 4
  22614881.873     5141591.544 8   5616345.73727        72.000
  22878864.302   -11487688.454 8  -8243104.64026        66.000
  21526001.489   -14325420.320 9    638405.91529        84.000
  21981771.826   -14865307.930 9  -9155789.70328        86.000
  21182528.461    -8571474.212 9 -15823799.47929        88.000
 96  6 11 17 18 30.0000000  0  5G 2G24G 7G 9G 4
  22619713.298     5166978.123 8   5636127.49127        74.000
  22869257.243   -11538158.769 8  -8282432.16126        66.000
  21530870.389   -14299825.940 9    658349.57229        84.000
  21976442.835   -14893295.307 9  -9177598.05228        86.000
  21177408.335    -8598387.196 9 -15844770.64529        92.000
 96  6 11 17 18 45.0000000  0  5G 2G24G 7G 9G 4
  22624557.974     5192423.359 8   5655954.92327        72.000
  22859663.284   -11588571.984 8  -8321715.18826        66.000
  21535747.382   -14274189.633 8    678325.91929        82.000
  21971140.316   -14921175.719 9  -9199323.04928        90.000
  21172314.502    -8625169.391 9 -15865639.87129        92.000
 96  6 11 17 19  0.0000000  0  5G 2G24G 7G 9G 4
  22629406.128     5217928.100 8   5675828.73127        70.000
  22850082.127   -11638926.429 8  -8360952.38226        66.000
  21540637.327   -14248510.677 9    698335.49729        84.000
  21965855.725   -14948950.160 9  -9220965.47028        84.000
  21167240.664    -8651818.855 9 -15886405.67729        92.000
 96  6 11 17 19 15.0000000  0  5G 2G24G 7G 9G 4
  22634273.948     5243496.423 8   5695752.09727        72.000
  22840513.711   -11689221.339 8  -8400143.18026        68.000
  21545532.698   -14222788.298 9    718378.90229        84.000
  21960591.969   -14976616.732 9  -9242523.83928        94.000
  21162190.780    -8678336.602 9 -15907068.83329        90.000
 96  6 11 17 19 30.0000000  0  5G 2G24G 7G 9G 4
  22639148.843     5269129.335 8   5715725.78927        70.000
  22830953.420   -11739457.289 8  -8439288.03926        68.000
  21550434.005   -14197021.503 9    738456.91629        84.000
  21955348.658   -15004173.573 9  -9263996.70728        84.000
  21157173.963    -8704723.818 9 -15927630.29429        92.000
 96  6 11 17 19 45.0000000  0  5G 2G24G 7G 9G 4
  22644042.745     5294827.634 8   5735750.43727        70.000
  22821405.510   -11789635.613 8  -8478388.01426        66.000
  21555345.715   -14171210.563 9    758569.33029        84.000
  21950126.154   -15031618.697 9  -9285382.49528        94.000
  21152176.453    -8730979.878 9 -15948089.56429        92.000
 96  6 11 17 20  0.0000000  0  5G 2G24G 7G 9G 4
  22648947.680     5320589.639 8   5755824.68427        72.000
  22811865.154   -11839756.705 8  -8517443.41026        66.000
  21560266.838   -14145359.989 9    778712.64929        86.000
  21944922.506   -15058951.528 9  -9306680.82628        86.000
  21147202.267    -8757104.242 9 -15968446.21129        92.000
 96  6 11 17 20 15.0000000  0  5G 2G24G 7G 9G 4
  22653856.661     5346413.478 8   5775947.14127        70.000
  22802339.369   -11889822.349 8  -8556455.61226        66.000
  21565191.229   -14119474.263 8    798883.33129        82.000
  21939746.679   -15086170.150 9  -9327890.12728        90.000
  21142262.107    -8783097.953 9 -15988701.03229        94.000
 96  6 11 17 20 30.0000000  0  5G 2G24G 7G 9G 4
  22658783.031     5372300.180 8   5796118.59227        72.000
  22792821.438   -11939831.703 8  -8595423.90626        68.000
  21570121.675   -14093553.459 8    819081.34229        82.000
  21934586.502   -15113268.470 9  -9349005.71628        86.000
  21137337.985    -8808959.201 9 -16008852.65929        94.000
 96  6 11 17 20 45.0000000  0  5G 2G24G 7G 9G 4
  22663722.981     5398247.864 8   5816337.50927        74.000
  22783315.949   -11989785.555 8  -8634348.94726        68.000
  21575059.347   -14067596.853 9    839307.26929        84.000
  21929454.415   -15140245.473 9  -9370026.74928        88.000
  21132441.925    -8834688.788 9 -16028901.67629        92.000
 96  6 11 17 21  0.0000000  0  5G 2G24G 7G 9G 4
  22668669.287     5424253.268 8   5836601.51427        70.000
  22773819.543   -12039686.926 8  -8673233.10526        68.000
  21580008.651   -14041608.033 9    859558.27429        86.000
  21924343.943   -15167106.594 9  -9390957.48128        88.000
  21127570.747    -8860288.242 9 -16048849.28329        94.000
 96  6 11 17 21 15.0000000  0  5G 2G24G 7G 9G 4
  22673630.612     5450317.335 8   5856911.15627        70.000
  22764335.788   -12089534.365 8  -8712075.25226        68.000
  21584958.194   -14015590.596 9    879833.16429        86.000
  21919251.818   -15193850.558 9  -9411796.93428        84.000
  21122722.983    -8885754.519 9 -16068693.14529        92.000
 96  6 11 17 21 30.0000000  0  5G 2G24G 7G 9G 4
  22678600.392     5476439.792 8   5877266.29727        70.000
  22754858.779   -12139325.341 8  -8750873.40626        66.000
  21589915.173   -13989539.868 8    900130.86929        82.000
  21914188.623   -15220476.406 9  -9432544.34928        90.000
  21117902.800    -8911088.500 9 -16088433.90529        92.000
 96  6 11 17 21 45.0000000  0  5G 2G24G 7G 9G 4
  22683583.062     5502618.303 8   5897665.13026        70.000
  22745397.239   -12189058.976 8  -8789626.89026        68.000
  21594876.408   -13963464.969 8    920448.97629        82.000
  21909143.985   -15246986.056 9  -9453201.20528        88.000
  21113110.018    -8936290.574 9 -16108071.87328        94.000
 96  6 11 17 22  0.0000000  0  5G 2G24G 7G 9G 4
  22688575.536     5528852.699 8   5918107.49726        70.000
  22735942.564   -12238735.243 8  -8828335.64526        66.000
  21599844.719   -13937366.605 9    940785.36029        84.000
  21904118.384   -15273380.266 9  -9473768.13928        90.000
  21108336.962    -8961361.091 9 -16127607.33728        92.000
 96  6 11 17 22 15.0000000  0  5G 2G24G 7G 9G 4
  22693577.393     5555142.314 8   5938592.89426        70.000
  22726499.012   -12288349.316 8  -8866995.92826        66.000
  21604811.230   -13911244.249 9    961140.42429        84.000
  21899114.908   -15299656.636 9  -9494243.24128        86.000
  21103591.787    -8986299.984 9 -16147040.23029        94.000
 96  6 11 17 22 30.0000000  0  5G 2G24G 7G 9G 4
  22698590.133     5581486.208 8   5959120.62226        70.000
  22717075.756   -12337897.665 8  -8905605.00727        68.000
  21609792.822   -13885093.093 9    981517.95429        84.000
  21894138.983   -15325814.845 9  -9514626.24228        88.000
  21098871.975    -9011105.057 9 -16166368.84529        94.000
 96  6 11 17 22 45.0000000  0  5G 2G24G 7G 9G 4
  22703612.616     5607883.993 8   5979690.29026        70.000
  22707658.765   -12387377.447 8  -8944160.64827        70.000
  21614775.432   -13858911.777 9   1001918.97529        86.000
  21889182.125   -15351857.553 9  -9534919.27128        84.000
  21094175.606    -9035775.128 9 -16185592.28228        92.000
 96  6 11 17 23  0.0000000  0  5G 2G24G 7G 9G 4
  22708647.570     5634338.432 8   6000304.12226        70.000
  22698254.006   -12436786.621 8  -8982661.29827        68.000
  21619762.210   -13832697.333 9   1022345.80829        84.000
  21884249.759   -15377785.932 9  -9555123.19728        86.000
  21089507.028    -9060308.417 9 -16204709.12728        94.000
 96  6 11 17 23 15.0000000  0  5G 2G24G 7G 9G 4
  22713695.416     5660852.341 8   6020964.30326        70.000
  22688862.857   -12486122.866 8  -9021105.11327        68.000
  21624758.401   -13806449.892 8   1042798.35529        82.000
  21879340.358   -15403595.925 9  -9575234.86628        86.000
  21084868.249    -9084705.140 9 -16223719.54128        96.000
 96  6 11 17 23 30.0000000  0  5G 2G24G 7G 9G 4
  22718747.428     5687423.622 8   6041669.17626        70.000
  22679489.036   -12535385.983 8  -9059491.96027        70.000
  21629756.421   -13780169.982 8   1063276.21429        80.000
  21874451.462   -15429284.805 9  -9595252.18528        90.000
  21080247.638    -9108968.202 9 -16242625.82328        94.000
 96  6 11 17 23 45.0000000  0  5G 2G24G 7G 9G 4
  22723816.229     5714053.181 8   6062419.45626        68.000
  22670128.287   -12584579.746 8  -9097824.72527        70.000
  21634768.022   -13753857.243 8   1083779.62529        82.000
  21869584.692   -15454853.464 9  -9615175.81828        86.000
  21075655.567    -9133099.582 9 -16261429.48528        94.000
 96  6 11 17 24  0.0000000  0  5G 2G24G 7G 9G 4
  22728895.103     5740745.145 8   6083218.38026        66.000
  22660780.248   -12633705.612 8  -9136104.60927        70.000
  21639778.843   -13727509.225 8   1104310.53629        80.000
  21864745.352   -15480299.632 9  -9635003.99828        90.000
  21071089.998    -9157095.601 9 -16280127.66928        94.000
 96  6 11 17 24 15.0000000  0  5G 2G24G 7G 9G 4
  22733990.316     5767502.330 8   6104068.13526        70.000
  22651450.467   -12682761.887 8  -9174330.25027        74.000
  21644798.658   -13701121.560 8   1124872.35229        80.000
  21859928.047   -15505621.973 9  -9654735.67428        88.000
  21066547.183    -9180952.861 9 -16298717.74428        94.000
 96  6 11 17 24 30.0000000  0  5G 2G24G 7G 9G 4
  22739090.745     5794322.177 8   6124966.71326        68.000
  22642127.311   -12731750.830 8  -9212503.43627        74.000
  21649829.085   -13674694.476 8   1145464.89329        82.000
  21855133.646   -15530821.296 9  -9674371.53428        90.000
  21062035.666    -9204670.120 9 -16317198.72728        94.000
 96  6 11 17 24 45.0000000  0  5G 2G24G 7G 9G 4
  22744207.543     5821204.895 8   6145914.25226        68.000
  22632813.749   -12780676.566 8  -9250627.36327        72.000
  21654865.898   -13648230.160 8   1166086.43029        82.000
  21850356.303   -15555901.611 9  -9693914.62828        84.000
  21057548.253    -9228249.372 9 -16335572.16129        94.000
 96  6 11 17 25  0.0000000  0  5G 2G24G 7G 9G 4
  22749336.812     5848153.365 8   6166913.03426        70.000
  22623514.817   -12829540.863 8  -9288703.43427        72.000
  21659909.966   -13621729.450 8   1186736.32829        80.000
  21845606.691   -15580863.369 9  -9713365.33828        84.000
  21053089.919    -9251694.232 9 -16353840.88229        94.000
 96  6 11 17 25 15.0000000  0  5G 2G24G 7G 9G 4
  22754476.694     5875169.241 8   6187964.34926        68.000
  22614229.884   -12878345.464 8  -9326732.99427        74.000
  21664962.249   -13595191.359 8   1207415.37329        82.000
  21840883.281   -15605704.268 9  -9732721.88528        92.000
  21048649.333    -9275008.738 9 -16372008.01429        92.000
 96  6 11 17 25 30.0000000  0  5G 2G24G 7G 9G 4
  22759629.346     5902255.153 8   6209070.23726        68.000
  22604953.137   -12927089.590 8  -9364715.37827        74.000
  21670015.161   -13568615.964 8   1228123.46329        80.000
  21836172.912   -15630422.277 8  -9751982.67028        80.000
  21044241.155    -9298190.879 9 -16390072.01829        96.000
 96  6 11 17 25 45.0000000  0  5G 2G24G 7G 9G 4
  22764800.107     5929410.954 8   6230230.60326        70.000
  22595689.550   -12975774.885 8  -9402651.95927        74.000
  21675079.105   -13542005.886 8   1248858.58328        80.000
  21831499.987   -15655020.048 9  -9771149.75828        94.000
  21039854.772    -9321241.474 9 -16408033.51229        96.000
 96  6 11 17 26  0.0000000  0  5G 2G24G 7G 9G 4
  22769979.861     5956636.809 8   6251445.56326        72.000
  22586437.475   -13024401.462 8  -9440542.78327        74.000
  21680148.086   -13515362.830 8   1269619.39328        82.000
  21826837.225   -15679500.414 9  -9790225.38328        84.000
  21035492.102    -9344160.469 9 -16425892.46829        94.000
 96  6 11 17 26 15.0000000  0  5G 2G24G 7G 9G 4
  22775175.684     5983929.593 8   6272712.65426        70.000
  22577197.212   -13072965.223 8  -9478384.64727        74.000
  21685225.821   -13488686.113 8   1290406.43829        80.000
  21822200.995   -15703863.987 9  -9809209.97628        88.000
  21031154.525    -9366946.246 9 -16443647.61129        94.000
 96  6 11 17 26 30.0000000  0  5G 2G24G 7G 9G 4
  22780376.094     6011286.695 8   6294029.83926        70.000
  22567963.064   -13121465.836 8  -9516177.34527        74.000
  21690309.191   -13461977.168 8   1311218.59229        80.000
  21817588.478   -15728111.443 9  -9828104.09528        86.000
  21026845.878    -9389599.342 9 -16461299.38629        94.000
 96  6 11 17 26 45.0000000  0  5G 2G24G 7G 9G 4
  22785598.988     6038708.394 8   6315397.35426        68.000
  22558750.322   -13169902.288 8  -9553920.01527        76.000
  21695395.980   -13435238.360 8   1332054.02129        80.000
  21812996.827   -15752243.803 9  -9846908.54728        86.000
  21022560.224    -9412122.321 9 -16478849.75029        94.000
 96  6 11 17 27  0.0000000  0  5G 2G24G 7G 9G 4
  22790828.897     6066195.512 8   6336815.87826        70.000
  22549544.565   -13218273.496 8  -9591611.83927        76.000
  21700492.332   -13408471.060 8   1352911.66829        80.000
  21808425.921   -15776262.264 9  -9865624.21828        88.000
  21018298.765    -9434516.966 9 -16496300.11629        94.000
 96  6 11 17 27 15.0000000  0  5G 2G24G 7G 9G 4
  22796068.370     6093746.970 8   6358284.54626        70.000
  22540351.429   -13266579.941 8  -9629253.19227        74.000
  21705586.345   -13381677.082 8   1373790.08029        80.000
  21803877.680   -15800163.685 9  -9884248.69828        86.000
  21014060.928    -9456782.144 9 -16513649.58929        94.000
 96  6 11 17 27 30.0000000  0  5G 2G24G 7G 9G 4
  22801326.850     6121361.429 8   6379802.29726        68.000
  22531168.726   -13314819.965 8  -9666842.81427        74.000
  21710695.738   -13354858.003 8   1394688.05129        82.000
  21799351.803   -15823948.663 9  -9902782.45128        92.000
  21009847.315    -9478912.953 9 -16530894.37229        92.000
 96  6 11 17 27 45.0000000  0  5G 2G24G 7G 9G 4
  22806592.884     6149035.434 8   6401366.46126        68.000
  22522004.071   -13362993.830 8  -9704380.86627        76.000
  21715797.726   -13328016.216 8   1415603.69929        82.000
  21794844.423   -15847619.259 8  -9921227.08428        82.000
  21005667.669    -9500907.141 9 -16548032.69129        98.000
 96  6 11 17 28  0.0000000  0  5G 2G24G 7G 9G 4
  22811866.503     6176766.446 8   6422975.02026        66.000
  22512849.908   -13411099.340 8  -9741865.69027        76.000
  21720909.427   -13301151.307 8   1436537.40629        80.000
  21790363.335   -15871176.201 9  -9939583.12928        90.000
  21001508.528    -9522764.405 9 -16565064.31429        96.000
 96  6 11 17 28 15.0000000  0  5G 2G24G 7G 9G 4
  22817154.573     6204555.007 8   6444628.40326        68.000
  22503710.615   -13459134.720 8  -9779295.84427        76.000
  21726024.816   -13274258.734 8   1457492.65829        78.000
  21785903.323   -15894617.603 9  -9957849.16128        88.000
  20997370.403    -9544483.449 9 -16581988.24829        94.000
